GEFSMA_prec_meanprec_006.txt.gz
QPF
0.00 0.00 0.00 0.00 0.00 0.00 0.00 0.00 0.00 0.00 0.00 0.00 0.00 0.00 0.00 0.00 0.00 0.00 0.00 0.00 0.00 0.00 0.00 0.00 0.00 0.00 0.00 0.01 0.01 0.03 0.05 0.04 0.03 0.04 0.04 0.04 0.04 0.03 0.03 0.04 0.04 0.04 0.02
0.00 0.00 0.00 0.00 0.00 0.00 0.00 0.00 0.00 0.00 0.00 0.00 0.00 0.00 0.00 0.00 0.00 0.00 0.00 0.00 0.00 0.00 0.00 0.00 0.00 0.00 0.00 0.00 0.01 0.01 0.02 0.02 0.03 0.03 0.04 0.05 0.07 0.07 0.06 0.06 0.07 0.07 0.05
0.00 0.00 0.00 0.00 0.00 0.00 0.00 0.00 0.00 0.00 0.00 0.00 0.00 0.00 0.00 0.00 0.00 0.00 0.00 0.00 0.00 0.00 0.00 0.00 0.00 0.00 0.00 0.00 0.00 0.01 0.01 0.01 0.02 0.03 0.04 0.05 0.06 0.08 0.08 0.07 0.07 0.08 0.08
0.00 0.00 0.00 0.00 0.00 0.00 0.00 0.00 0.00 0.00 0.00 0.00 0.00 0.00 0.00 0.00 0.00 0.00 0.00 0.00 0.00 0.00 0.00 0.00 0.00 0.00 0.00 0.00 0.00 0.01 0.01 0.01 0.01 0.02 0.03 0.05 0.06 0.06 0.06 0.06 0.06 0.07 0.09
0.00 0.00 0.00 0.00 0.00 0.00 0.00 0.00 0.00 0.00 0.00 0.00 0.00 0.00 0.00 0.00 0.00 0.00 0.00 0.00 0.00 0.00 0.00 0.00 0.00 0.00 0.00 0.00 0.00 0.00 0.01 0.01 0.01 0.01 0.02 0.05 0.05 0.04 0.05 0.06 0.07 0.08 0.08
0.00 0.00 0.00 0.00 0.00 0.00 0.00 0.00 0.00 0.00 0.00 0.00 0.00 0.00 0.00 0.00 0.00 0.00 0.00 0.00 0.00 0.00 0.00 0.00 0.00 0.00 0.00 0.00 0.00 0.00 0.01 0.02 0.02 0.02 0.02 0.02 0.03 0.05 0.05 0.05 0.07 0.09 0.09
0.00 0.00 0.00 0.00 0.01 0.01 0.01 0.00 0.00 0.00 0.00 0.00 0.00 0.00 0.00 0.00 0.00 0.00 0.00 0.00 0.00 0.00 0.00 0.00 0.00 0.00 0.00 0.00 0.00 0.01 0.02 0.02 0.03 0.03 0.03 0.03 0.04 0.05 0.04 0.03 0.04 0.05 0.07
0.01 0.02 0.04 0.05 0.06 0.04 0.03 0.02 0.01 0.00 0.00 0.00 0.00 0.00 0.00 0.00 0.00 0.00 0.00 0.00 0.00 0.00 0.00 0.00 0.00 0.00 0.00 0.00 0.00 0.01 0.02 0.02 0.03 0.06 0.06 0.04 0.03 0.03 0.03 0.02 0.02 0.02 0.03
0.07 0.09 0.09 0.08 0.07 0.04 0.03 0.02 0.01 0.00 0.00 0.00 0.00 0.00 0.00 0.00 0.00 0.00 0.00 0.00 0.00 0.00 0.00 0.00 0.00 0.00 0.00 0.00 0.00 0.01 0.01 0.01 0.01 0.02 0.03 0.03 0.03 0.03 0.03 0.03 0.02 0.02 0.02
0.06 0.05 0.04 0.03 0.02 0.01 0.00 0.00 0.00 0.00 0.00 0.00 0.00 0.00 0.00 0.00 0.00 0.00 0.00 0.00 0.00 0.00 0.00 0.00 0.00 0.00 0.00 0.00 0.00 0.00 0.00 0.00 0.00 0.00 0.00 0.00 0.01 0.01 0.02 0.02 0.03 0.03 0.03
0.01 0.01 0.00 0.00 0.00 0.00 0.00 0.00 0.00 0.00 0.00 0.00 0.00 0.00 0.00 0.00 0.00 0.01 0.00 0.00 0.00 0.00 0.00 0.00 0.00 0.00 0.00 0.00 0.00 0.00 0.00 0.00 0.00 0.00 0.00 0.00 0.00 0.02 0.03 0.03 0.03 0.03 0.03
0.00 0.00 0.00 0.00 0.00 0.00 0.00 0.00 0.00 0.00 0.00 0.00 0.00 0.00 0.00 0.01 0.01 0.02 0.01 0.00 0.00 0.00 0.00 0.00 0.00 0.00 0.00 0.00 0.00 0.00 0.00 0.00 0.00 0.00 0.00 0.01 0.03 0.04 0.04 0.04 0.05 0.06 0.07
0.00 0.00 0.00 0.00 0.00 0.00 0.00 0.00 0.00 0.00 0.00 0.00 0.00 0.00 0.00 0.00 0.00 0.01 0.01 0.00 0.00 0.00 0.00 0.00 0.00 0.00 0.00 0.00 0.00 0.00 0.00 0.01 0.01 0.01 0.02 0.06 0.09 0.12 0.10 0.09 0.07 0.07 0.06
0.00 0.00 0.00 0.00 0.00 0.00 0.00 0.00 0.00 0.00 0.00 0.00 0.00 0.00 0.00 0.00 0.01 0.01 0.02 0.03 0.03 0.02 0.01 0.01 0.00 0.00 0.00 0.00 0.00 0.00 0.00 0.02 0.03 0.05 0.08 0.14 0.18 0.23 0.18 0.09 0.05 0.07 0.07
0.00 0.00 0.00 0.00 0.00 0.00 0.00 0.00 0.00 0.00 0.00 0.00 0.00 0.00 0.01 0.01 0.02 0.03 0.04 0.06 0.07 0.04 0.02 0.02 0.01 0.01 0.00 0.00 0.00 0.00 0.01 0.03 0.11 0.20 0.22 0.24 0.26 0.30 0.25 0.14 0.07 0.05 0.03
0.00 0.00 0.00 0.00 0.00 0.00 0.00 0.00 0.00 0.00 0.00 0.00 0.00 0.00 0.00 0.01 0.01 0.01 0.02 0.03 0.03 0.04 0.04 0.03 0.02 0.02 0.02 0.01 0.01 0.01 0.02 0.07 0.21 0.47 0.57 0.42 0.30 0.34 0.36 0.22 0.11 0.05 0.02
0.00 0.00 0.00 0.00 0.00 0.00 0.00 0.00 0.00 0.00 0.00 0.00 0.00 0.00 0.01 0.01 0.02 0.02 0.02 0.02 0.02 0.03 0.05 0.05 0.04 0.04 0.04 0.03 0.02 0.01 0.03 0.11 0.24 0.63 0.90 0.96 0.58 0.34 0.32 0.27 0.16 0.07 0.03
0.00 0.00 0.00 0.00 0.01 0.00 0.00 0.00 0.01 0.01 0.01 0.01 0.02 0.03 0.03 0.03 0.02 0.02 0.02 0.02 0.03 0.05 0.10 0.12 0.13 0.12 0.12 0.07 0.05 0.03 0.03 0.06 0.15 0.50 0.84 1.06 0.91 0.50 0.31 0.24 0.18 0.09 0.03
0.00 0.00 0.00 0.01 0.01 0.01 0.01 0.01 0.02 0.03 0.03 0.03 0.03 0.03 0.03 0.04 0.04 0.05 0.07 0.09 0.10 0.12 0.17 0.20 0.21 0.20 0.18 0.10 0.08 0.07 0.06 0.04 0.08 0.36 0.71 0.79 0.77 0.60 0.37 0.21 0.11 0.06 0.01
0.00 0.01 0.01 0.01 0.01 0.01 0.02 0.03 0.03 0.03 0.03 0.04 0.06 0.07 0.08 0.10 0.09 0.10 0.12 0.13 0.13 0.14 0.17 0.22 0.23 0.23 0.21 0.13 0.08 0.10 0.09 0.06 0.10 0.28 0.55 0.65 0.56 0.44 0.29 0.15 0.05 0.02 0.00
0.01 0.01 0.00 0.00 0.00 0.01 0.02 0.02 0.02 0.03 0.05 0.06 0.07 0.08 0.11 0.12 0.12 0.11 0.10 0.09 0.12 0.17 0.18 0.22 0.24 0.20 0.17 0.11 0.07 0.07 0.07 0.06 0.12 0.22 0.33 0.40 0.36 0.26 0.13 0.06 0.02 0.01 0.00
0.00 0.00 0.00 0.00 0.01 0.01 0.03 0.04 0.04 0.05 0.07 0.08 0.08 0.07 0.06 0.07 0.08 0.08 0.10 0.11 0.12 0.21 0.35 0.38 0.27 0.20 0.12 0.06 0.04 0.03 0.06 0.09 0.11 0.12 0.15 0.17 0.14 0.12 0.06 0.02 0.01 0.00 0.00
0.00 0.00 0.00 0.00 0.00 0.01 0.03 0.04 0.05 0.05 0.06 0.07 0.07 0.05 0.03 0.03 0.04 0.04 0.05 0.09 0.13 0.18 0.27 0.37 0.30 0.17 0.14 0.07 0.05 0.06 0.11 0.17 0.17 0.10 0.10 0.10 0.05 0.04 0.02 0.01 0.01 0.00 0.00
0.01 0.00 0.00 0.00 0.00 0.01 0.02 0.02 0.03 0.04 0.05 0.06 0.06 0.04 0.03 0.03 0.04 0.06 0.05 0.05 0.08 0.11 0.17 0.21 0.28 0.17 0.10 0.09 0.08 0.11 0.16 0.17 0.16 0.09 0.05 0.04 0.02 0.01 0.01 0.01 0.00 0.00 0.00
0.01 0.01 0.00 0.00 0.00 0.00 0.01 0.01 0.02 0.02 0.03 0.05 0.04 0.03 0.03 0.03 0.06 0.08 0.08 0.09 0.11 0.16 0.24 0.32 0.32 0.23 0.16 0.15 0.14 0.15 0.15 0.12 0.09 0.06 0.04 0.02 0.01 0.00 0.00 0.01 0.01 0.00 0.00
0.02 0.01 0.00 0.00 0.00 0.00 0.00 0.00 0.01 0.01 0.02 0.02 0.02 0.03 0.04 0.03 0.06 0.07 0.09 0.10 0.10 0.16 0.17 0.22 0.25 0.23 0.18 0.20 0.23 0.19 0.14 0.07 0.05 0.04 0.03 0.01 0.01 0.00 0.00 0.00 0.00 0.00 0.00

GEFSMA_prec_meanprec_012.txt.gz
QPF
0.00 0.00 0.00 0.00 0.00 0.00 0.00 0.00 0.00 0.00 0.00 0.00 0.00 0.00 0.00 0.00 0.00 0.00 0.00 0.00 0.00 0.00 0.00 0.00 0.00 0.00 0.00 0.00 0.00 0.00 0.00 0.00 0.00 0.00 0.00 0.01 0.01 0.02 0.04 0.05 0.06 0.07 0.08
0.00 0.00 0.00 0.00 0.00 0.00 0.00 0.00 0.00 0.00 0.00 0.00 0.00 0.00 0.00 0.00 0.00 0.00 0.00 0.00 0.00 0.00 0.00 0.00 0.00 0.00 0.00 0.00 0.00 0.00 0.00 0.00 0.00 0.00 0.00 0.00 0.00 0.00 0.01 0.02 0.03 0.04 0.04
0.00 0.00 0.00 0.00 0.00 0.00 0.00 0.00 0.00 0.00 0.00 0.00 0.00 0.00 0.00 0.00 0.00 0.00 0.00 0.00 0.00 0.00 0.00 0.00 0.00 0.00 0.00 0.00 0.00 0.00 0.00 0.00 0.00 0.00 0.00 0.00 0.00 0.00 0.00 0.01 0.02 0.02 0.02
0.00 0.00 0.00 0.00 0.00 0.00 0.00 0.00 0.00 0.00 0.00 0.00 0.00 0.00 0.00 0.00 0.00 0.00 0.00 0.00 0.00 0.00 0.00 0.00 0.00 0.00 0.00 0.00 0.00 0.00 0.00 0.00 0.00 0.00 0.01 0.01 0.01 0.01 0.00 0.01 0.01 0.01 0.01
0.00 0.00 0.00 0.00 0.00 0.00 0.00 0.00 0.00 0.00 0.00 0.00 0.00 0.00 0.00 0.00 0.00 0.00 0.00 0.00 0.00 0.00 0.00 0.00 0.00 0.00 0.00 0.00 0.00 0.00 0.00 0.00 0.00 0.01 0.01 0.01 0.01 0.01 0.01 0.01 0.01 0.01 0.02
0.00 0.00 0.00 0.00 0.00 0.00 0.00 0.00 0.00 0.00 0.00 0.00 0.00 0.00 0.00 0.00 0.00 0.00 0.00 0.00 0.00 0.00 0.00 0.00 0.00 0.00 0.00 0.00 0.00 0.00 0.00 0.00 0.00 0.00 0.00 0.01 0.01 0.01 0.01 0.01 0.01 0.01 0.02
0.00 0.00 0.00 0.00 0.00 0.00 0.00 0.00 0.00 0.00 0.00 0.00 0.00 0.00 0.00 0.00 0.00 0.00 0.00 0.00 0.00 0.00 0.00 0.00 0.00 0.00 0.00 0.00 0.00 0.00 0.00 0.00 0.00 0.00 0.00 0.00 0.01 0.00 0.00 0.00 0.00 0.01 0.02
0.00 0.00 0.00 0.00 0.00 0.00 0.00 0.00 0.00 0.00 0.00 0.00 0.00 0.00 0.00 0.00 0.00 0.00 0.00 0.00 0.00 0.00 0.00 0.00 0.00 0.00 0.00 0.00 0.00 0.00 0.00 0.00 0.00 0.00 0.00 0.00 0.00 0.00 0.00 0.00 0.01 0.01 0.01
0.00 0.00 0.00 0.00 0.00 0.00 0.00 0.00 0.00 0.00 0.00 0.00 0.00 0.00 0.00 0.00 0.00 0.00 0.00 0.00 0.00 0.00 0.00 0.00 0.00 0.00 0.00 0.00 0.00 0.00 0.00 0.00 0.00 0.00 0.00 0.00 0.00 0.00 0.00 0.00 0.01 0.01 0.02
0.00 0.00 0.00 0.00 0.00 0.00 0.00 0.00 0.00 0.00 0.00 0.00 0.00 0.00 0.00 0.00 0.00 0.00 0.00 0.00 0.00 0.00 0.00 0.00 0.00 0.00 0.00 0.00 0.00 0.00 0.00 0.00 0.00 0.00 0.00 0.00 0.00 0.00 0.00 0.00 0.01 0.02 0.03
0.00 0.00 0.00 0.00 0.00 0.00 0.00 0.00 0.00 0.00 0.00 0.00 0.00 0.00 0.00 0.00 0.00 0.01 0.00 0.00 0.00 0.00 0.00 0.00 0.00 0.00 0.00 0.00 0.00 0.00 0.00 0.00 0.00 0.00 0.00 0.00 0.00 0.00 0.00 0.01 0.01 0.03 0.04
0.00 0.00 0.00 0.00 0.00 0.00 0.00 0.00 0.00 0.00 0.00 0.00 0.00 0.00 0.00 0.00 0.00 0.01 0.01 0.00 0.00 0.00 0.00 0.00 0.00 0.00 0.00 0.00 0.01 0.01 0.00 0.00 0.00 0.00 0.00 0.00 0.00 0.00 0.00 0.01 0.02 0.04 0.05
0.00 0.00 0.00 0.00 0.00 0.00 0.00 0.00 0.00 0.00 0.00 0.00 0.00 0.00 0.01 0.01 0.01 0.02 0.02 0.01 0.00 0.00 0.00 0.00 0.00 0.01 0.01 0.03 0.06 0.04 0.02 0.01 0.00 0.00 0.00 0.00 0.00 0.01 0.02 0.04 0.05 0.06 0.07
0.00 0.00 0.00 0.00 0.00 0.00 0.00 0.00 0.00 0.00 0.00 0.01 0.01 0.01 0.02 0.01 0.02 0.03 0.03 0.03 0.02 0.01 0.01 0.02 0.02 0.04 0.07 0.09 0.10 0.04 0.05 0.02 0.00 0.00 0.00 0.01 0.01 0.04 0.08 0.11 0.10 0.09 0.08
0.00 0.00 0.00 0.00 0.00 0.00 0.00 0.01 0.01 0.01 0.02 0.02 0.02 0.02 0.03 0.02 0.03 0.03 0.04 0.06 0.06 0.04 0.03 0.03 0.04 0.07 0.12 0.12 0.09 0.09 0.09 0.02 0.00 0.00 0.01 0.03 0.06 0.12 0.18 0.21 0.19 0.16 0.13
0.00 0.00 0.00 0.00 0.00 0.01 0.01 0.02 0.03 0.03 0.03 0.03 0.03 0.03 0.02 0.02 0.03 0.03 0.04 0.06 0.08 0.08 0.06 0.03 0.04 0.08 0.12 0.11 0.09 0.07 0.04 0.02 0.01 0.01 0.05 0.14 0.21 0.30 0.35 0.35 0.30 0.25 0.21
0.00 0.00 0.00 0.01 0.01 0.02 0.02 0.03 0.04 0.03 0.03 0.03 0.02 0.02 0.02 0.03 0.04 0.04 0.06 0.08 0.10 0.11 0.10 0.04 0.04 0.09 0.11 0.11 0.10 0.09 0.05 0.05 0.04 0.06 0.14 0.30 0.45 0.59 0.64 0.54 0.45 0.35 0.28
0.01 0.01 0.01 0.02 0.02 0.03 0.03 0.04 0.03 0.03 0.03 0.03 0.03 0.03 0.03 0.04 0.05 0.06 0.09 0.10 0.10 0.11 0.12 0.07 0.05 0.11 0.14 0.16 0.19 0.16 0.10 0.08 0.07 0.12 0.24 0.42 0.55 0.74 0.91 0.82 0.66 0.49 0.35
0.01 0.02 0.03 0.03 0.03 0.02 0.02 0.03 0.03 0.02 0.02 0.03 0.04 0.05 0.05 0.07 0.08 0.09 0.11 0.11 0.11 0.11 0.12 0.10 0.07 0.14 0.21 0.28 0.28 0.19 0.12 0.10 0.06 0.09 0.25 0.52 0.71 0.86 1.07 1.09 0.95 0.71 0.46
0.03 0.04 0.03 0.03 0.03 0.02 0.02 0.02 0.01 0.01 0.02 0.03 0.04 0.06 0.07 0.09 0.09 0.10 0.10 0.09 0.10 0.12 0.13 0.12 0.11 0.18 0.24 0.30 0.26 0.18 0.12 0.10 0.07 0.06 0.20 0.57 0.86 0.88 0.97 1.08 1.03 0.83 0.56
0.03 0.03 0.03 0.03 0.02 0.02 0.01 0.01 0.01 0.01 0.02 0.03 0.03 0.03 0.04 0.05 0.08 0.09 0.10 0.10 0.10 0.10 0.10 0.11 0.15 0.20 0.22 0.25 0.21 0.13 0.08 0.07 0.05 0.05 0.12 0.40 0.75 0.83 0.76 0.76 0.72 0.59 0.43
0.03 0.03 0.02 0.02 0.01 0.01 0.00 0.01 0.01 0.01 0.03 0.04 0.03 0.02 0.02 0.03 0.04 0.07 0.09 0.09 0.08 0.08 0.08 0.12 0.15 0.14 0.13 0.12 0.11 0.07 0.05 0.03 0.02 0.04 0.06 0.21 0.43 0.60 0.57 0.46 0.37 0.25 0.16
0.02 0.02 0.01 0.01 0.01 0.01 0.00 0.00 0.00 0.01 0.04 0.05 0.04 0.03 0.02 0.01 0.03 0.05 0.07 0.07 0.07 0.08 0.08 0.15 0.19 0.12 0.09 0.08 0.07 0.05 0.04 0.03 0.02 0.02 0.04 0.15 0.28 0.37 0.32 0.23 0.15 0.07 0.03
0.01 0.01 0.01 0.00 0.01 0.00 0.00 0.00 0.00 0.01 0.03 0.03 0.03 0.02 0.02 0.01 0.03 0.07 0.08 0.07 0.07 0.08 0.07 0.12 0.20 0.17 0.12 0.12 0.10 0.05 0.04 0.05 0.05 0.03 0.05 0.13 0.21 0.21 0.14 0.08 0.04 0.02 0.01
0.00 0.00 0.00 0.00 0.01 0.01 0.00 0.00 0.00 0.01 0.01 0.02 0.02 0.01 0.01 0.02 0.05 0.12 0.13 0.12 0.11 0.11 0.10 0.17 0.27 0.32 0.28 0.24 0.17 0.09 0.06 0.03 0.03 0.04 0.07 0.10 0.12 0.10 0.06 0.04 0.02 0.01 0.00
0.00 0.00 0.00 0.00 0.00 0.00 0.00 0.00 0.00 0.00 0.00 0.01 0.01 0.01 0.02 0.04 0.08 0.16 0.18 0.15 0.13 0.14 0.13 0.18 0.28 0.35 0.32 0.32 0.27 0.15 0.07 0.02 0.03 0.06 0.07 0.06 0.05 0.04 0.03 0.03 0.02 0.02 0.01

GEFSMA_prec_meanprec_018.txt.gz
QPF
0.00 0.00 0.00 0.00 0.00 0.00 0.00 0.00 0.00 0.00 0.00 0.00 0.00 0.00 0.00 0.00 0.00 0.00 0.00 0.00 0.00 0.00 0.00 0.00 0.00 0.00 0.00 0.00 0.00 0.00 0.00 0.00 0.00 0.00 0.00 0.00 0.00 0.00 0.00 0.00 0.01 0.02 0.04
0.00 0.00 0.00 0.00 0.00 0.00 0.00 0.00 0.00 0.00 0.00 0.00 0.00 0.00 0.00 0.00 0.00 0.00 0.00 0.00 0.00 0.00 0.00 0.00 0.00 0.00 0.00 0.00 0.00 0.00 0.00 0.00 0.00 0.00 0.00 0.00 0.00 0.00 0.00 0.00 0.00 0.01 0.01
0.00 0.00 0.00 0.00 0.00 0.00 0.00 0.00 0.00 0.00 0.00 0.00 0.00 0.00 0.00 0.00 0.00 0.00 0.00 0.00 0.00 0.00 0.00 0.00 0.00 0.00 0.00 0.00 0.00 0.00 0.00 0.00 0.00 0.00 0.00 0.00 0.00 0.00 0.00 0.00 0.00 0.00 0.01
0.00 0.00 0.00 0.00 0.00 0.00 0.00 0.00 0.00 0.00 0.00 0.00 0.00 0.00 0.00 0.00 0.00 0.00 0.00 0.00 0.00 0.00 0.00 0.00 0.00 0.00 0.00 0.00 0.00 0.00 0.00 0.00 0.00 0.00 0.00 0.00 0.00 0.00 0.00 0.00 0.00 0.00 0.00
0.00 0.00 0.00 0.01 0.00 0.00 0.00 0.00 0.01 0.01 0.00 0.00 0.00 0.00 0.00 0.00 0.00 0.00 0.00 0.00 0.00 0.00 0.00 0.00 0.00 0.00 0.00 0.00 0.00 0.00 0.00 0.00 0.00 0.00 0.00 0.00 0.00 0.00 0.00 0.00 0.00 0.00 0.00
0.00 0.00 0.00 0.01 0.00 0.00 0.01 0.02 0.02 0.02 0.01 0.01 0.00 0.00 0.00 0.00 0.00 0.00 0.00 0.00 0.00 0.00 0.00 0.00 0.00 0.00 0.01 0.01 0.00 0.00 0.00 0.00 0.00 0.00 0.00 0.00 0.00 0.00 0.00 0.00 0.00 0.00 0.00
0.00 0.00 0.00 0.01 0.01 0.02 0.02 0.01 0.01 0.01 0.01 0.00 0.00 0.00 0.00 0.00 0.00 0.00 0.00 0.00 0.00 0.00 0.00 0.00 0.00 0.01 0.01 0.01 0.02 0.02 0.02 0.01 0.01 0.00 0.00 0.00 0.00 0.00 0.00 0.00 0.00 0.00 0.00
0.00 0.00 0.01 0.00 0.01 0.01 0.00 0.01 0.01 0.00 0.00 0.00 0.00 0.00 0.00 0.00 0.00 0.00 0.00 0.00 0.00 0.00 0.00 0.00 0.00 0.00 0.01 0.01 0.02 0.03 0.04 0.02 0.01 0.01 0.00 0.00 0.00 0.00 0.00 0.00 0.00 0.00 0.00
0.00 0.00 0.00 0.00 0.00 0.00 0.00 0.01 0.01 0.01 0.01 0.00 0.00 0.01 0.01 0.00 0.00 0.00 0.00 0.00 0.00 0.00 0.00 0.00 0.00 0.00 0.00 0.00 0.00 0.01 0.02 0.02 0.01 0.00 0.00 0.00 0.00 0.00 0.00 0.00 0.00 0.00 0.00
0.00 0.00 0.00 0.00 0.00 0.00 0.00 0.00 0.01 0.01 0.01 0.00 0.00 0.00 0.00 0.00 0.01 0.00 0.00 0.00 0.00 0.00 0.00 0.00 0.00 0.00 0.00 0.00 0.00 0.00 0.00 0.01 0.01 0.01 0.01 0.01 0.00 0.00 0.00 0.00 0.00 0.00 0.00
0.00 0.00 0.00 0.00 0.01 0.01 0.01 0.01 0.01 0.01 0.01 0.01 0.01 0.00 0.00 0.00 0.01 0.01 0.00 0.00 0.00 0.00 0.00 0.00 0.00 0.00 0.00 0.00 0.00 0.00 0.00 0.01 0.02 0.02 0.01 0.01 0.01 0.01 0.00 0.00 0.00 0.00 0.00
0.00 0.00 0.00 0.00 0.01 0.01 0.01 0.02 0.02 0.02 0.02 0.03 0.02 0.02 0.02 0.02 0.02 0.02 0.01 0.01 0.00 0.00 0.00 0.00 0.00 0.00 0.00 0.00 0.00 0.01 0.02 0.03 0.03 0.02 0.01 0.01 0.01 0.00 0.00 0.00 0.00 0.00 0.00
0.00 0.00 0.00 0.00 0.00 0.01 0.01 0.01 0.02 0.02 0.02 0.03 0.03 0.03 0.03 0.03 0.03 0.03 0.03 0.02 0.01 0.01 0.00 0.00 0.00 0.00 0.00 0.01 0.03 0.04 0.06 0.06 0.03 0.02 0.01 0.01 0.00 0.00 0.00 0.00 0.00 0.00 0.00
0.00 0.00 0.00 0.00 0.01 0.01 0.01 0.02 0.02 0.02 0.03 0.04 0.03 0.04 0.05 0.04 0.04 0.05 0.05 0.05 0.04 0.02 0.01 0.01 0.00 0.01 0.03 0.05 0.07 0.07 0.14 0.08 0.03 0.02 0.01 0.00 0.00 0.00 0.00 0.00 0.00 0.00 0.00
0.00 0.00 0.00 0.01 0.01 0.01 0.02 0.03 0.03 0.03 0.04 0.04 0.04 0.04 0.04 0.04 0.05 0.05 0.05 0.06 0.07 0.06 0.04 0.02 0.02 0.03 0.07 0.09 0.13 0.18 0.20 0.12 0.05 0.02 0.01 0.00 0.00 0.00 0.00 0.00 0.00 0.00 0.00
0.01 0.01 0.01 0.02 0.02 0.02 0.03 0.04 0.04 0.04 0.04 0.04 0.04 0.04 0.04 0.04 0.05 0.04 0.05 0.05 0.07 0.08 0.07 0.03 0.01 0.03 0.05 0.07 0.13 0.20 0.20 0.13 0.06 0.03 0.01 0.01 0.00 0.00 0.00 0.00 0.00 0.00 0.01
0.02 0.02 0.02 0.03 0.03 0.03 0.04 0.05 0.04 0.04 0.03 0.03 0.03 0.04 0.04 0.04 0.04 0.04 0.04 0.05 0.06 0.09 0.09 0.04 0.02 0.02 0.04 0.07 0.13 0.19 0.20 0.13 0.09 0.07 0.04 0.02 0.01 0.01 0.01 0.01 0.02 0.03 0.04
0.03 0.03 0.03 0.03 0.03 0.04 0.04 0.04 0.03 0.02 0.03 0.03 0.03 0.04 0.03 0.03 0.03 0.04 0.04 0.05 0.06 0.07 0.10 0.07 0.03 0.03 0.05 0.10 0.17 0.21 0.22 0.17 0.13 0.14 0.10 0.08 0.06 0.07 0.09 0.08 0.08 0.09 0.12
0.04 0.04 0.04 0.05 0.05 0.04 0.04 0.03 0.02 0.01 0.02 0.02 0.03 0.04 0.04 0.04 0.04 0.04 0.05 0.05 0.06 0.07 0.08 0.08 0.04 0.04 0.07 0.13 0.20 0.21 0.19 0.17 0.15 0.15 0.13 0.12 0.13 0.23 0.35 0.34 0.27 0.21 0.23
0.04 0.04 0.04 0.04 0.04 0.03 0.02 0.01 0.00 0.01 0.02 0.02 0.03 0.04 0.05 0.05 0.06 0.06 0.05 0.05 0.06 0.07 0.08 0.08 0.07 0.07 0.09 0.15 0.17 0.18 0.17 0.15 0.14 0.11 0.11 0.15 0.29 0.47 0.70 0.82 0.69 0.47 0.37
0.03 0.03 0.03 0.03 0.03 0.02 0.00 0.00 0.00 0.00 0.01 0.02 0.03 0.05 0.06 0.06 0.06 0.05 0.03 0.04 0.06 0.08 0.08 0.08 0.08 0.09 0.10 0.13 0.15 0.13 0.13 0.13 0.09 0.06 0.07 0.18 0.48 0.70 0.85 0.99 1.04 0.82 0.65
0.03 0.03 0.02 0.02 0.02 0.01 0.00 0.00 0.00 0.00 0.01 0.03 0.05 0.06 0.05 0.05 0.03 0.02 0.02 0.04 0.06 0.07 0.07 0.07 0.07 0.07 0.07 0.08 0.09 0.11 0.11 0.09 0.06 0.03 0.04 0.17 0.46 0.78 0.95 1.01 1.07 0.93 0.79
0.03 0.03 0.03 0.02 0.02 0.01 0.00 0.00 0.00 0.00 0.02 0.05 0.07 0.07 0.05 0.02 0.01 0.01 0.02 0.04 0.06 0.08 0.07 0.06 0.06 0.06 0.06 0.05 0.07 0.10 0.09 0.06 0.04 0.02 0.03 0.12 0.33 0.62 0.81 0.87 0.86 0.76 0.67
0.04 0.04 0.03 0.02 0.02 0.01 0.00 0.00 0.00 0.00 0.02 0.03 0.05 0.06 0.04 0.01 0.01 0.02 0.04 0.05 0.05 0.06 0.06 0.05 0.06 0.07 0.06 0.05 0.06 0.06 0.04 0.04 0.03 0.01 0.02 0.08 0.21 0.40 0.54 0.58 0.56 0.49 0.43
0.04 0.03 0.02 0.01 0.02 0.01 0.00 0.00 0.00 0.00 0.01 0.01 0.02 0.03 0.02 0.00 0.02 0.05 0.07 0.09 0.09 0.08 0.06 0.06 0.10 0.13 0.11 0.09 0.07 0.05 0.04 0.03 0.02 0.01 0.02 0.06 0.13 0.23 0.30 0.31 0.28 0.23 0.19
0.03 0.02 0.01 0.01 0.01 0.01 0.00 0.00 0.00 0.00 0.00 0.00 0.01 0.02 0.01 0.01 0.03 0.06 0.10 0.12 0.13 0.13 0.09 0.07 0.12 0.16 0.13 0.13 0.14 0.12 0.08 0.05 0.02 0.02 0.03 0.06 0.10 0.12 0.16 0.14 0.11 0.08 0.06

GEFSMA_prec_meanprec_024.txt.gz
QPF
0.00 0.00 0.00 0.00 0.00 0.00 0.00 0.00 0.00 0.00 0.00 0.00 0.00 0.00 0.00 0.00 0.00 0.00 0.00 0.00 0.00 0.00 0.00 0.00 0.00 0.00 0.00 0.00 0.00 0.00 0.00 0.00 0.00 0.00 0.00 0.00 0.00 0.00 0.00 0.00 0.00 0.00 0.00
0.00 0.00 0.00 0.00 0.00 0.00 0.00 0.00 0.00 0.00 0.00 0.00 0.00 0.00 0.00 0.00 0.00 0.00 0.00 0.00 0.00 0.00 0.00 0.00 0.00 0.00 0.00 0.00 0.00 0.00 0.00 0.00 0.00 0.00 0.00 0.00 0.00 0.00 0.00 0.00 0.00 0.00 0.00
0.00 0.00 0.00 0.00 0.00 0.00 0.00 0.00 0.00 0.00 0.00 0.00 0.00 0.00 0.01 0.01 0.01 0.01 0.01 0.01 0.01 0.00 0.00 0.00 0.00 0.01 0.01 0.01 0.01 0.00 0.00 0.00 0.00 0.00 0.00 0.00 0.00 0.00 0.00 0.00 0.00 0.00 0.00
0.00 0.00 0.00 0.00 0.00 0.00 0.00 0.00 0.00 0.00 0.01 0.01 0.02 0.02 0.02 0.02 0.01 0.01 0.01 0.01 0.01 0.01 0.01 0.00 0.01 0.01 0.01 0.01 0.01 0.01 0.01 0.02 0.02 0.01 0.01 0.01 0.00 0.00 0.00 0.00 0.00 0.00 0.00
0.00 0.00 0.00 0.00 0.00 0.00 0.01 0.02 0.02 0.02 0.02 0.03 0.04 0.03 0.02 0.02 0.01 0.01 0.01 0.01 0.01 0.01 0.01 0.00 0.01 0.02 0.02 0.03 0.03 0.04 0.04 0.05 0.06 0.05 0.03 0.02 0.01 0.01 0.00 0.00 0.00 0.00 0.00
0.01 0.01 0.01 0.01 0.01 0.02 0.03 0.03 0.04 0.04 0.03 0.02 0.01 0.01 0.01 0.00 0.00 0.00 0.00 0.00 0.00 0.00 0.00 0.00 0.00 0.01 0.05 0.09 0.09 0.08 0.10 0.11 0.11 0.10 0.07 0.04 0.02 0.01 0.01 0.00 0.00 0.00 0.00
0.05 0.05 0.04 0.03 0.03 0.02 0.02 0.01 0.01 0.01 0.01 0.00 0.00 0.00 0.00 0.00 0.00 0.00 0.00 0.00 0.00 0.00 0.00 0.00 0.01 0.01 0.04 0.09 0.11 0.12 0.12 0.13 0.14 0.14 0.10 0.07 0.05 0.03 0.01 0.01 0.00 0.00 0.00
0.09 0.06 0.04 0.03 0.01 0.01 0.01 0.00 0.00 0.00 0.00 0.00 0.00 0.00 0.00 0.00 0.00 0.00 0.00 0.00 0.00 0.00 0.00 0.00 0.00 0.00 0.01 0.02 0.03 0.05 0.07 0.07 0.08 0.09 0.09 0.09 0.07 0.05 0.03 0.02 0.01 0.00 0.00
0.05 0.03 0.02 0.01 0.01 0.01 0.00 0.00 0.00 0.00 0.00 0.00 0.00 0.01 0.01 0.01 0.00 0.00 0.00 0.00 0.00 0.00 0.00 0.00 0.00 0.00 0.00 0.00 0.00 0.01 0.04 0.06 0.04 0.04 0.07 0.10 0.10 0.08 0.05 0.03 0.01 0.01 0.00
0.01 0.01 0.00 0.01 0.01 0.01 0.00 0.00 0.00 0.00 0.00 0.00 0.00 0.01 0.01 0.01 0.01 0.01 0.00 0.00 0.00 0.00 0.00 0.00 0.00 0.00 0.00 0.00 0.00 0.00 0.02 0.04 0.05 0.06 0.07 0.09 0.10 0.08 0.06 0.03 0.02 0.01 0.01
0.00 0.00 0.00 0.00 0.00 0.00 0.00 0.00 0.00 0.00 0.00 0.00 0.01 0.01 0.01 0.01 0.01 0.02 0.01 0.00 0.00 0.00 0.00 0.00 0.00 0.00 0.00 0.00 0.01 0.01 0.02 0.03 0.05 0.06 0.06 0.06 0.06 0.06 0.04 0.03 0.03 0.02 0.01
0.00 0.00 0.00 0.00 0.00 0.00 0.00 0.00 0.00 0.00 0.00 0.00 0.01 0.01 0.02 0.02 0.02 0.02 0.02 0.01 0.01 0.00 0.00 0.00 0.00 0.00 0.00 0.00 0.01 0.01 0.01 0.02 0.03 0.03 0.04 0.04 0.04 0.04 0.03 0.04 0.04 0.03 0.02
0.00 0.00 0.00 0.00 0.00 0.00 0.00 0.00 0.00 0.00 0.00 0.00 0.00 0.00 0.01 0.01 0.01 0.02 0.02 0.02 0.01 0.00 0.00 0.00 0.00 0.00 0.00 0.00 0.00 0.00 0.01 0.01 0.01 0.02 0.02 0.02 0.02 0.02 0.02 0.01 0.02 0.02 0.01
0.00 0.00 0.00 0.00 0.00 0.00 0.00 0.00 0.00 0.00 0.00 0.00 0.00 0.00 0.00 0.00 0.01 0.01 0.02 0.03 0.02 0.01 0.00 0.00 0.00 0.00 0.00 0.00 0.00 0.00 0.00 0.01 0.01 0.01 0.01 0.01 0.01 0.01 0.01 0.01 0.01 0.00 0.00
0.00 0.00 0.00 0.00 0.00 0.00 0.00 0.00 0.00 0.00 0.01 0.00 0.00 0.00 0.00 0.00 0.01 0.01 0.02 0.04 0.05 0.04 0.02 0.01 0.00 0.00 0.00 0.00 0.00 0.00 0.01 0.03 0.03 0.02 0.01 0.01 0.00 0.00 0.00 0.00 0.00 0.00 0.00
0.00 0.00 0.00 0.00 0.00 0.00 0.00 0.01 0.01 0.01 0.01 0.00 0.00 0.00 0.00 0.01 0.01 0.01 0.01 0.02 0.04 0.05 0.04 0.02 0.00 0.00 0.00 0.00 0.01 0.01 0.03 0.05 0.05 0.04 0.03 0.01 0.01 0.00 0.00 0.00 0.00 0.00 0.00
0.00 0.00 0.00 0.00 0.00 0.00 0.01 0.01 0.00 0.00 0.00 0.00 0.00 0.00 0.00 0.00 0.01 0.01 0.01 0.02 0.02 0.04 0.05 0.03 0.01 0.00 0.00 0.00 0.01 0.01 0.04 0.06 0.07 0.08 0.04 0.02 0.01 0.01 0.00 0.00 0.00 0.00 0.00
0.00 0.00 0.00 0.00 0.01 0.01 0.00 0.00 0.00 0.00 0.00 0.00 0.00 0.00 0.00 0.00 0.00 0.01 0.02 0.02 0.03 0.04 0.05 0.04 0.01 0.00 0.00 0.01 0.01 0.03 0.06 0.07 0.06 0.07 0.04 0.03 0.02 0.01 0.00 0.00 0.00 0.00 0.00
0.00 0.00 0.00 0.00 0.00 0.00 0.00 0.00 0.00 0.00 0.00 0.00 0.00 0.00 0.00 0.00 0.01 0.02 0.03 0.03 0.03 0.03 0.03 0.03 0.01 0.01 0.01 0.02 0.05 0.08 0.07 0.06 0.04 0.04 0.04 0.03 0.02 0.02 0.02 0.04 0.03 0.01 0.01
0.00 0.00 0.00 0.00 0.00 0.00 0.00 0.00 0.00 0.00 0.00 0.00 0.00 0.00 0.00 0.01 0.03 0.04 0.04 0.03 0.02 0.02 0.02 0.02 0.02 0.01 0.02 0.04 0.07 0.09 0.06 0.04 0.03 0.02 0.02 0.02 0.03 0.06 0.10 0.13 0.11 0.06 0.02
0.00 0.00 0.00 0.00 0.00 0.00 0.00 0.00 0.00 0.00 0.00 0.00 0.00 0.00 0.01 0.04 0.06 0.03 0.02 0.01 0.02 0.03 0.03 0.04 0.03 0.02 0.03 0.06 0.07 0.06 0.04 0.03 0.02 0.02 0.02 0.03 0.08 0.18 0.25 0.29 0.27 0.19 0.09
0.00 0.00 0.00 0.00 0.00 0.00 0.00 0.00 0.00 0.00 0.00 0.00 0.00 0.00 0.01 0.02 0.02 0.01 0.01 0.01 0.02 0.05 0.07 0.06 0.05 0.03 0.03 0.05 0.06 0.05 0.04 0.04 0.04 0.02 0.02 0.06 0.18 0.32 0.41 0.52 0.50 0.33 0.16
0.00 0.00 0.00 0.00 0.00 0.00 0.00 0.00 0.00 0.00 0.00 0.00 0.00 0.00 0.01 0.01 0.00 0.00 0.00 0.01 0.03 0.07 0.09 0.08 0.05 0.02 0.03 0.04 0.04 0.05 0.03 0.03 0.03 0.02 0.02 0.09 0.22 0.38 0.53 0.68 0.66 0.41 0.25
0.00 0.00 0.00 0.00 0.00 0.00 0.00 0.00 0.00 0.00 0.00 0.00 0.00 0.00 0.01 0.00 0.00 0.00 0.01 0.01 0.04 0.06 0.07 0.05 0.03 0.02 0.03 0.04 0.04 0.03 0.02 0.02 0.02 0.01 0.03 0.10 0.25 0.44 0.54 0.61 0.65 0.50 0.39
0.00 0.00 0.00 0.00 0.00 0.00 0.00 0.00 0.00 0.00 0.00 0.00 0.00 0.00 0.00 0.00 0.01 0.01 0.02 0.04 0.06 0.09 0.08 0.05 0.05 0.06 0.06 0.06 0.04 0.04 0.03 0.03 0.02 0.01 0.03 0.10 0.23 0.38 0.46 0.51 0.57 0.54 0.48
0.00 0.00 0.00 0.00 0.00 0.00 0.00 0.00 0.00 0.00 0.00 0.00 0.00 0.00 0.00 0.01 0.01 0.02 0.04 0.07 0.11 0.14 0.11 0.07 0.07 0.09 0.08 0.07 0.08 0.07 0.05 0.04 0.02 0.01 0.03 0.07 0.15 0.24 0.36 0.45 0.45 0.42 0.41

GEFSMA_prec_meanprec_030.txt.gz
QPF
0.00 0.00 0.00 0.00 0.00 0.00 0.00 0.00 0.00 0.00 0.00 0.00 0.00 0.00 0.00 0.00 0.00 0.00 0.00 0.00 0.00 0.00 0.00 0.00 0.00 0.01 0.01 0.01 0.01 0.00 0.00 0.00 0.00 0.00 0.01 0.00 0.00 0.00 0.00 0.00 0.00 0.00 0.00
0.00 0.00 0.00 0.00 0.00 0.00 0.00 0.00 0.00 0.00 0.00 0.00 0.00 0.00 0.00 0.00 0.00 0.00 0.00 0.00 0.00 0.00 0.00 0.00 0.00 0.01 0.01 0.01 0.01 0.01 0.01 0.01 0.01 0.01 0.01 0.01 0.00 0.00 0.00 0.00 0.00 0.00 0.00
0.00 0.00 0.00 0.00 0.00 0.00 0.00 0.00 0.00 0.00 0.00 0.00 0.00 0.00 0.00 0.00 0.01 0.01 0.01 0.01 0.02 0.02 0.01 0.01 0.01 0.01 0.01 0.01 0.01 0.01 0.01 0.02 0.02 0.02 0.02 0.02 0.01 0.01 0.00 0.00 0.00 0.00 0.00
0.00 0.00 0.00 0.00 0.00 0.00 0.00 0.01 0.01 0.01 0.01 0.01 0.01 0.02 0.02 0.03 0.03 0.03 0.03 0.03 0.03 0.02 0.02 0.01 0.01 0.01 0.01 0.00 0.01 0.02 0.02 0.03 0.04 0.04 0.04 0.03 0.02 0.02 0.01 0.01 0.00 0.00 0.00
0.00 0.00 0.00 0.00 0.00 0.00 0.01 0.01 0.02 0.02 0.02 0.02 0.02 0.03 0.02 0.02 0.03 0.03 0.03 0.03 0.02 0.02 0.01 0.01 0.00 0.00 0.00 0.00 0.01 0.01 0.02 0.03 0.04 0.04 0.04 0.03 0.04 0.03 0.03 0.02 0.01 0.01 0.00
0.00 0.01 0.01 0.01 0.01 0.01 0.01 0.01 0.01 0.01 0.01 0.00 0.00 0.01 0.01 0.01 0.01 0.01 0.01 0.01 0.01 0.01 0.01 0.00 0.00 0.00 0.00 0.00 0.00 0.00 0.01 0.02 0.04 0.05 0.04 0.05 0.07 0.06 0.05 0.04 0.02 0.02 0.01
0.01 0.01 0.01 0.01 0.01 0.01 0.01 0.01 0.01 0.00 0.00 0.00 0.00 0.00 0.00 0.00 0.00 0.00 0.00 0.00 0.00 0.00 0.00 0.00 0.00 0.00 0.00 0.00 0.00 0.00 0.00 0.01 0.02 0.04 0.06 0.08 0.09 0.10 0.10 0.08 0.06 0.04 0.03
0.01 0.01 0.01 0.01 0.00 0.00 0.00 0.00 0.00 0.00 0.00 0.00 0.00 0.00 0.00 0.00 0.00 0.00 0.00 0.00 0.00 0.00 0.00 0.00 0.00 0.00 0.00 0.00 0.00 0.00 0.00 0.00 0.01 0.02 0.04 0.07 0.09 0.11 0.13 0.12 0.11 0.09 0.06
0.00 0.00 0.00 0.00 0.00 0.00 0.00 0.00 0.00 0.00 0.00 0.00 0.00 0.00 0.00 0.00 0.00 0.00 0.00 0.00 0.00 0.00 0.00 0.00 0.00 0.00 0.00 0.00 0.00 0.00 0.00 0.00 0.00 0.01 0.02 0.04 0.06 0.08 0.10 0.11 0.11 0.10 0.08
0.00 0.00 0.00 0.00 0.00 0.00 0.00 0.00 0.00 0.00 0.00 0.00 0.00 0.00 0.01 0.01 0.01 0.01 0.00 0.00 0.00 0.00 0.00 0.00 0.00 0.00 0.00 0.00 0.00 0.00 0.00 0.00 0.00 0.00 0.01 0.01 0.03 0.04 0.07 0.09 0.09 0.09 0.08
0.00 0.00 0.00 0.00 0.00 0.00 0.00 0.00 0.00 0.00 0.00 0.00 0.00 0.00 0.00 0.00 0.00 0.01 0.01 0.00 0.00 0.00 0.00 0.00 0.00 0.00 0.00 0.00 0.00 0.00 0.00 0.01 0.01 0.01 0.01 0.01 0.01 0.02 0.03 0.06 0.08 0.10 0.11
0.00 0.00 0.00 0.00 0.00 0.00 0.00 0.00 0.00 0.00 0.00 0.00 0.00 0.00 0.00 0.00 0.00 0.00 0.01 0.00 0.00 0.00 0.00 0.00 0.00 0.00 0.00 0.00 0.00 0.01 0.02 0.02 0.02 0.01 0.01 0.00 0.00 0.01 0.01 0.02 0.05 0.08 0.11
0.00 0.00 0.00 0.00 0.00 0.00 0.00 0.00 0.00 0.00 0.00 0.00 0.00 0.00 0.00 0.00 0.00 0.00 0.01 0.01 0.00 0.00 0.00 0.00 0.00 0.00 0.00 0.00 0.00 0.01 0.01 0.01 0.01 0.01 0.01 0.00 0.00 0.00 0.01 0.01 0.02 0.04 0.07
0.00 0.00 0.00 0.00 0.00 0.00 0.00 0.00 0.00 0.00 0.00 0.00 0.00 0.00 0.00 0.00 0.00 0.00 0.00 0.01 0.01 0.00 0.00 0.00 0.00 0.00 0.00 0.00 0.00 0.00 0.00 0.00 0.01 0.01 0.01 0.01 0.01 0.01 0.01 0.01 0.01 0.02 0.03
0.00 0.00 0.00 0.00 0.00 0.00 0.00 0.00 0.00 0.00 0.00 0.00 0.00 0.00 0.00 0.00 0.00 0.00 0.00 0.01 0.02 0.02 0.01 0.00 0.00 0.00 0.00 0.00 0.00 0.00 0.00 0.00 0.01 0.01 0.01 0.01 0.01 0.01 0.01 0.01 0.01 0.01 0.01
0.00 0.00 0.00 0.00 0.00 0.00 0.00 0.00 0.00 0.00 0.00 0.00 0.00 0.00 0.00 0.00 0.00 0.00 0.00 0.00 0.01 0.03 0.02 0.01 0.00 0.00 0.00 0.00 0.00 0.00 0.00 0.01 0.01 0.02 0.02 0.02 0.01 0.01 0.01 0.01 0.01 0.01 0.01
0.00 0.00 0.00 0.00 0.00 0.00 0.00 0.00 0.00 0.00 0.00 0.00 0.00 0.00 0.00 0.00 0.00 0.00 0.00 0.00 0.01 0.02 0.04 0.02 0.01 0.00 0.00 0.00 0.00 0.00 0.00 0.00 0.01 0.03 0.04 0.04 0.03 0.01 0.01 0.01 0.01 0.01 0.01
0.00 0.00 0.00 0.00 0.00 0.00 0.00 0.00 0.00 0.00 0.00 0.00 0.00 0.00 0.00 0.00 0.00 0.00 0.00 0.00 0.01 0.02 0.04 0.03 0.01 0.01 0.00 0.00 0.00 0.00 0.00 0.01 0.01 0.04 0.03 0.03 0.02 0.02 0.01 0.01 0.00 0.00 0.00
0.00 0.00 0.00 0.00 0.00 0.00 0.00 0.00 0.00 0.00 0.00 0.00 0.00 0.00 0.00 0.00 0.00 0.00 0.01 0.01 0.02 0.02 0.03 0.03 0.01 0.00 0.00 0.00 0.01 0.01 0.01 0.01 0.02 0.02 0.02 0.02 0.01 0.01 0.00 0.00 0.00 0.00 0.00
0.00 0.00 0.00 0.00 0.00 0.00 0.00 0.00 0.00 0.00 0.00 0.00 0.00 0.00 0.00 0.00 0.00 0.01 0.01 0.02 0.02 0.02 0.02 0.01 0.01 0.01 0.00 0.00 0.01 0.02 0.03 0.02 0.02 0.02 0.02 0.01 0.01 0.00 0.00 0.01 0.02 0.01 0.01
0.00 0.00 0.00 0.00 0.00 0.00 0.00 0.00 0.00 0.00 0.00 0.00 0.00 0.00 0.00 0.00 0.01 0.02 0.02 0.02 0.02 0.02 0.02 0.02 0.02 0.01 0.01 0.02 0.03 0.03 0.03 0.03 0.02 0.01 0.01 0.00 0.00 0.01 0.04 0.05 0.05 0.04 0.03
0.00 0.00 0.00 0.00 0.00 0.00 0.00 0.00 0.00 0.00 0.00 0.00 0.00 0.00 0.00 0.00 0.00 0.00 0.01 0.01 0.02 0.02 0.03 0.05 0.05 0.03 0.02 0.03 0.04 0.04 0.04 0.03 0.02 0.01 0.01 0.01 0.01 0.05 0.10 0.14 0.18 0.14 0.07
0.00 0.00 0.00 0.00 0.00 0.00 0.00 0.00 0.00 0.00 0.00 0.00 0.00 0.00 0.00 0.00 0.00 0.00 0.00 0.00 0.01 0.03 0.07 0.08 0.09 0.05 0.04 0.05 0.05 0.04 0.03 0.02 0.03 0.02 0.01 0.01 0.04 0.15 0.20 0.24 0.28 0.19 0.11
0.00 0.00 0.00 0.00 0.00 0.00 0.00 0.00 0.00 0.00 0.00 0.00 0.00 0.00 0.00 0.00 0.00 0.01 0.01 0.01 0.02 0.05 0.08 0.09 0.09 0.07 0.06 0.05 0.04 0.04 0.04 0.03 0.03 0.02 0.01 0.03 0.11 0.21 0.22 0.23 0.29 0.22 0.14
0.00 0.00 0.00 0.00 0.00 0.00 0.00 0.00 0.00 0.00 0.00 0.00 0.00 0.00 0.00 0.00 0.00 0.01 0.02 0.03 0.05 0.10 0.13 0.12 0.11 0.09 0.08 0.06 0.04 0.04 0.04 0.04 0.03 0.01 0.02 0.05 0.11 0.14 0.19 0.23 0.24 0.26 0.21
0.00 0.00 0.00 0.00 0.00 0.00 0.00 0.00 0.00 0.00 0.00 0.00 0.00 0.00 0.00 0.00 0.01 0.02 0.03 0.06 0.10 0.15 0.16 0.15 0.11 0.07 0.04 0.04 0.05 0.06 0.05 0.03 0.02 0.01 0.02 0.05 0.09 0.10 0.17 0.26 0.24 0.20 0.19

GEFSMA_prec_meanprec_036.txt.gz
QPF
0.01 0.01 0.01 0.00 0.00 0.00 0.00 0.00 0.00 0.00 0.00 0.00 0.00 0.00 0.00 0.00 0.00 0.00 0.00 0.00 0.00 0.00 0.00 0.00 0.00 0.00 0.00 0.00 0.00 0.00 0.00 0.00 0.00 0.01 0.00 0.00 0.00 0.00 0.00 0.00 0.00 0.00 0.00
0.01 0.01 0.01 0.01 0.00 0.00 0.00 0.00 0.00 0.00 0.00 0.00 0.00 0.00 0.00 0.00 0.00 0.00 0.00 0.00 0.00 0.00 0.00 0.00 0.00 0.00 0.00 0.00 0.01 0.01 0.01 0.01 0.01 0.02 0.02 0.01 0.01 0.01 0.00 0.00 0.00 0.00 0.00
0.01 0.01 0.01 0.01 0.00 0.00 0.00 0.00 0.00 0.00 0.00 0.00 0.00 0.00 0.00 0.00 0.00 0.00 0.00 0.00 0.00 0.01 0.01 0.01 0.01 0.00 0.00 0.00 0.01 0.01 0.01 0.02 0.02 0.02 0.02 0.02 0.02 0.02 0.01 0.01 0.01 0.00 0.00
0.00 0.00 0.00 0.00 0.00 0.00 0.00 0.00 0.00 0.00 0.00 0.00 0.01 0.01 0.01 0.01 0.01 0.01 0.01 0.01 0.01 0.02 0.02 0.02 0.01 0.01 0.01 0.01 0.00 0.01 0.01 0.02 0.02 0.02 0.02 0.03 0.03 0.02 0.02 0.02 0.01 0.01 0.00
0.00 0.00 0.00 0.00 0.00 0.00 0.00 0.00 0.00 0.00 0.00 0.00 0.01 0.01 0.01 0.01 0.01 0.01 0.01 0.01 0.01 0.01 0.01 0.01 0.01 0.01 0.01 0.01 0.01 0.01 0.01 0.01 0.02 0.02 0.03 0.02 0.03 0.03 0.03 0.02 0.02 0.01 0.01
0.00 0.00 0.00 0.00 0.00 0.00 0.00 0.00 0.00 0.00 0.00 0.00 0.00 0.00 0.00 0.01 0.01 0.01 0.01 0.01 0.00 0.00 0.00 0.00 0.00 0.00 0.00 0.00 0.00 0.00 0.00 0.01 0.01 0.01 0.02 0.02 0.03 0.04 0.03 0.03 0.03 0.03 0.02
0.00 0.00 0.00 0.00 0.00 0.00 0.00 0.00 0.00 0.00 0.00 0.00 0.00 0.00 0.00 0.00 0.00 0.00 0.00 0.00 0.00 0.00 0.00 0.00 0.00 0.00 0.00 0.00 0.00 0.00 0.00 0.00 0.00 0.01 0.01 0.02 0.04 0.05 0.05 0.04 0.05 0.04 0.04
0.00 0.00 0.00 0.00 0.00 0.00 0.00 0.00 0.00 0.00 0.00 0.00 0.00 0.00 0.00 0.00 0.00 0.00 0.00 0.00 0.00 0.00 0.00 0.00 0.00 0.00 0.00 0.00 0.00 0.00 0.00 0.00 0.00 0.00 0.01 0.02 0.03 0.05 0.06 0.06 0.07 0.07 0.06
0.00 0.00 0.00 0.00 0.00 0.00 0.00 0.00 0.00 0.00 0.00 0.00 0.00 0.00 0.00 0.00 0.00 0.00 0.00 0.00 0.00 0.00 0.00 0.00 0.00 0.00 0.00 0.00 0.00 0.00 0.00 0.00 0.00 0.01 0.01 0.02 0.02 0.04 0.05 0.06 0.07 0.08 0.08
0.00 0.00 0.00 0.00 0.00 0.00 0.00 0.00 0.00 0.00 0.00 0.00 0.00 0.00 0.00 0.00 0.01 0.00 0.00 0.00 0.00 0.00 0.00 0.00 0.00 0.00 0.00 0.00 0.00 0.00 0.00 0.00 0.00 0.01 0.01 0.02 0.03 0.03 0.04 0.05 0.06 0.07 0.08
0.00 0.00 0.00 0.00 0.00 0.00 0.00 0.00 0.00 0.00 0.00 0.00 0.00 0.00 0.00 0.00 0.01 0.01 0.01 0.00 0.00 0.00 0.00 0.00 0.00 0.00 0.00 0.00 0.00 0.00 0.00 0.00 0.01 0.01 0.02 0.02 0.03 0.03 0.04 0.04 0.05 0.07 0.09
0.00 0.00 0.00 0.00 0.00 0.00 0.00 0.00 0.00 0.00 0.00 0.00 0.00 0.00 0.00 0.00 0.00 0.01 0.01 0.00 0.00 0.00 0.00 0.00 0.00 0.00 0.00 0.00 0.00 0.00 0.01 0.01 0.02 0.02 0.02 0.02 0.03 0.03 0.04 0.04 0.05 0.06 0.09
0.00 0.00 0.00 0.00 0.00 0.00 0.00 0.00 0.00 0.00 0.00 0.00 0.00 0.00 0.00 0.00 0.00 0.00 0.00 0.00 0.00 0.00 0.00 0.00 0.00 0.00 0.00 0.00 0.01 0.00 0.00 0.01 0.01 0.01 0.01 0.01 0.01 0.02 0.02 0.03 0.03 0.04 0.06
0.00 0.00 0.00 0.00 0.00 0.00 0.00 0.00 0.00 0.00 0.00 0.00 0.00 0.00 0.00 0.00 0.00 0.00 0.00 0.00 0.00 0.00 0.00 0.00 0.00 0.00 0.00 0.01 0.01 0.00 0.01 0.01 0.01 0.01 0.01 0.01 0.01 0.01 0.01 0.02 0.02 0.02 0.03
0.00 0.00 0.00 0.00 0.00 0.00 0.00 0.00 0.00 0.00 0.00 0.00 0.00 0.00 0.00 0.00 0.00 0.00 0.00 0.00 0.01 0.01 0.00 0.00 0.00 0.00 0.01 0.02 0.02 0.02 0.04 0.03 0.01 0.01 0.01 0.01 0.01 0.01 0.01 0.01 0.01 0.01 0.01
0.00 0.00 0.00 0.00 0.00 0.00 0.00 0.00 0.00 0.00 0.00 0.00 0.00 0.00 0.00 0.00 0.00 0.00 0.00 0.00 0.01 0.02 0.02 0.01 0.01 0.01 0.02 0.02 0.01 0.03 0.03 0.02 0.01 0.01 0.01 0.01 0.01 0.01 0.01 0.01 0.01 0.01 0.01
0.00 0.00 0.00 0.00 0.00 0.00 0.00 0.00 0.00 0.00 0.00 0.00 0.00 0.00 0.00 0.00 0.00 0.00 0.00 0.01 0.01 0.02 0.03 0.02 0.02 0.02 0.03 0.03 0.03 0.03 0.03 0.03 0.04 0.02 0.01 0.01 0.01 0.01 0.02 0.01 0.02 0.01 0.01
0.00 0.00 0.00 0.00 0.00 0.00 0.00 0.00 0.00 0.00 0.01 0.01 0.01 0.01 0.00 0.00 0.00 0.00 0.00 0.01 0.02 0.03 0.04 0.04 0.03 0.02 0.03 0.03 0.03 0.03 0.02 0.02 0.04 0.03 0.01 0.01 0.01 0.02 0.02 0.02 0.01 0.01 0.01
0.00 0.00 0.00 0.00 0.00 0.00 0.00 0.01 0.01 0.01 0.01 0.01 0.01 0.01 0.00 0.00 0.00 0.00 0.01 0.01 0.02 0.03 0.05 0.05 0.04 0.03 0.02 0.02 0.03 0.03 0.03 0.04 0.03 0.02 0.01 0.01 0.01 0.01 0.01 0.01 0.01 0.00 0.00
0.00 0.00 0.00 0.00 0.01 0.01 0.01 0.01 0.01 0.01 0.01 0.01 0.01 0.00 0.00 0.00 0.01 0.01 0.01 0.02 0.03 0.04 0.05 0.05 0.04 0.03 0.02 0.03 0.04 0.05 0.05 0.05 0.04 0.03 0.02 0.01 0.01 0.01 0.01 0.00 0.00 0.00 0.00
0.00 0.00 0.01 0.01 0.01 0.01 0.01 0.00 0.00 0.00 0.00 0.00 0.00 0.00 0.00 0.00 0.01 0.01 0.02 0.03 0.04 0.05 0.05 0.05 0.04 0.03 0.02 0.03 0.05 0.06 0.06 0.05 0.04 0.03 0.02 0.02 0.01 0.01 0.01 0.01 0.01 0.01 0.01
0.01 0.01 0.01 0.01 0.01 0.00 0.00 0.00 0.00 0.00 0.00 0.00 0.00 0.00 0.00 0.00 0.01 0.01 0.01 0.02 0.03 0.04 0.06 0.06 0.06 0.04 0.03 0.04 0.06 0.07 0.07 0.06 0.04 0.02 0.01 0.01 0.01 0.01 0.02 0.02 0.03 0.04 0.03
0.01 0.01 0.00 0.00 0.00 0.00 0.00 0.00 0.00 0.00 0.00 0.00 0.00 0.00 0.00 0.00 0.00 0.01 0.01 0.01 0.01 0.03 0.06 0.09 0.10 0.08 0.06 0.06 0.09 0.09 0.07 0.06 0.05 0.03 0.02 0.01 0.01 0.03 0.03 0.05 0.07 0.05 0.03
0.00 0.00 0.00 0.00 0.00 0.00 0.00 0.00 0.00 0.00 0.00 0.00 0.01 0.01 0.01 0.01 0.01 0.01 0.02 0.02 0.02 0.04 0.08 0.09 0.11 0.10 0.08 0.08 0.08 0.08 0.08 0.06 0.04 0.02 0.01 0.01 0.03 0.05 0.05 0.07 0.09 0.08 0.06
0.00 0.00 0.00 0.00 0.00 0.00 0.00 0.00 0.00 0.00 0.00 0.00 0.00 0.01 0.01 0.01 0.01 0.02 0.02 0.03 0.04 0.06 0.10 0.13 0.13 0.11 0.09 0.07 0.06 0.05 0.05 0.04 0.03 0.02 0.02 0.03 0.05 0.07 0.08 0.08 0.09 0.12 0.10
0.00 0.00 0.00 0.00 0.00 0.00 0.00 0.00 0.00 0.00 0.00 0.00 0.00 0.00 0.01 0.01 0.01 0.03 0.04 0.05 0.06 0.08 0.11 0.13 0.13 0.10 0.07 0.04 0.03 0.03 0.03 0.03 0.03 0.02 0.02 0.03 0.05 0.06 0.10 0.12 0.13 0.15 0.14

GEFSMA_prec_meanprec_042.txt.gz
QPF
0.00 0.00 0.00 0.00 0.00 0.00 0.00 0.00 0.00 0.00 0.00 0.00 0.00 0.00 0.00 0.00 0.00 0.00 0.00 0.00 0.00 0.00 0.00 0.00 0.00 0.00 0.00 0.00 0.00 0.00 0.00 0.00 0.00 0.00 0.00 0.00 0.00 0.00 0.00 0.01 0.01 0.01 0.01
0.01 0.01 0.02 0.01 0.00 0.00 0.00 0.00 0.00 0.00 0.00 0.00 0.00 0.00 0.00 0.00 0.00 0.00 0.00 0.01 0.01 0.00 0.00 0.00 0.00 0.00 0.00 0.00 0.00 0.00 0.00 0.00 0.00 0.00 0.01 0.01 0.01 0.01 0.01 0.01 0.01 0.01 0.01
0.02 0.02 0.03 0.02 0.01 0.00 0.00 0.00 0.00 0.00 0.00 0.00 0.00 0.00 0.00 0.00 0.00 0.00 0.00 0.00 0.01 0.02 0.01 0.00 0.00 0.00 0.00 0.00 0.00 0.00 0.00 0.00 0.00 0.00 0.00 0.01 0.01 0.01 0.01 0.02 0.02 0.02 0.01
0.01 0.02 0.02 0.03 0.01 0.00 0.00 0.01 0.01 0.01 0.01 0.01 0.01 0.01 0.00 0.01 0.01 0.01 0.00 0.00 0.01 0.02 0.02 0.02 0.01 0.01 0.01 0.00 0.00 0.00 0.01 0.01 0.00 0.00 0.00 0.01 0.02 0.02 0.02 0.02 0.02 0.02 0.02
0.00 0.01 0.02 0.02 0.01 0.01 0.01 0.01 0.02 0.02 0.02 0.01 0.00 0.01 0.01 0.01 0.01 0.01 0.01 0.01 0.01 0.01 0.02 0.02 0.02 0.01 0.01 0.01 0.01 0.01 0.00 0.01 0.01 0.01 0.00 0.01 0.01 0.01 0.02 0.02 0.02 0.02 0.02
0.00 0.01 0.01 0.01 0.00 0.01 0.01 0.01 0.01 0.00 0.01 0.00 0.00 0.00 0.00 0.00 0.00 0.00 0.00 0.01 0.00 0.00 0.00 0.00 0.00 0.00 0.01 0.01 0.01 0.01 0.01 0.01 0.01 0.01 0.01 0.01 0.01 0.01 0.02 0.02 0.02 0.02 0.02
0.00 0.00 0.00 0.00 0.00 0.00 0.00 0.00 0.00 0.00 0.00 0.00 0.00 0.00 0.00 0.00 0.00 0.00 0.00 0.00 0.00 0.00 0.00 0.00 0.00 0.00 0.00 0.00 0.00 0.00 0.00 0.00 0.00 0.00 0.01 0.01 0.02 0.02 0.02 0.02 0.02 0.03 0.03
0.00 0.00 0.00 0.00 0.00 0.00 0.00 0.00 0.00 0.00 0.00 0.00 0.00 0.00 0.00 0.00 0.00 0.00 0.00 0.00 0.00 0.00 0.00 0.00 0.00 0.00 0.00 0.00 0.00 0.00 0.00 0.00 0.00 0.00 0.00 0.00 0.01 0.01 0.01 0.02 0.02 0.03 0.04
0.00 0.00 0.00 0.00 0.00 0.00 0.00 0.00 0.00 0.00 0.00 0.00 0.00 0.00 0.00 0.00 0.00 0.00 0.00 0.00 0.00 0.00 0.00 0.00 0.00 0.00 0.00 0.00 0.00 0.00 0.00 0.00 0.00 0.00 0.00 0.00 0.00 0.01 0.01 0.02 0.02 0.03 0.04
0.00 0.00 0.00 0.00 0.00 0.00 0.00 0.00 0.00 0.00 0.00 0.00 0.00 0.00 0.00 0.00 0.00 0.00 0.00 0.00 0.00 0.00 0.00 0.00 0.00 0.00 0.00 0.00 0.00 0.00 0.00 0.00 0.00 0.00 0.00 0.00 0.00 0.01 0.01 0.02 0.02 0.03 0.04
0.00 0.00 0.00 0.00 0.00 0.00 0.00 0.00 0.00 0.00 0.00 0.00 0.00 0.00 0.00 0.00 0.00 0.00 0.00 0.00 0.00 0.00 0.00 0.00 0.00 0.00 0.00 0.00 0.00 0.00 0.00 0.00 0.00 0.00 0.00 0.00 0.01 0.01 0.02 0.02 0.03 0.03 0.04
0.00 0.00 0.00 0.00 0.00 0.00 0.00 0.00 0.00 0.00 0.00 0.00 0.00 0.00 0.00 0.00 0.00 0.00 0.00 0.00 0.00 0.00 0.00 0.00 0.00 0.00 0.00 0.00 0.00 0.00 0.00 0.00 0.00 0.00 0.00 0.00 0.00 0.01 0.01 0.02 0.03 0.04 0.05
0.00 0.00 0.00 0.00 0.00 0.00 0.00 0.00 0.00 0.00 0.01 0.01 0.00 0.00 0.00 0.00 0.00 0.00 0.00 0.00 0.00 0.00 0.00 0.00 0.00 0.00 0.00 0.00 0.00 0.00 0.00 0.00 0.00 0.00 0.00 0.00 0.00 0.00 0.01 0.01 0.02 0.03 0.04
0.00 0.00 0.00 0.00 0.00 0.00 0.00 0.00 0.00 0.01 0.01 0.01 0.01 0.01 0.00 0.00 0.00 0.00 0.00 0.00 0.00 0.00 0.00 0.00 0.00 0.00 0.00 0.00 0.00 0.00 0.00 0.01 0.01 0.01 0.01 0.00 0.00 0.00 0.00 0.01 0.01 0.01 0.01
0.00 0.00 0.00 0.00 0.00 0.00 0.01 0.01 0.01 0.01 0.01 0.01 0.01 0.01 0.01 0.01 0.00 0.00 0.00 0.00 0.01 0.01 0.00 0.00 0.00 0.00 0.00 0.00 0.01 0.00 0.02 0.03 0.02 0.02 0.01 0.01 0.00 0.00 0.00 0.00 0.00 0.00 0.01
0.00 0.00 0.00 0.00 0.00 0.00 0.01 0.01 0.01 0.01 0.01 0.01 0.02 0.02 0.02 0.02 0.01 0.01 0.01 0.01 0.01 0.01 0.01 0.00 0.00 0.00 0.00 0.00 0.00 0.01 0.02 0.02 0.02 0.01 0.01 0.01 0.01 0.00 0.00 0.00 0.00 0.00 0.01
0.00 0.00 0.00 0.00 0.00 0.00 0.01 0.01 0.01 0.01 0.02 0.02 0.02 0.02 0.03 0.03 0.02 0.02 0.01 0.01 0.01 0.01 0.02 0.01 0.01 0.01 0.01 0.02 0.02 0.03 0.03 0.03 0.03 0.04 0.03 0.02 0.02 0.01 0.01 0.01 0.01 0.01 0.01
0.00 0.00 0.00 0.00 0.00 0.00 0.01 0.01 0.02 0.02 0.02 0.03 0.03 0.03 0.02 0.02 0.02 0.02 0.01 0.01 0.01 0.02 0.03 0.03 0.02 0.02 0.02 0.02 0.03 0.03 0.02 0.02 0.03 0.03 0.02 0.02 0.02 0.02 0.01 0.01 0.01 0.01 0.01
0.00 0.00 0.01 0.01 0.01 0.01 0.02 0.02 0.03 0.03 0.03 0.02 0.02 0.02 0.02 0.02 0.02 0.02 0.02 0.02 0.02 0.02 0.03 0.04 0.03 0.03 0.02 0.02 0.03 0.03 0.04 0.06 0.04 0.03 0.02 0.02 0.02 0.02 0.01 0.01 0.01 0.00 0.00
0.01 0.01 0.01 0.02 0.02 0.02 0.02 0.02 0.02 0.02 0.01 0.01 0.01 0.01 0.01 0.02 0.02 0.02 0.02 0.02 0.02 0.03 0.04 0.04 0.03 0.03 0.03 0.03 0.05 0.06 0.05 0.07 0.07 0.05 0.05 0.05 0.04 0.02 0.01 0.01 0.01 0.00 0.00
0.02 0.02 0.03 0.03 0.03 0.03 0.01 0.00 0.00 0.00 0.00 0.01 0.01 0.01 0.01 0.01 0.01 0.02 0.02 0.02 0.03 0.04 0.04 0.05 0.04 0.04 0.03 0.04 0.05 0.06 0.06 0.05 0.05 0.05 0.06 0.06 0.06 0.05 0.05 0.03 0.02 0.01 0.00
0.04 0.04 0.03 0.02 0.02 0.01 0.00 0.00 0.00 0.00 0.00 0.00 0.01 0.01 0.01 0.01 0.01 0.01 0.02 0.03 0.04 0.04 0.05 0.05 0.04 0.04 0.03 0.04 0.05 0.06 0.06 0.05 0.05 0.04 0.04 0.04 0.04 0.04 0.04 0.04 0.04 0.02 0.01
0.02 0.01 0.01 0.00 0.00 0.00 0.00 0.00 0.00 0.00 0.00 0.01 0.02 0.02 0.02 0.01 0.02 0.03 0.04 0.03 0.03 0.03 0.04 0.06 0.06 0.05 0.06 0.06 0.07 0.06 0.06 0.07 0.07 0.05 0.04 0.03 0.03 0.03 0.04 0.03 0.02 0.01 0.01
0.01 0.00 0.00 0.00 0.00 0.00 0.00 0.00 0.00 0.00 0.01 0.01 0.02 0.02 0.03 0.03 0.03 0.03 0.02 0.02 0.02 0.02 0.04 0.04 0.05 0.06 0.06 0.06 0.06 0.07 0.06 0.06 0.05 0.04 0.04 0.04 0.03 0.04 0.03 0.02 0.02 0.01 0.01
0.00 0.00 0.00 0.00 0.01 0.01 0.00 0.00 0.00 0.00 0.01 0.01 0.01 0.02 0.02 0.02 0.02 0.02 0.02 0.02 0.02 0.02 0.03 0.04 0.05 0.06 0.06 0.06 0.06 0.06 0.06 0.06 0.06 0.06 0.06 0.05 0.04 0.04 0.02 0.02 0.02 0.02 0.02
0.00 0.00 0.00 0.01 0.01 0.02 0.00 0.00 0.00 0.00 0.01 0.01 0.01 0.01 0.02 0.02 0.02 0.02 0.02 0.03 0.03 0.02 0.03 0.05 0.06 0.07 0.06 0.06 0.06 0.05 0.06 0.07 0.08 0.08 0.06 0.06 0.05 0.04 0.04 0.03 0.03 0.04 0.04

GEFSMA_prec_meanprec_048.txt.gz
QPF
0.00 0.01 0.01 0.01 0.01 0.01 0.01 0.01 0.00 0.00 0.00 0.00 0.00 0.00 0.00 0.00 0.00 0.00 0.00 0.00 0.00 0.00 0.01 0.01 0.01 0.01 0.01 0.01 0.01 0.00 0.00 0.00 0.00 0.00 0.00 0.00 0.00 0.00 0.00 0.01 0.01 0.01 0.00
0.00 0.00 0.00 0.00 0.00 0.00 0.00 0.00 0.00 0.00 0.00 0.00 0.00 0.00 0.00 0.00 0.00 0.00 0.00 0.00 0.00 0.00 0.00 0.01 0.01 0.01 0.01 0.01 0.01 0.01 0.01 0.01 0.01 0.01 0.01 0.01 0.01 0.01 0.01 0.01 0.01 0.01 0.01
0.00 0.00 0.00 0.00 0.00 0.00 0.00 0.00 0.00 0.00 0.00 0.00 0.00 0.00 0.00 0.00 0.00 0.01 0.01 0.01 0.01 0.00 0.01 0.01 0.01 0.01 0.01 0.01 0.02 0.02 0.02 0.02 0.01 0.02 0.01 0.01 0.01 0.01 0.02 0.02 0.02 0.02 0.02
0.00 0.00 0.01 0.00 0.00 0.00 0.00 0.00 0.00 0.00 0.00 0.00 0.00 0.00 0.01 0.01 0.01 0.01 0.01 0.01 0.01 0.01 0.01 0.01 0.01 0.01 0.01 0.01 0.01 0.01 0.02 0.02 0.02 0.02 0.02 0.02 0.02 0.02 0.02 0.02 0.02 0.03 0.02
0.01 0.00 0.01 0.01 0.01 0.01 0.00 0.00 0.00 0.00 0.00 0.00 0.00 0.00 0.00 0.00 0.00 0.00 0.00 0.01 0.01 0.00 0.01 0.01 0.01 0.01 0.01 0.01 0.01 0.01 0.01 0.02 0.02 0.03 0.02 0.02 0.02 0.02 0.02 0.02 0.02 0.02 0.03
0.01 0.01 0.01 0.02 0.01 0.01 0.00 0.00 0.00 0.00 0.00 0.00 0.00 0.00 0.00 0.00 0.00 0.00 0.00 0.00 0.00 0.00 0.00 0.00 0.00 0.00 0.01 0.01 0.01 0.01 0.01 0.02 0.02 0.02 0.03 0.03 0.04 0.03 0.03 0.02 0.02 0.02 0.02
0.04 0.03 0.03 0.02 0.01 0.01 0.01 0.00 0.00 0.00 0.00 0.00 0.00 0.00 0.00 0.00 0.00 0.00 0.00 0.00 0.00 0.00 0.00 0.00 0.00 0.00 0.00 0.00 0.00 0.00 0.00 0.01 0.01 0.01 0.01 0.02 0.03 0.03 0.03 0.03 0.03 0.03 0.02
0.08 0.05 0.04 0.03 0.02 0.01 0.01 0.00 0.00 0.00 0.00 0.00 0.00 0.00 0.00 0.00 0.00 0.00 0.00 0.00 0.00 0.00 0.00 0.00 0.00 0.00 0.00 0.00 0.00 0.00 0.00 0.00 0.00 0.00 0.00 0.01 0.01 0.01 0.02 0.02 0.03 0.03 0.03
0.09 0.07 0.04 0.03 0.02 0.01 0.01 0.01 0.00 0.00 0.00 0.00 0.00 0.00 0.00 0.00 0.00 0.00 0.00 0.00 0.00 0.00 0.00 0.00 0.00 0.00 0.00 0.00 0.00 0.00 0.00 0.00 0.00 0.00 0.00 0.01 0.01 0.00 0.00 0.01 0.01 0.01 0.02
0.09 0.06 0.04 0.03 0.02 0.01 0.01 0.00 0.00 0.00 0.00 0.00 0.00 0.00 0.00 0.00 0.00 0.00 0.00 0.00 0.00 0.00 0.00 0.00 0.00 0.00 0.00 0.00 0.00 0.00 0.00 0.00 0.00 0.00 0.00 0.00 0.00 0.00 0.00 0.01 0.01 0.01 0.01
0.08 0.05 0.04 0.03 0.02 0.01 0.01 0.00 0.00 0.00 0.00 0.00 0.00 0.00 0.00 0.00 0.00 0.00 0.00 0.00 0.00 0.00 0.00 0.00 0.00 0.00 0.00 0.00 0.00 0.00 0.00 0.00 0.00 0.00 0.00 0.00 0.00 0.00 0.00 0.01 0.01 0.01 0.02
0.05 0.04 0.03 0.02 0.01 0.01 0.00 0.00 0.00 0.00 0.00 0.00 0.00 0.00 0.00 0.00 0.00 0.00 0.00 0.00 0.00 0.00 0.00 0.00 0.00 0.00 0.00 0.00 0.00 0.00 0.00 0.00 0.00 0.00 0.00 0.00 0.00 0.00 0.01 0.01 0.01 0.02 0.02
0.04 0.03 0.03 0.02 0.01 0.01 0.00 0.00 0.00 0.00 0.00 0.00 0.00 0.00 0.00 0.00 0.00 0.00 0.00 0.00 0.00 0.00 0.00 0.00 0.00 0.00 0.00 0.00 0.00 0.00 0.00 0.00 0.00 0.01 0.01 0.01 0.01 0.01 0.01 0.01 0.01 0.02 0.02
0.02 0.02 0.01 0.01 0.01 0.00 0.00 0.00 0.00 0.00 0.00 0.00 0.00 0.00 0.00 0.00 0.00 0.00 0.00 0.00 0.00 0.00 0.00 0.00 0.00 0.00 0.00 0.00 0.00 0.00 0.00 0.00 0.01 0.01 0.01 0.01 0.01 0.01 0.01 0.01 0.01 0.01 0.01
0.01 0.01 0.01 0.00 0.00 0.00 0.00 0.00 0.00 0.00 0.00 0.00 0.00 0.00 0.00 0.00 0.00 0.00 0.00 0.00 0.00 0.00 0.00 0.00 0.00 0.00 0.00 0.00 0.00 0.00 0.00 0.00 0.01 0.01 0.01 0.01 0.01 0.01 0.01 0.01 0.01 0.01 0.01
0.01 0.01 0.00 0.00 0.00 0.00 0.00 0.00 0.00 0.00 0.00 0.00 0.00 0.00 0.00 0.00 0.00 0.00 0.00 0.00 0.00 0.01 0.00 0.00 0.00 0.00 0.00 0.00 0.00 0.00 0.00 0.00 0.00 0.00 0.01 0.01 0.01 0.01 0.01 0.02 0.02 0.02 0.01
0.01 0.01 0.00 0.00 0.00 0.00 0.00 0.00 0.00 0.00 0.00 0.00 0.00 0.00 0.00 0.00 0.00 0.00 0.00 0.00 0.00 0.00 0.01 0.00 0.00 0.00 0.00 0.00 0.00 0.00 0.00 0.00 0.00 0.00 0.01 0.02 0.02 0.02 0.02 0.02 0.03 0.03 0.02
0.01 0.01 0.01 0.01 0.01 0.01 0.00 0.00 0.00 0.00 0.00 0.00 0.00 0.00 0.00 0.00 0.00 0.00 0.00 0.00 0.00 0.00 0.01 0.00 0.00 0.00 0.00 0.00 0.00 0.00 0.00 0.00 0.00 0.01 0.01 0.02 0.02 0.02 0.02 0.02 0.02 0.02 0.02
0.02 0.02 0.02 0.01 0.01 0.01 0.00 0.00 0.00 0.00 0.00 0.00 0.00 0.00 0.00 0.00 0.00 0.00 0.00 0.00 0.00 0.00 0.01 0.01 0.00 0.00 0.00 0.00 0.00 0.00 0.00 0.01 0.01 0.01 0.01 0.02 0.03 0.03 0.03 0.02 0.02 0.01 0.01
0.03 0.03 0.02 0.01 0.01 0.01 0.01 0.00 0.00 0.00 0.00 0.00 0.00 0.00 0.00 0.00 0.00 0.00 0.00 0.00 0.00 0.00 0.01 0.01 0.01 0.00 0.00 0.00 0.01 0.01 0.01 0.01 0.01 0.01 0.01 0.02 0.02 0.02 0.02 0.02 0.02 0.01 0.01
0.04 0.03 0.03 0.02 0.01 0.01 0.00 0.00 0.00 0.00 0.00 0.00 0.00 0.00 0.00 0.00 0.01 0.01 0.01 0.01 0.01 0.01 0.01 0.01 0.01 0.01 0.01 0.01 0.01 0.01 0.02 0.01 0.00 0.01 0.01 0.01 0.01 0.01 0.01 0.02 0.02 0.03 0.02
0.04 0.02 0.01 0.01 0.00 0.00 0.00 0.00 0.00 0.00 0.00 0.00 0.00 0.00 0.00 0.00 0.01 0.01 0.01 0.02 0.03 0.03 0.03 0.03 0.03 0.03 0.02 0.02 0.02 0.02 0.03 0.03 0.02 0.01 0.01 0.01 0.01 0.01 0.01 0.01 0.02 0.02 0.02
0.02 0.01 0.01 0.00 0.00 0.00 0.00 0.00 0.00 0.00 0.00 0.00 0.00 0.00 0.00 0.00 0.01 0.01 0.01 0.01 0.01 0.02 0.03 0.04 0.04 0.03 0.03 0.03 0.04 0.04 0.04 0.04 0.03 0.02 0.02 0.02 0.01 0.01 0.01 0.01 0.02 0.02 0.02
0.01 0.00 0.00 0.00 0.00 0.00 0.00 0.00 0.00 0.00 0.00 0.00 0.00 0.00 0.00 0.00 0.00 0.01 0.01 0.01 0.01 0.01 0.02 0.02 0.02 0.02 0.02 0.03 0.04 0.05 0.05 0.04 0.03 0.03 0.04 0.04 0.02 0.02 0.02 0.02 0.03 0.02 0.02
0.01 0.00 0.00 0.00 0.00 0.00 0.00 0.00 0.00 0.00 0.00 0.00 0.00 0.00 0.00 0.00 0.01 0.01 0.01 0.01 0.01 0.01 0.01 0.02 0.02 0.02 0.03 0.05 0.05 0.05 0.05 0.06 0.05 0.04 0.05 0.05 0.03 0.02 0.02 0.02 0.02 0.03 0.02
0.00 0.00 0.00 0.00 0.00 0.00 0.00 0.00 0.00 0.00 0.00 0.00 0.00 0.00 0.01 0.01 0.01 0.01 0.01 0.02 0.01 0.01 0.01 0.01 0.02 0.02 0.03 0.04 0.05 0.05 0.06 0.06 0.06 0.06 0.05 0.04 0.04 0.03 0.03 0.02 0.02 0.02 0.02

GEFSMA_prec_meanprec_054.txt.gz
QPF
0.00 0.00 0.00 0.00 0.00 0.01 0.01 0.00 0.00 0.00 0.00 0.00 0.00 0.00 0.00 0.00 0.00 0.00 0.00 0.01 0.01 0.02 0.02 0.02 0.02 0.02 0.02 0.02 0.02 0.01 0.01 0.01 0.01 0.00 0.00 0.00 0.00 0.01 0.01 0.01 0.02 0.02 0.02
0.00 0.00 0.01 0.01 0.01 0.01 0.01 0.01 0.01 0.01 0.01 0.00 0.00 0.00 0.00 0.00 0.00 0.00 0.00 0.00 0.01 0.02 0.02 0.03 0.03 0.03 0.03 0.03 0.03 0.02 0.02 0.02 0.02 0.01 0.01 0.00 0.00 0.00 0.01 0.01 0.01 0.01 0.02
0.01 0.01 0.01 0.01 0.01 0.01 0.01 0.01 0.01 0.01 0.01 0.01 0.00 0.00 0.00 0.00 0.00 0.00 0.00 0.00 0.01 0.02 0.03 0.04 0.04 0.04 0.04 0.04 0.05 0.04 0.03 0.03 0.02 0.02 0.02 0.01 0.01 0.01 0.00 0.01 0.01 0.01 0.01
0.03 0.02 0.02 0.02 0.02 0.02 0.03 0.03 0.02 0.02 0.01 0.01 0.01 0.00 0.00 0.00 0.00 0.00 0.00 0.00 0.00 0.00 0.01 0.02 0.03 0.03 0.04 0.04 0.04 0.04 0.03 0.03 0.02 0.02 0.02 0.02 0.02 0.01 0.01 0.01 0.01 0.01 0.01
0.05 0.04 0.05 0.05 0.05 0.05 0.06 0.05 0.05 0.04 0.03 0.02 0.02 0.01 0.01 0.00 0.00 0.00 0.00 0.00 0.00 0.00 0.00 0.01 0.02 0.02 0.03 0.03 0.03 0.03 0.02 0.02 0.02 0.02 0.03 0.02 0.03 0.03 0.02 0.02 0.01 0.01 0.01
0.10 0.11 0.12 0.12 0.10 0.10 0.10 0.08 0.07 0.06 0.05 0.04 0.03 0.02 0.01 0.01 0.00 0.00 0.00 0.00 0.00 0.00 0.00 0.00 0.01 0.01 0.02 0.01 0.01 0.02 0.02 0.02 0.02 0.03 0.03 0.04 0.04 0.04 0.03 0.02 0.01 0.01 0.01
0.20 0.22 0.22 0.19 0.16 0.13 0.11 0.09 0.07 0.06 0.06 0.05 0.04 0.02 0.01 0.01 0.00 0.00 0.00 0.00 0.00 0.00 0.00 0.00 0.00 0.00 0.00 0.01 0.01 0.01 0.01 0.01 0.01 0.01 0.02 0.03 0.03 0.03 0.03 0.03 0.02 0.02 0.02
0.35 0.31 0.27 0.22 0.18 0.14 0.11 0.09 0.08 0.07 0.06 0.05 0.03 0.02 0.01 0.00 0.00 0.00 0.00 0.00 0.00 0.00 0.00 0.00 0.00 0.00 0.00 0.00 0.00 0.00 0.00 0.00 0.00 0.00 0.00 0.01 0.01 0.01 0.01 0.02 0.02 0.02 0.02
0.36 0.30 0.26 0.20 0.16 0.12 0.10 0.09 0.08 0.07 0.05 0.03 0.02 0.01 0.00 0.00 0.00 0.00 0.00 0.00 0.00 0.00 0.00 0.00 0.00 0.00 0.00 0.00 0.00 0.00 0.00 0.00 0.00 0.00 0.00 0.00 0.00 0.01 0.01 0.01 0.01 0.01 0.01
0.29 0.26 0.22 0.17 0.15 0.13 0.12 0.10 0.08 0.06 0.04 0.02 0.02 0.01 0.01 0.00 0.00 0.00 0.00 0.00 0.00 0.00 0.00 0.00 0.00 0.00 0.00 0.00 0.00 0.00 0.00 0.00 0.00 0.00 0.00 0.00 0.00 0.00 0.01 0.01 0.01 0.01 0.02
0.24 0.21 0.18 0.15 0.13 0.12 0.09 0.06 0.04 0.03 0.02 0.02 0.01 0.00 0.00 0.00 0.00 0.00 0.00 0.00 0.00 0.00 0.00 0.00 0.00 0.00 0.00 0.00 0.00 0.00 0.00 0.00 0.00 0.00 0.00 0.00 0.00 0.00 0.01 0.01 0.01 0.01 0.02
0.18 0.16 0.13 0.11 0.10 0.07 0.05 0.03 0.02 0.01 0.00 0.00 0.00 0.00 0.00 0.00 0.00 0.00 0.00 0.00 0.00 0.00 0.00 0.00 0.00 0.00 0.00 0.00 0.00 0.00 0.00 0.00 0.00 0.00 0.00 0.00 0.00 0.00 0.01 0.01 0.01 0.02 0.03
0.14 0.11 0.08 0.07 0.05 0.03 0.02 0.01 0.01 0.00 0.00 0.00 0.00 0.00 0.00 0.00 0.00 0.00 0.00 0.00 0.00 0.00 0.00 0.00 0.00 0.00 0.00 0.00 0.00 0.00 0.00 0.00 0.00 0.00 0.00 0.00 0.00 0.00 0.00 0.01 0.01 0.02 0.03
0.07 0.05 0.04 0.03 0.02 0.01 0.01 0.01 0.01 0.01 0.00 0.00 0.00 0.00 0.00 0.00 0.00 0.00 0.00 0.00 0.00 0.00 0.00 0.00 0.00 0.00 0.00 0.00 0.00 0.00 0.00 0.00 0.00 0.00 0.00 0.00 0.00 0.00 0.01 0.01 0.01 0.01 0.01
0.03 0.03 0.02 0.02 0.02 0.01 0.01 0.01 0.01 0.00 0.00 0.00 0.00 0.00 0.00 0.00 0.00 0.00 0.00 0.00 0.00 0.00 0.00 0.00 0.00 0.00 0.00 0.00 0.00 0.00 0.00 0.00 0.00 0.00 0.00 0.00 0.00 0.00 0.01 0.01 0.01 0.01 0.01
0.02 0.02 0.02 0.02 0.02 0.01 0.01 0.01 0.00 0.00 0.00 0.00 0.00 0.00 0.00 0.00 0.00 0.00 0.00 0.00 0.00 0.00 0.00 0.00 0.00 0.00 0.00 0.00 0.00 0.00 0.00 0.00 0.00 0.00 0.00 0.00 0.00 0.01 0.01 0.01 0.01 0.02 0.02
0.01 0.02 0.02 0.02 0.02 0.02 0.01 0.01 0.01 0.01 0.00 0.00 0.00 0.00 0.00 0.00 0.00 0.00 0.00 0.00 0.00 0.00 0.00 0.00 0.00 0.00 0.00 0.00 0.00 0.00 0.00 0.00 0.00 0.00 0.00 0.00 0.01 0.01 0.01 0.02 0.02 0.02 0.02
0.01 0.02 0.02 0.02 0.02 0.02 0.02 0.01 0.01 0.00 0.00 0.00 0.00 0.00 0.00 0.00 0.00 0.00 0.00 0.00 0.00 0.00 0.00 0.00 0.00 0.00 0.00 0.00 0.00 0.00 0.00 0.00 0.00 0.00 0.00 0.00 0.01 0.02 0.02 0.02 0.03 0.02 0.02
0.02 0.03 0.03 0.02 0.02 0.01 0.01 0.01 0.01 0.00 0.00 0.00 0.01 0.01 0.00 0.00 0.00 0.00 0.00 0.00 0.00 0.00 0.00 0.00 0.00 0.00 0.00 0.00 0.00 0.00 0.00 0.00 0.00 0.00 0.00 0.00 0.01 0.01 0.02 0.02 0.02 0.02 0.01
0.03 0.03 0.03 0.02 0.02 0.01 0.01 0.01 0.01 0.01 0.01 0.01 0.00 0.00 0.00 0.00 0.00 0.00 0.00 0.00 0.00 0.00 0.00 0.00 0.00 0.00 0.00 0.00 0.00 0.00 0.00 0.00 0.00 0.00 0.00 0.00 0.00 0.01 0.01 0.01 0.01 0.02 0.02
0.04 0.03 0.02 0.02 0.02 0.01 0.01 0.01 0.01 0.00 0.00 0.00 0.00 0.00 0.00 0.00 0.00 0.00 0.01 0.01 0.01 0.01 0.01 0.01 0.01 0.01 0.01 0.01 0.01 0.01 0.01 0.01 0.00 0.00 0.00 0.00 0.00 0.00 0.00 0.00 0.01 0.01 0.01
0.03 0.02 0.02 0.01 0.01 0.01 0.01 0.00 0.00 0.00 0.00 0.00 0.00 0.00 0.00 0.00 0.00 0.00 0.00 0.01 0.01 0.02 0.02 0.02 0.02 0.02 0.02 0.01 0.01 0.01 0.02 0.02 0.02 0.01 0.01 0.01 0.00 0.00 0.00 0.00 0.01 0.01 0.01
0.02 0.02 0.01 0.01 0.00 0.00 0.00 0.00 0.00 0.00 0.00 0.00 0.00 0.00 0.00 0.00 0.00 0.00 0.00 0.00 0.00 0.01 0.01 0.02 0.03 0.03 0.02 0.02 0.03 0.03 0.03 0.03 0.02 0.02 0.03 0.03 0.01 0.01 0.01 0.01 0.01 0.01 0.01
0.01 0.01 0.00 0.00 0.00 0.00 0.00 0.00 0.00 0.00 0.00 0.00 0.00 0.00 0.00 0.00 0.00 0.00 0.00 0.00 0.00 0.00 0.01 0.01 0.01 0.02 0.02 0.02 0.03 0.04 0.03 0.02 0.01 0.01 0.03 0.04 0.02 0.01 0.01 0.01 0.01 0.01 0.01
0.00 0.00 0.00 0.00 0.00 0.00 0.00 0.00 0.00 0.00 0.00 0.00 0.00 0.00 0.00 0.00 0.00 0.01 0.01 0.01 0.00 0.00 0.01 0.01 0.01 0.01 0.02 0.02 0.03 0.03 0.04 0.03 0.02 0.02 0.02 0.03 0.02 0.01 0.01 0.01 0.02 0.02 0.02
0.00 0.00 0.00 0.00 0.00 0.00 0.00 0.00 0.00 0.00 0.00 0.00 0.00 0.00 0.00 0.00 0.00 0.01 0.01 0.01 0.01 0.01 0.01 0.01 0.01 0.01 0.01 0.02 0.03 0.04 0.04 0.05 0.04 0.04 0.03 0.03 0.03 0.02 0.02 0.01 0.01 0.01 0.02

GEFSMA_prec_meanprec_060.txt.gz
QPF
0.01 0.01 0.02 0.03 0.02 0.03 0.02 0.02 0.01 0.01 0.00 0.00 0.00 0.00 0.00 0.00 0.00 0.00 0.00 0.00 0.00 0.00 0.01 0.01 0.01 0.01 0.01 0.01 0.01 0.01 0.01 0.01 0.01 0.01 0.01 0.01 0.01 0.00 0.01 0.01 0.01 0.01 0.01
0.02 0.02 0.03 0.04 0.04 0.04 0.03 0.02 0.02 0.01 0.01 0.01 0.00 0.00 0.00 0.00 0.00 0.00 0.00 0.00 0.00 0.00 0.00 0.01 0.01 0.01 0.01 0.01 0.02 0.02 0.02 0.01 0.02 0.02 0.01 0.01 0.01 0.01 0.01 0.01 0.01 0.01 0.00
0.03 0.04 0.05 0.06 0.06 0.05 0.04 0.02 0.02 0.01 0.02 0.01 0.01 0.00 0.00 0.00 0.00 0.00 0.00 0.00 0.00 0.00 0.00 0.00 0.01 0.01 0.01 0.01 0.02 0.02 0.02 0.02 0.02 0.02 0.02 0.02 0.01 0.01 0.01 0.01 0.01 0.00 0.00
0.05 0.08 0.08 0.09 0.09 0.07 0.06 0.04 0.03 0.03 0.02 0.02 0.01 0.01 0.01 0.01 0.01 0.00 0.00 0.00 0.00 0.00 0.00 0.00 0.00 0.01 0.01 0.01 0.01 0.02 0.02 0.03 0.03 0.02 0.02 0.02 0.02 0.01 0.01 0.01 0.01 0.01 0.01
0.10 0.13 0.15 0.15 0.12 0.11 0.10 0.08 0.06 0.04 0.03 0.03 0.03 0.02 0.02 0.02 0.01 0.01 0.00 0.00 0.00 0.00 0.00 0.01 0.00 0.00 0.00 0.00 0.01 0.01 0.02 0.02 0.02 0.02 0.02 0.02 0.03 0.02 0.02 0.02 0.01 0.01 0.01
0.18 0.20 0.21 0.22 0.21 0.20 0.19 0.16 0.11 0.08 0.06 0.05 0.04 0.04 0.03 0.03 0.03 0.01 0.01 0.01 0.01 0.00 0.00 0.00 0.00 0.00 0.00 0.00 0.00 0.01 0.01 0.02 0.02 0.02 0.02 0.03 0.03 0.02 0.02 0.01 0.01 0.01 0.01
0.28 0.32 0.37 0.36 0.32 0.27 0.24 0.21 0.17 0.14 0.11 0.08 0.07 0.07 0.06 0.05 0.04 0.02 0.02 0.01 0.01 0.01 0.01 0.00 0.00 0.00 0.00 0.00 0.00 0.00 0.01 0.01 0.01 0.02 0.02 0.02 0.02 0.02 0.02 0.02 0.02 0.01 0.01
0.43 0.48 0.49 0.46 0.40 0.32 0.24 0.19 0.17 0.15 0.10 0.07 0.07 0.06 0.06 0.05 0.03 0.02 0.01 0.01 0.00 0.00 0.00 0.00 0.00 0.00 0.00 0.00 0.00 0.00 0.00 0.00 0.01 0.01 0.01 0.02 0.02 0.02 0.02 0.02 0.01 0.01 0.01
0.46 0.45 0.42 0.41 0.37 0.30 0.23 0.19 0.15 0.12 0.10 0.09 0.08 0.09 0.08 0.05 0.02 0.02 0.01 0.01 0.01 0.00 0.00 0.00 0.00 0.00 0.00 0.00 0.00 0.00 0.00 0.00 0.00 0.00 0.00 0.00 0.01 0.01 0.01 0.02 0.01 0.02 0.02
0.35 0.32 0.30 0.28 0.25 0.22 0.20 0.17 0.15 0.13 0.12 0.11 0.10 0.08 0.06 0.04 0.03 0.03 0.02 0.02 0.01 0.01 0.00 0.00 0.00 0.00 0.00 0.00 0.00 0.00 0.00 0.00 0.00 0.00 0.00 0.00 0.00 0.00 0.00 0.01 0.01 0.01 0.02
0.29 0.27 0.23 0.17 0.13 0.11 0.10 0.08 0.08 0.09 0.09 0.07 0.05 0.04 0.03 0.02 0.01 0.01 0.01 0.01 0.00 0.00 0.00 0.00 0.00 0.00 0.00 0.00 0.00 0.00 0.00 0.00 0.00 0.00 0.00 0.00 0.00 0.00 0.00 0.01 0.01 0.01 0.01
0.25 0.19 0.13 0.09 0.07 0.06 0.05 0.05 0.05 0.05 0.04 0.03 0.02 0.02 0.01 0.01 0.01 0.00 0.00 0.00 0.00 0.00 0.00 0.00 0.00 0.00 0.00 0.00 0.00 0.00 0.00 0.00 0.00 0.00 0.00 0.00 0.00 0.00 0.00 0.00 0.01 0.01 0.02
0.13 0.08 0.06 0.05 0.04 0.04 0.04 0.03 0.03 0.03 0.02 0.02 0.01 0.01 0.01 0.01 0.01 0.00 0.00 0.00 0.00 0.00 0.00 0.00 0.00 0.00 0.00 0.00 0.00 0.00 0.00 0.00 0.00 0.00 0.00 0.00 0.00 0.00 0.00 0.00 0.01 0.01 0.01
0.05 0.04 0.03 0.02 0.02 0.02 0.02 0.02 0.02 0.02 0.02 0.02 0.02 0.02 0.01 0.01 0.01 0.01 0.01 0.01 0.00 0.00 0.00 0.00 0.00 0.00 0.00 0.00 0.00 0.00 0.00 0.00 0.00 0.00 0.00 0.00 0.00 0.00 0.01 0.01 0.01 0.01 0.01
0.02 0.01 0.01 0.01 0.01 0.01 0.01 0.01 0.02 0.02 0.02 0.02 0.01 0.01 0.01 0.01 0.01 0.01 0.01 0.00 0.00 0.00 0.00 0.00 0.00 0.00 0.00 0.00 0.00 0.00 0.00 0.00 0.00 0.00 0.00 0.00 0.00 0.00 0.00 0.01 0.01 0.01 0.01
0.01 0.01 0.01 0.01 0.01 0.01 0.01 0.01 0.01 0.01 0.01 0.01 0.01 0.01 0.01 0.00 0.00 0.00 0.00 0.00 0.00 0.00 0.00 0.00 0.00 0.00 0.00 0.00 0.00 0.00 0.00 0.00 0.00 0.00 0.00 0.00 0.00 0.00 0.00 0.01 0.01 0.01 0.01
0.01 0.01 0.01 0.01 0.01 0.01 0.01 0.01 0.01 0.01 0.01 0.01 0.01 0.01 0.01 0.01 0.00 0.00 0.00 0.01 0.01 0.01 0.01 0.00 0.00 0.00 0.00 0.01 0.01 0.01 0.01 0.01 0.00 0.00 0.00 0.00 0.00 0.00 0.01 0.01 0.01 0.01 0.02
0.00 0.00 0.00 0.00 0.01 0.01 0.01 0.01 0.01 0.01 0.01 0.01 0.01 0.01 0.01 0.01 0.01 0.01 0.01 0.01 0.01 0.01 0.01 0.01 0.00 0.00 0.01 0.01 0.01 0.01 0.01 0.00 0.00 0.00 0.00 0.00 0.00 0.00 0.01 0.01 0.01 0.01 0.01
0.01 0.01 0.01 0.02 0.02 0.01 0.01 0.01 0.01 0.01 0.01 0.01 0.01 0.01 0.01 0.01 0.01 0.01 0.01 0.01 0.01 0.01 0.01 0.02 0.01 0.01 0.01 0.01 0.02 0.02 0.01 0.02 0.01 0.00 0.00 0.00 0.00 0.00 0.01 0.01 0.01 0.01 0.00
0.01 0.02 0.02 0.02 0.01 0.01 0.01 0.01 0.01 0.00 0.00 0.00 0.00 0.00 0.00 0.00 0.01 0.01 0.01 0.02 0.02 0.02 0.03 0.03 0.02 0.02 0.02 0.02 0.03 0.03 0.02 0.02 0.02 0.01 0.01 0.01 0.01 0.01 0.00 0.00 0.00 0.00 0.00
0.02 0.02 0.01 0.01 0.01 0.01 0.01 0.00 0.00 0.00 0.00 0.00 0.00 0.00 0.00 0.00 0.01 0.01 0.01 0.02 0.04 0.04 0.04 0.04 0.03 0.02 0.02 0.03 0.03 0.03 0.03 0.02 0.02 0.02 0.03 0.02 0.02 0.02 0.02 0.02 0.01 0.01 0.01
0.01 0.01 0.01 0.00 0.00 0.00 0.00 0.00 0.00 0.00 0.00 0.00 0.00 0.00 0.00 0.00 0.00 0.00 0.00 0.01 0.02 0.04 0.04 0.05 0.04 0.04 0.03 0.04 0.04 0.04 0.04 0.04 0.03 0.02 0.03 0.02 0.02 0.03 0.03 0.03 0.02 0.01 0.01
0.01 0.01 0.01 0.00 0.01 0.00 0.00 0.00 0.00 0.00 0.00 0.01 0.01 0.01 0.01 0.01 0.01 0.02 0.01 0.01 0.01 0.02 0.02 0.04 0.05 0.05 0.05 0.05 0.06 0.05 0.05 0.04 0.03 0.03 0.04 0.03 0.03 0.04 0.03 0.02 0.01 0.00 0.00
0.01 0.00 0.00 0.00 0.01 0.00 0.00 0.00 0.00 0.00 0.01 0.01 0.01 0.01 0.02 0.02 0.02 0.01 0.01 0.02 0.03 0.03 0.03 0.03 0.05 0.05 0.04 0.04 0.05 0.05 0.05 0.03 0.02 0.03 0.05 0.04 0.03 0.03 0.02 0.04 0.02 0.01 0.01
0.01 0.00 0.00 0.01 0.01 0.01 0.00 0.00 0.00 0.00 0.01 0.01 0.01 0.01 0.02 0.02 0.01 0.00 0.01 0.03 0.03 0.04 0.02 0.01 0.01 0.01 0.01 0.02 0.02 0.04 0.04 0.04 0.02 0.03 0.04 0.03 0.02 0.02 0.02 0.04 0.04 0.01 0.01
0.01 0.00 0.00 0.01 0.01 0.01 0.00 0.00 0.00 0.00 0.01 0.01 0.01 0.02 0.02 0.01 0.00 0.00 0.01 0.03 0.04 0.03 0.02 0.02 0.03 0.03 0.03 0.03 0.03 0.04 0.05 0.04 0.04 0.03 0.03 0.02 0.02 0.02 0.02 0.02 0.03 0.03 0.03

GEFSMA_prec_meanprec_066.txt.gz
QPF
0.04 0.05 0.06 0.07 0.07 0.10 0.10 0.05 0.03 0.04 0.04 0.01 0.00 0.00 0.00 0.00 0.00 0.01 0.02 0.02 0.01 0.01 0.01 0.01 0.01 0.01 0.00 0.01 0.01 0.01 0.01 0.00 0.00 0.00 0.00 0.00 0.00 0.00 0.00 0.00 0.00 0.00 0.00
0.07 0.08 0.08 0.09 0.09 0.12 0.13 0.08 0.05 0.05 0.03 0.02 0.02 0.01 0.00 0.00 0.00 0.01 0.02 0.02 0.02 0.02 0.01 0.01 0.00 0.00 0.00 0.00 0.01 0.01 0.01 0.02 0.02 0.02 0.01 0.01 0.01 0.01 0.01 0.00 0.00 0.01 0.01
0.09 0.11 0.12 0.13 0.12 0.11 0.11 0.11 0.09 0.06 0.05 0.04 0.03 0.01 0.00 0.00 0.00 0.01 0.02 0.02 0.04 0.03 0.01 0.01 0.01 0.01 0.01 0.01 0.01 0.02 0.03 0.02 0.02 0.02 0.02 0.02 0.02 0.02 0.01 0.01 0.01 0.01 0.01
0.08 0.10 0.12 0.14 0.14 0.12 0.13 0.14 0.12 0.10 0.10 0.08 0.05 0.04 0.02 0.00 0.01 0.01 0.01 0.02 0.02 0.03 0.02 0.02 0.01 0.01 0.01 0.02 0.02 0.02 0.02 0.03 0.03 0.03 0.03 0.03 0.03 0.03 0.02 0.02 0.01 0.01 0.01
0.06 0.09 0.12 0.14 0.15 0.14 0.15 0.15 0.15 0.12 0.11 0.09 0.07 0.06 0.04 0.02 0.02 0.01 0.01 0.01 0.01 0.02 0.03 0.04 0.03 0.02 0.01 0.01 0.01 0.01 0.01 0.02 0.02 0.02 0.03 0.03 0.04 0.04 0.03 0.03 0.02 0.02 0.02
0.07 0.09 0.12 0.14 0.16 0.18 0.22 0.20 0.17 0.16 0.14 0.10 0.08 0.06 0.03 0.02 0.01 0.01 0.01 0.01 0.02 0.02 0.02 0.02 0.03 0.02 0.01 0.01 0.00 0.01 0.01 0.01 0.01 0.02 0.02 0.02 0.03 0.03 0.03 0.03 0.03 0.02 0.02
0.09 0.10 0.11 0.14 0.18 0.21 0.20 0.23 0.25 0.21 0.16 0.11 0.09 0.06 0.03 0.03 0.03 0.02 0.02 0.01 0.01 0.01 0.01 0.01 0.01 0.01 0.01 0.01 0.01 0.01 0.01 0.01 0.01 0.01 0.01 0.01 0.01 0.02 0.02 0.02 0.02 0.02 0.02
0.07 0.08 0.09 0.11 0.14 0.17 0.20 0.19 0.17 0.14 0.12 0.10 0.08 0.07 0.05 0.03 0.02 0.02 0.01 0.01 0.01 0.01 0.00 0.00 0.00 0.00 0.01 0.00 0.00 0.00 0.00 0.00 0.00 0.01 0.01 0.01 0.01 0.02 0.02 0.02 0.03 0.03 0.03
0.06 0.08 0.08 0.08 0.10 0.12 0.13 0.11 0.10 0.09 0.07 0.05 0.05 0.05 0.05 0.04 0.02 0.01 0.01 0.01 0.01 0.01 0.01 0.01 0.01 0.01 0.00 0.00 0.00 0.00 0.00 0.00 0.00 0.00 0.00 0.00 0.00 0.00 0.01 0.01 0.02 0.02 0.02
0.09 0.07 0.06 0.06 0.07 0.07 0.07 0.07 0.06 0.04 0.04 0.04 0.03 0.03 0.03 0.02 0.02 0.01 0.01 0.01 0.01 0.01 0.01 0.01 0.01 0.01 0.01 0.01 0.01 0.01 0.01 0.00 0.00 0.00 0.00 0.00 0.00 0.00 0.00 0.00 0.01 0.01 0.02
0.04 0.04 0.04 0.04 0.04 0.04 0.04 0.03 0.03 0.02 0.02 0.03 0.02 0.02 0.02 0.02 0.02 0.02 0.01 0.01 0.00 0.00 0.00 0.00 0.00 0.00 0.00 0.00 0.00 0.00 0.00 0.00 0.00 0.00 0.00 0.00 0.00 0.00 0.00 0.00 0.00 0.01 0.01
0.03 0.02 0.02 0.01 0.01 0.02 0.03 0.03 0.03 0.03 0.02 0.02 0.02 0.02 0.02 0.02 0.02 0.02 0.02 0.01 0.01 0.00 0.00 0.00 0.00 0.00 0.00 0.00 0.00 0.00 0.00 0.00 0.00 0.00 0.00 0.00 0.00 0.00 0.00 0.00 0.00 0.01 0.01
0.02 0.01 0.01 0.01 0.01 0.02 0.02 0.02 0.02 0.02 0.03 0.03 0.03 0.03 0.02 0.02 0.02 0.02 0.01 0.01 0.00 0.00 0.00 0.00 0.00 0.00 0.00 0.00 0.00 0.00 0.00 0.00 0.00 0.00 0.00 0.00 0.00 0.00 0.00 0.00 0.01 0.01 0.01
0.02 0.01 0.00 0.00 0.00 0.00 0.00 0.01 0.01 0.01 0.01 0.01 0.01 0.01 0.01 0.01 0.01 0.01 0.01 0.01 0.01 0.01 0.01 0.01 0.01 0.01 0.00 0.00 0.00 0.00 0.00 0.00 0.00 0.00 0.00 0.00 0.00 0.00 0.00 0.01 0.01 0.01 0.01
0.02 0.01 0.01 0.01 0.00 0.00 0.00 0.00 0.00 0.00 0.00 0.01 0.01 0.01 0.01 0.01 0.01 0.01 0.01 0.01 0.01 0.01 0.01 0.01 0.01 0.00 0.00 0.00 0.00 0.00 0.00 0.00 0.00 0.00 0.00 0.00 0.00 0.00 0.00 0.01 0.01 0.01 0.01
0.02 0.02 0.02 0.01 0.01 0.00 0.00 0.00 0.00 0.00 0.00 0.01 0.01 0.01 0.01 0.01 0.00 0.00 0.01 0.01 0.01 0.01 0.01 0.01 0.00 0.00 0.00 0.00 0.00 0.00 0.00 0.00 0.00 0.00 0.00 0.00 0.00 0.00 0.00 0.01 0.01 0.01 0.01
0.02 0.02 0.01 0.01 0.01 0.00 0.00 0.00 0.00 0.00 0.00 0.01 0.00 0.00 0.00 0.00 0.00 0.00 0.01 0.01 0.01 0.01 0.01 0.01 0.01 0.00 0.00 0.00 0.00 0.01 0.01 0.01 0.01 0.01 0.01 0.01 0.00 0.00 0.00 0.00 0.00 0.00 0.01
0.01 0.01 0.01 0.00 0.00 0.00 0.00 0.00 0.00 0.00 0.00 0.00 0.00 0.00 0.00 0.00 0.01 0.01 0.01 0.01 0.01 0.01 0.01 0.01 0.01 0.01 0.01 0.01 0.01 0.01 0.01 0.00 0.00 0.00 0.00 0.00 0.00 0.00 0.00 0.00 0.00 0.00 0.00
0.00 0.00 0.00 0.00 0.00 0.00 0.00 0.00 0.00 0.00 0.00 0.00 0.00 0.00 0.00 0.01 0.01 0.01 0.01 0.01 0.01 0.01 0.02 0.02 0.01 0.01 0.01 0.01 0.02 0.01 0.01 0.02 0.01 0.00 0.00 0.00 0.01 0.01 0.00 0.00 0.00 0.00 0.00
0.00 0.00 0.00 0.00 0.00 0.00 0.00 0.00 0.00 0.00 0.00 0.00 0.00 0.01 0.01 0.01 0.01 0.01 0.01 0.01 0.01 0.02 0.02 0.02 0.02 0.02 0.02 0.02 0.03 0.03 0.02 0.02 0.01 0.01 0.01 0.01 0.01 0.01 0.01 0.01 0.01 0.01 0.00
0.00 0.00 0.00 0.00 0.00 0.00 0.00 0.00 0.00 0.00 0.00 0.00 0.01 0.01 0.01 0.01 0.00 0.00 0.00 0.01 0.01 0.02 0.02 0.03 0.03 0.02 0.02 0.03 0.04 0.04 0.03 0.02 0.01 0.02 0.02 0.01 0.02 0.03 0.03 0.03 0.02 0.02 0.01
0.01 0.01 0.01 0.00 0.01 0.00 0.00 0.00 0.00 0.00 0.00 0.01 0.01 0.02 0.02 0.01 0.01 0.01 0.01 0.00 0.01 0.01 0.02 0.03 0.03 0.04 0.04 0.05 0.05 0.04 0.04 0.04 0.02 0.02 0.03 0.02 0.03 0.03 0.04 0.04 0.03 0.01 0.01
0.01 0.01 0.01 0.01 0.01 0.00 0.00 0.00 0.00 0.00 0.01 0.02 0.02 0.03 0.02 0.02 0.02 0.03 0.02 0.01 0.02 0.02 0.03 0.04 0.05 0.06 0.06 0.06 0.06 0.04 0.04 0.05 0.03 0.03 0.04 0.03 0.03 0.04 0.03 0.02 0.01 0.01 0.00
0.02 0.02 0.01 0.01 0.02 0.01 0.00 0.00 0.00 0.00 0.01 0.02 0.03 0.03 0.04 0.04 0.03 0.01 0.00 0.01 0.03 0.06 0.05 0.05 0.06 0.06 0.05 0.04 0.04 0.03 0.04 0.03 0.03 0.04 0.05 0.04 0.03 0.03 0.02 0.04 0.02 0.01 0.00
0.02 0.01 0.01 0.01 0.02 0.02 0.00 0.00 0.00 0.00 0.01 0.02 0.02 0.03 0.03 0.04 0.01 0.00 0.00 0.02 0.04 0.06 0.03 0.01 0.01 0.01 0.01 0.01 0.01 0.02 0.03 0.04 0.03 0.03 0.04 0.03 0.02 0.01 0.01 0.03 0.03 0.01 0.01
0.02 0.01 0.01 0.01 0.03 0.02 0.00 0.00 0.00 0.00 0.01 0.01 0.02 0.04 0.03 0.01 0.00 0.00 0.00 0.02 0.04 0.04 0.03 0.03 0.04 0.05 0.05 0.04 0.02 0.03 0.05 0.06 0.05 0.04 0.03 0.02 0.02 0.02 0.02 0.02 0.03 0.03 0.04

GEFSMA_prec_meanprec_072.txt.gz
QPF
0.01 0.01 0.01 0.02 0.04 0.09 0.06 0.03 0.03 0.05 0.10 0.15 0.14 0.15 0.14 0.10 0.09 0.07 0.05 0.06 0.06 0.07 0.07 0.04 0.03 0.02 0.02 0.01 0.01 0.01 0.01 0.01 0.01 0.01 0.01 0.01 0.01 0.01 0.01 0.01 0.01 0.01 0.01
0.00 0.01 0.02 0.02 0.04 0.11 0.08 0.08 0.05 0.06 0.11 0.16 0.14 0.15 0.12 0.12 0.11 0.07 0.05 0.05 0.04 0.05 0.04 0.04 0.03 0.03 0.03 0.02 0.02 0.02 0.02 0.02 0.02 0.02 0.02 0.02 0.01 0.01 0.01 0.01 0.01 0.01 0.01
0.02 0.02 0.02 0.02 0.02 0.02 0.02 0.05 0.05 0.07 0.11 0.13 0.12 0.14 0.10 0.06 0.05 0.04 0.05 0.05 0.04 0.03 0.04 0.03 0.03 0.02 0.03 0.03 0.03 0.03 0.02 0.02 0.02 0.03 0.02 0.02 0.02 0.02 0.02 0.02 0.02 0.02 0.02
0.03 0.02 0.02 0.01 0.01 0.01 0.02 0.03 0.05 0.06 0.08 0.12 0.13 0.10 0.09 0.09 0.05 0.03 0.03 0.02 0.02 0.02 0.02 0.02 0.02 0.01 0.02 0.02 0.03 0.03 0.03 0.03 0.03 0.03 0.03 0.02 0.02 0.02 0.02 0.02 0.03 0.03 0.02
0.02 0.02 0.01 0.01 0.01 0.02 0.03 0.04 0.05 0.07 0.07 0.07 0.06 0.05 0.07 0.06 0.03 0.02 0.01 0.01 0.01 0.01 0.01 0.01 0.02 0.02 0.03 0.03 0.03 0.03 0.03 0.03 0.03 0.02 0.02 0.02 0.02 0.01 0.01 0.02 0.02 0.03 0.03
0.05 0.06 0.05 0.04 0.03 0.02 0.02 0.03 0.03 0.04 0.03 0.04 0.04 0.03 0.03 0.02 0.02 0.02 0.01 0.01 0.01 0.01 0.01 0.01 0.01 0.01 0.02 0.02 0.02 0.02 0.02 0.02 0.03 0.03 0.03 0.03 0.02 0.02 0.01 0.01 0.01 0.01 0.02
0.18 0.18 0.14 0.08 0.06 0.04 0.03 0.02 0.02 0.02 0.01 0.02 0.02 0.02 0.02 0.02 0.01 0.01 0.01 0.01 0.01 0.00 0.00 0.00 0.01 0.01 0.01 0.01 0.01 0.01 0.01 0.01 0.01 0.02 0.02 0.01 0.01 0.01 0.01 0.01 0.01 0.01 0.01
0.30 0.24 0.17 0.12 0.07 0.05 0.03 0.01 0.01 0.01 0.01 0.01 0.01 0.01 0.01 0.01 0.00 0.00 0.00 0.00 0.00 0.00 0.00 0.00 0.00 0.00 0.01 0.00 0.00 0.01 0.01 0.01 0.01 0.01 0.00 0.00 0.01 0.01 0.01 0.01 0.01 0.01 0.01
0.26 0.23 0.19 0.15 0.11 0.08 0.05 0.03 0.02 0.01 0.01 0.01 0.01 0.01 0.01 0.01 0.00 0.00 0.00 0.00 0.00 0.00 0.00 0.00 0.00 0.00 0.00 0.00 0.00 0.00 0.00 0.00 0.00 0.00 0.00 0.00 0.01 0.01 0.01 0.01 0.01 0.01 0.01
0.21 0.19 0.20 0.19 0.14 0.09 0.05 0.04 0.03 0.02 0.01 0.01 0.01 0.01 0.01 0.01 0.01 0.00 0.00 0.00 0.00 0.00 0.00 0.00 0.00 0.00 0.00 0.00 0.00 0.00 0.00 0.00 0.00 0.01 0.01 0.01 0.01 0.01 0.01 0.01 0.01 0.01 0.01
0.22 0.20 0.18 0.16 0.12 0.08 0.05 0.03 0.03 0.02 0.02 0.02 0.01 0.01 0.01 0.01 0.01 0.01 0.01 0.00 0.00 0.00 0.00 0.00 0.00 0.00 0.00 0.00 0.00 0.00 0.01 0.01 0.01 0.00 0.01 0.01 0.01 0.01 0.01 0.01 0.01 0.01 0.01
0.26 0.21 0.16 0.13 0.10 0.07 0.04 0.03 0.01 0.01 0.01 0.01 0.01 0.01 0.01 0.01 0.02 0.02 0.02 0.01 0.01 0.01 0.00 0.00 0.00 0.00 0.00 0.00 0.00 0.00 0.00 0.00 0.00 0.01 0.01 0.01 0.01 0.01 0.01 0.01 0.01 0.01 0.01
0.17 0.14 0.11 0.08 0.06 0.04 0.03 0.01 0.01 0.01 0.01 0.01 0.01 0.01 0.01 0.01 0.01 0.01 0.01 0.01 0.01 0.01 0.01 0.01 0.01 0.01 0.01 0.00 0.00 0.01 0.00 0.00 0.00 0.00 0.00 0.00 0.00 0.00 0.00 0.00 0.01 0.01 0.01
0.16 0.13 0.11 0.09 0.07 0.05 0.04 0.02 0.01 0.01 0.01 0.01 0.01 0.01 0.01 0.01 0.00 0.00 0.00 0.00 0.00 0.00 0.00 0.00 0.01 0.01 0.01 0.00 0.00 0.01 0.00 0.00 0.00 0.00 0.00 0.00 0.00 0.00 0.00 0.00 0.00 0.01 0.01
0.15 0.15 0.14 0.11 0.09 0.07 0.06 0.04 0.03 0.03 0.02 0.02 0.02 0.01 0.01 0.01 0.00 0.00 0.00 0.00 0.00 0.00 0.00 0.00 0.00 0.00 0.00 0.00 0.00 0.00 0.00 0.00 0.00 0.00 0.00 0.00 0.00 0.00 0.00 0.00 0.00 0.01 0.01
0.10 0.10 0.09 0.07 0.05 0.04 0.03 0.03 0.02 0.02 0.02 0.01 0.01 0.01 0.01 0.00 0.00 0.00 0.00 0.00 0.00 0.00 0.00 0.00 0.00 0.00 0.00 0.00 0.00 0.00 0.00 0.00 0.00 0.00 0.00 0.00 0.00 0.00 0.00 0.01 0.01 0.01 0.01
0.06 0.06 0.05 0.04 0.03 0.02 0.01 0.01 0.00 0.00 0.00 0.00 0.00 0.00 0.00 0.00 0.00 0.00 0.00 0.00 0.00 0.00 0.00 0.00 0.00 0.00 0.00 0.00 0.00 0.00 0.00 0.00 0.00 0.00 0.00 0.00 0.00 0.00 0.00 0.01 0.01 0.01 0.01
0.03 0.03 0.03 0.02 0.01 0.01 0.00 0.00 0.00 0.00 0.00 0.00 0.00 0.00 0.00 0.00 0.00 0.00 0.00 0.00 0.00 0.00 0.00 0.00 0.00 0.00 0.00 0.00 0.00 0.00 0.00 0.00 0.00 0.00 0.00 0.00 0.00 0.01 0.01 0.01 0.01 0.01 0.01
0.01 0.01 0.01 0.01 0.01 0.00 0.00 0.00 0.00 0.00 0.00 0.00 0.00 0.00 0.00 0.00 0.00 0.00 0.00 0.00 0.00 0.00 0.00 0.00 0.00 0.00 0.00 0.00 0.00 0.00 0.00 0.00 0.00 0.00 0.00 0.00 0.00 0.00 0.00 0.01 0.00 0.00 0.00
0.00 0.00 0.00 0.00 0.00 0.00 0.00 0.00 0.00 0.00 0.00 0.00 0.00 0.00 0.00 0.00 0.00 0.00 0.00 0.00 0.00 0.00 0.00 0.00 0.00 0.00 0.00 0.00 0.00 0.00 0.00 0.00 0.00 0.00 0.00 0.00 0.00 0.00 0.00 0.01 0.01 0.01 0.01
0.00 0.00 0.00 0.00 0.00 0.00 0.00 0.00 0.00 0.00 0.00 0.00 0.00 0.00 0.00 0.01 0.01 0.01 0.00 0.00 0.00 0.00 0.00 0.00 0.00 0.00 0.00 0.00 0.01 0.01 0.00 0.00 0.00 0.00 0.00 0.00 0.00 0.00 0.00 0.00 0.01 0.01 0.01
0.00 0.00 0.00 0.00 0.00 0.00 0.00 0.00 0.00 0.00 0.00 0.00 0.00 0.00 0.00 0.01 0.01 0.00 0.00 0.00 0.00 0.00 0.00 0.01 0.00 0.00 0.00 0.01 0.01 0.01 0.00 0.00 0.00 0.00 0.00 0.00 0.00 0.00 0.00 0.00 0.00 0.01 0.01
0.00 0.00 0.00 0.00 0.00 0.00 0.00 0.00 0.00 0.00 0.00 0.00 0.00 0.00 0.01 0.01 0.00 0.00 0.00 0.00 0.00 0.00 0.02 0.02 0.01 0.01 0.01 0.01 0.01 0.01 0.00 0.00 0.00 0.00 0.00 0.00 0.00 0.00 0.00 0.00 0.00 0.00 0.00
0.00 0.00 0.00 0.00 0.00 0.00 0.00 0.00 0.00 0.00 0.00 0.00 0.00 0.00 0.01 0.01 0.00 0.00 0.00 0.00 0.00 0.00 0.01 0.01 0.01 0.01 0.01 0.01 0.01 0.01 0.00 0.00 0.00 0.00 0.00 0.00 0.00 0.00 0.00 0.00 0.01 0.00 0.00
0.00 0.00 0.00 0.00 0.00 0.00 0.00 0.00 0.00 0.00 0.00 0.00 0.00 0.00 0.01 0.01 0.00 0.00 0.00 0.00 0.00 0.00 0.00 0.00 0.00 0.00 0.00 0.01 0.01 0.01 0.01 0.01 0.01 0.00 0.00 0.00 0.00 0.00 0.00 0.00 0.00 0.00 0.00
0.00 0.00 0.00 0.00 0.00 0.00 0.00 0.00 0.00 0.00 0.00 0.00 0.00 0.00 0.00 0.00 0.00 0.00 0.00 0.00 0.00 0.00 0.00 0.00 0.00 0.01 0.01 0.01 0.01 0.01 0.01 0.01 0.02 0.02 0.01 0.01 0.01 0.01 0.01 0.00 0.00 0.00 0.01

GEFSMA_prec_meanprec_078.txt.gz
QPF
0.00 0.00 0.00 0.00 0.01 0.01 0.02 0.02 0.01 0.02 0.02 0.02 0.03 0.03 0.02 0.02 0.02 0.03 0.04 0.03 0.02 0.03 0.06 0.08 0.08 0.07 0.06 0.04 0.03 0.03 0.04 0.03 0.04 0.03 0.03 0.03 0.02 0.02 0.02 0.02 0.02 0.02 0.02
0.01 0.01 0.01 0.01 0.02 0.02 0.03 0.03 0.02 0.03 0.03 0.03 0.03 0.03 0.04 0.05 0.04 0.03 0.04 0.05 0.04 0.05 0.06 0.07 0.08 0.08 0.06 0.06 0.05 0.05 0.05 0.05 0.04 0.03 0.02 0.02 0.02 0.02 0.02 0.02 0.02 0.02 0.02
0.02 0.01 0.02 0.02 0.03 0.05 0.05 0.05 0.04 0.05 0.04 0.02 0.03 0.05 0.06 0.05 0.05 0.06 0.07 0.05 0.04 0.05 0.04 0.04 0.06 0.06 0.06 0.05 0.05 0.05 0.06 0.06 0.05 0.03 0.03 0.03 0.02 0.02 0.02 0.01 0.01 0.01 0.01
0.02 0.02 0.03 0.05 0.08 0.09 0.08 0.06 0.05 0.05 0.04 0.03 0.03 0.04 0.04 0.03 0.04 0.04 0.04 0.04 0.04 0.03 0.03 0.03 0.04 0.05 0.05 0.05 0.05 0.06 0.05 0.05 0.04 0.04 0.04 0.03 0.02 0.02 0.02 0.02 0.02 0.02 0.02
0.03 0.05 0.06 0.09 0.11 0.11 0.09 0.08 0.07 0.05 0.04 0.03 0.04 0.04 0.03 0.04 0.04 0.03 0.03 0.03 0.03 0.02 0.02 0.03 0.04 0.04 0.04 0.04 0.04 0.04 0.04 0.03 0.03 0.03 0.03 0.02 0.02 0.01 0.01 0.01 0.01 0.02 0.02
0.11 0.13 0.14 0.17 0.15 0.12 0.12 0.10 0.07 0.06 0.05 0.04 0.04 0.03 0.03 0.03 0.02 0.03 0.03 0.02 0.02 0.01 0.01 0.01 0.02 0.03 0.03 0.03 0.03 0.03 0.03 0.02 0.02 0.02 0.02 0.02 0.02 0.02 0.02 0.01 0.01 0.01 0.01
0.21 0.24 0.24 0.23 0.20 0.17 0.15 0.11 0.08 0.07 0.06 0.05 0.04 0.03 0.02 0.01 0.01 0.01 0.01 0.01 0.01 0.01 0.01 0.01 0.01 0.01 0.02 0.02 0.02 0.02 0.01 0.02 0.03 0.03 0.03 0.03 0.03 0.02 0.02 0.02 0.02 0.02 0.01
0.36 0.33 0.31 0.30 0.27 0.23 0.20 0.17 0.13 0.10 0.09 0.07 0.05 0.04 0.02 0.01 0.01 0.01 0.01 0.01 0.01 0.00 0.00 0.00 0.00 0.00 0.00 0.01 0.01 0.01 0.02 0.02 0.03 0.03 0.03 0.03 0.02 0.01 0.01 0.01 0.01 0.01 0.01
0.42 0.39 0.36 0.33 0.31 0.29 0.27 0.24 0.19 0.14 0.11 0.09 0.06 0.04 0.03 0.02 0.01 0.01 0.01 0.01 0.01 0.00 0.00 0.00 0.00 0.00 0.00 0.00 0.00 0.01 0.02 0.02 0.02 0.02 0.03 0.03 0.03 0.02 0.01 0.01 0.01 0.01 0.01
0.39 0.37 0.34 0.32 0.32 0.30 0.26 0.23 0.21 0.18 0.13 0.10 0.07 0.04 0.03 0.02 0.02 0.02 0.01 0.01 0.00 0.00 0.00 0.00 0.00 0.00 0.00 0.00 0.00 0.00 0.01 0.01 0.01 0.01 0.02 0.02 0.02 0.02 0.02 0.02 0.01 0.01 0.01
0.37 0.34 0.32 0.30 0.26 0.22 0.19 0.16 0.14 0.13 0.11 0.09 0.06 0.04 0.03 0.02 0.01 0.01 0.01 0.01 0.01 0.01 0.00 0.00 0.00 0.00 0.00 0.00 0.00 0.01 0.01 0.01 0.01 0.01 0.02 0.02 0.02 0.03 0.03 0.03 0.03 0.02 0.02
0.36 0.30 0.25 0.23 0.20 0.18 0.15 0.14 0.12 0.10 0.08 0.07 0.06 0.05 0.03 0.03 0.02 0.02 0.02 0.02 0.01 0.01 0.01 0.00 0.00 0.00 0.00 0.00 0.01 0.01 0.01 0.01 0.01 0.01 0.01 0.02 0.02 0.02 0.03 0.03 0.03 0.03 0.03
0.30 0.27 0.23 0.21 0.18 0.16 0.16 0.16 0.14 0.12 0.09 0.08 0.07 0.06 0.05 0.04 0.03 0.03 0.03 0.02 0.02 0.02 0.01 0.01 0.00 0.00 0.00 0.00 0.00 0.01 0.01 0.01 0.01 0.01 0.01 0.01 0.01 0.01 0.01 0.01 0.01 0.01 0.01
0.20 0.16 0.13 0.12 0.12 0.12 0.13 0.15 0.15 0.13 0.11 0.09 0.08 0.07 0.06 0.05 0.03 0.02 0.02 0.01 0.01 0.01 0.01 0.01 0.00 0.00 0.00 0.00 0.00 0.00 0.00 0.00 0.00 0.00 0.00 0.00 0.00 0.00 0.00 0.00 0.01 0.01 0.01
0.14 0.10 0.07 0.08 0.08 0.08 0.08 0.08 0.08 0.09 0.08 0.07 0.07 0.06 0.04 0.03 0.02 0.01 0.01 0.01 0.02 0.02 0.01 0.01 0.01 0.01 0.00 0.00 0.00 0.00 0.00 0.00 0.00 0.00 0.00 0.00 0.00 0.00 0.00 0.00 0.00 0.00 0.01
0.09 0.08 0.08 0.08 0.08 0.08 0.08 0.08 0.08 0.09 0.08 0.06 0.05 0.03 0.02 0.01 0.01 0.00 0.00 0.00 0.00 0.00 0.00 0.00 0.00 0.00 0.00 0.00 0.00 0.00 0.00 0.00 0.00 0.00 0.00 0.00 0.00 0.00 0.00 0.00 0.00 0.01 0.01
0.07 0.07 0.07 0.08 0.08 0.08 0.08 0.08 0.07 0.06 0.04 0.03 0.03 0.02 0.01 0.01 0.00 0.00 0.00 0.00 0.00 0.00 0.00 0.00 0.00 0.00 0.00 0.00 0.00 0.00 0.00 0.00 0.00 0.00 0.00 0.00 0.00 0.00 0.00 0.00 0.00 0.01 0.01
0.04 0.04 0.04 0.04 0.04 0.04 0.03 0.02 0.02 0.02 0.01 0.01 0.01 0.01 0.01 0.00 0.00 0.00 0.00 0.00 0.00 0.00 0.00 0.00 0.00 0.00 0.00 0.00 0.00 0.00 0.00 0.00 0.00 0.00 0.00 0.00 0.00 0.00 0.00 0.00 0.00 0.00 0.00
0.01 0.01 0.01 0.01 0.01 0.01 0.01 0.01 0.01 0.00 0.00 0.00 0.00 0.00 0.00 0.00 0.00 0.00 0.00 0.00 0.00 0.00 0.00 0.00 0.00 0.00 0.00 0.00 0.00 0.00 0.00 0.00 0.00 0.00 0.00 0.00 0.00 0.00 0.00 0.00 0.00 0.00 0.00
0.01 0.01 0.01 0.01 0.01 0.00 0.00 0.00 0.00 0.00 0.00 0.00 0.00 0.00 0.00 0.00 0.00 0.00 0.00 0.00 0.00 0.00 0.00 0.00 0.00 0.00 0.00 0.00 0.00 0.00 0.00 0.00 0.00 0.00 0.00 0.00 0.00 0.00 0.00 0.00 0.00 0.00 0.00
0.00 0.01 0.00 0.00 0.00 0.00 0.00 0.00 0.00 0.00 0.00 0.00 0.00 0.00 0.00 0.00 0.01 0.01 0.01 0.00 0.00 0.00 0.00 0.00 0.00 0.00 0.00 0.00 0.00 0.00 0.00 0.00 0.00 0.00 0.00 0.00 0.00 0.00 0.00 0.00 0.00 0.00 0.00
0.00 0.00 0.00 0.00 0.00 0.00 0.00 0.00 0.00 0.00 0.00 0.00 0.00 0.00 0.00 0.00 0.00 0.00 0.00 0.00 0.00 0.00 0.00 0.00 0.00 0.00 0.00 0.00 0.00 0.00 0.01 0.00 0.00 0.00 0.00 0.00 0.00 0.00 0.00 0.00 0.00 0.00 0.00
0.00 0.00 0.00 0.00 0.00 0.00 0.00 0.00 0.00 0.00 0.00 0.00 0.00 0.00 0.00 0.00 0.00 0.00 0.00 0.00 0.00 0.00 0.00 0.00 0.00 0.00 0.00 0.00 0.00 0.01 0.01 0.01 0.01 0.01 0.01 0.00 0.00 0.00 0.00 0.00 0.00 0.00 0.00
0.00 0.00 0.00 0.00 0.00 0.00 0.00 0.00 0.00 0.00 0.00 0.00 0.00 0.00 0.00 0.00 0.00 0.00 0.00 0.00 0.00 0.00 0.00 0.00 0.00 0.00 0.00 0.00 0.01 0.01 0.01 0.02 0.01 0.01 0.01 0.00 0.00 0.00 0.00 0.00 0.00 0.00 0.00
0.00 0.00 0.00 0.00 0.00 0.00 0.00 0.00 0.00 0.00 0.00 0.00 0.00 0.00 0.00 0.00 0.00 0.00 0.00 0.00 0.00 0.00 0.00 0.00 0.00 0.00 0.01 0.01 0.01 0.01 0.02 0.02 0.02 0.01 0.01 0.00 0.00 0.00 0.00 0.00 0.00 0.00 0.00
0.00 0.00 0.00 0.00 0.00 0.00 0.00 0.00 0.00 0.00 0.00 0.00 0.00 0.00 0.00 0.00 0.00 0.01 0.01 0.01 0.01 0.01 0.01 0.01 0.01 0.01 0.01 0.02 0.02 0.01 0.02 0.02 0.02 0.02 0.01 0.01 0.00 0.01 0.01 0.00 0.00 0.00 0.00

GEFSMA_prec_meanprec_084.txt.gz
QPF
0.00 0.01 0.01 0.01 0.02 0.03 0.04 0.04 0.04 0.02 0.01 0.01 0.01 0.01 0.01 0.01 0.00 0.00 0.02 0.03 0.03 0.04 0.06 0.08 0.09 0.07 0.06 0.06 0.06 0.06 0.05 0.05 0.04 0.04 0.03 0.03 0.03 0.02 0.02 0.02 0.02 0.01 0.01
0.01 0.01 0.01 0.02 0.03 0.05 0.07 0.06 0.05 0.03 0.03 0.03 0.03 0.02 0.02 0.01 0.01 0.01 0.02 0.03 0.02 0.03 0.04 0.07 0.08 0.08 0.06 0.05 0.06 0.06 0.05 0.05 0.05 0.04 0.03 0.02 0.02 0.01 0.01 0.01 0.01 0.01 0.01
0.01 0.02 0.02 0.02 0.03 0.05 0.07 0.08 0.07 0.04 0.03 0.03 0.03 0.02 0.02 0.02 0.01 0.01 0.03 0.03 0.03 0.04 0.04 0.06 0.07 0.08 0.07 0.07 0.07 0.06 0.05 0.06 0.06 0.04 0.03 0.02 0.02 0.02 0.01 0.01 0.01 0.01 0.02
0.03 0.05 0.05 0.05 0.05 0.07 0.09 0.11 0.09 0.07 0.06 0.06 0.05 0.03 0.03 0.03 0.02 0.02 0.03 0.04 0.06 0.06 0.06 0.05 0.06 0.07 0.07 0.07 0.07 0.07 0.07 0.06 0.06 0.05 0.03 0.03 0.02 0.02 0.02 0.02 0.02 0.02 0.02
0.06 0.08 0.10 0.10 0.10 0.10 0.11 0.13 0.13 0.11 0.09 0.08 0.07 0.04 0.03 0.03 0.03 0.03 0.03 0.05 0.05 0.05 0.05 0.05 0.05 0.05 0.05 0.05 0.05 0.05 0.06 0.06 0.06 0.05 0.04 0.03 0.02 0.02 0.02 0.02 0.02 0.01 0.01
0.10 0.12 0.14 0.15 0.15 0.13 0.12 0.13 0.14 0.14 0.12 0.10 0.07 0.05 0.05 0.03 0.03 0.04 0.05 0.05 0.04 0.04 0.03 0.03 0.04 0.04 0.03 0.02 0.03 0.03 0.05 0.05 0.04 0.04 0.04 0.04 0.03 0.03 0.02 0.02 0.02 0.02 0.02
0.19 0.20 0.21 0.21 0.18 0.16 0.15 0.14 0.13 0.13 0.13 0.13 0.12 0.10 0.07 0.05 0.04 0.04 0.04 0.04 0.04 0.03 0.02 0.02 0.03 0.03 0.03 0.03 0.02 0.03 0.03 0.04 0.04 0.04 0.05 0.05 0.05 0.04 0.03 0.02 0.01 0.01 0.01
0.25 0.26 0.27 0.28 0.27 0.24 0.20 0.17 0.15 0.13 0.13 0.13 0.13 0.13 0.11 0.08 0.05 0.03 0.03 0.03 0.03 0.03 0.02 0.02 0.03 0.03 0.02 0.02 0.02 0.02 0.02 0.03 0.03 0.04 0.05 0.05 0.05 0.05 0.04 0.04 0.03 0.02 0.01
0.25 0.26 0.30 0.33 0.30 0.27 0.23 0.21 0.17 0.15 0.13 0.11 0.11 0.13 0.13 0.11 0.07 0.04 0.03 0.02 0.02 0.02 0.02 0.02 0.01 0.02 0.02 0.01 0.02 0.02 0.02 0.03 0.04 0.04 0.04 0.04 0.05 0.05 0.05 0.05 0.05 0.04 0.03
0.30 0.31 0.36 0.39 0.38 0.31 0.23 0.17 0.14 0.13 0.14 0.14 0.13 0.11 0.08 0.07 0.06 0.05 0.03 0.02 0.02 0.02 0.02 0.02 0.02 0.02 0.01 0.01 0.01 0.02 0.02 0.02 0.02 0.03 0.04 0.04 0.03 0.04 0.05 0.05 0.05 0.05 0.05
0.32 0.34 0.38 0.38 0.33 0.29 0.23 0.18 0.14 0.13 0.12 0.11 0.10 0.09 0.07 0.05 0.04 0.04 0.03 0.02 0.02 0.02 0.02 0.02 0.02 0.02 0.02 0.01 0.01 0.02 0.02 0.02 0.02 0.02 0.03 0.03 0.03 0.03 0.03 0.04 0.04 0.05 0.05
0.33 0.33 0.31 0.28 0.23 0.20 0.16 0.13 0.12 0.11 0.10 0.08 0.07 0.06 0.04 0.04 0.04 0.04 0.04 0.03 0.03 0.02 0.02 0.02 0.02 0.02 0.02 0.02 0.02 0.02 0.02 0.02 0.02 0.02 0.02 0.02 0.02 0.02 0.02 0.02 0.03 0.04 0.05
0.29 0.26 0.22 0.20 0.18 0.17 0.14 0.11 0.09 0.08 0.07 0.06 0.05 0.04 0.04 0.04 0.04 0.04 0.05 0.05 0.05 0.04 0.03 0.03 0.02 0.02 0.02 0.02 0.02 0.03 0.02 0.02 0.02 0.02 0.02 0.02 0.02 0.02 0.01 0.01 0.01 0.02 0.02
0.19 0.15 0.15 0.14 0.11 0.09 0.08 0.07 0.07 0.07 0.06 0.05 0.04 0.03 0.03 0.04 0.04 0.05 0.05 0.05 0.05 0.05 0.04 0.03 0.02 0.01 0.01 0.01 0.01 0.01 0.01 0.01 0.01 0.01 0.01 0.01 0.01 0.01 0.01 0.01 0.01 0.01 0.01
0.16 0.13 0.12 0.11 0.09 0.07 0.05 0.04 0.04 0.04 0.04 0.04 0.05 0.05 0.05 0.05 0.06 0.06 0.06 0.06 0.05 0.04 0.03 0.02 0.01 0.01 0.01 0.01 0.01 0.01 0.01 0.01 0.01 0.01 0.01 0.01 0.01 0.01 0.01 0.01 0.00 0.01 0.01
0.15 0.15 0.14 0.13 0.11 0.08 0.06 0.04 0.03 0.03 0.03 0.04 0.04 0.04 0.03 0.03 0.03 0.03 0.03 0.03 0.02 0.03 0.03 0.02 0.01 0.01 0.01 0.01 0.01 0.01 0.01 0.01 0.01 0.01 0.01 0.01 0.01 0.01 0.01 0.01 0.01 0.01 0.01
0.14 0.13 0.11 0.09 0.08 0.06 0.05 0.03 0.02 0.02 0.02 0.02 0.01 0.01 0.02 0.02 0.02 0.02 0.01 0.01 0.02 0.02 0.02 0.02 0.02 0.01 0.02 0.01 0.01 0.01 0.01 0.01 0.01 0.01 0.00 0.01 0.01 0.01 0.01 0.01 0.01 0.01 0.01
0.12 0.10 0.08 0.07 0.05 0.03 0.02 0.02 0.01 0.01 0.01 0.01 0.01 0.01 0.01 0.01 0.01 0.01 0.01 0.01 0.01 0.01 0.02 0.02 0.01 0.01 0.01 0.01 0.01 0.01 0.01 0.00 0.01 0.00 0.00 0.00 0.00 0.00 0.00 0.00 0.00 0.00 0.00
0.07 0.05 0.03 0.02 0.01 0.01 0.01 0.00 0.00 0.00 0.00 0.00 0.00 0.00 0.00 0.01 0.01 0.01 0.02 0.02 0.02 0.02 0.02 0.02 0.02 0.02 0.01 0.01 0.01 0.02 0.02 0.02 0.01 0.00 0.00 0.00 0.00 0.00 0.00 0.00 0.00 0.00 0.00
0.02 0.01 0.00 0.00 0.00 0.00 0.00 0.00 0.00 0.00 0.00 0.00 0.00 0.00 0.00 0.01 0.02 0.02 0.02 0.03 0.03 0.03 0.03 0.03 0.03 0.02 0.02 0.02 0.03 0.03 0.03 0.03 0.02 0.01 0.01 0.01 0.01 0.00 0.00 0.00 0.00 0.00 0.00
0.01 0.01 0.00 0.00 0.00 0.00 0.00 0.00 0.00 0.00 0.00 0.00 0.00 0.00 0.00 0.01 0.01 0.01 0.01 0.02 0.03 0.03 0.03 0.03 0.03 0.03 0.03 0.04 0.04 0.03 0.03 0.02 0.02 0.02 0.03 0.03 0.03 0.03 0.03 0.02 0.01 0.00 0.00
0.01 0.01 0.00 0.00 0.00 0.00 0.00 0.00 0.00 0.00 0.00 0.00 0.00 0.01 0.01 0.00 0.00 0.00 0.00 0.00 0.01 0.02 0.02 0.02 0.03 0.04 0.04 0.04 0.04 0.03 0.03 0.03 0.02 0.02 0.02 0.02 0.02 0.03 0.04 0.03 0.01 0.00 0.00
0.01 0.01 0.00 0.00 0.00 0.00 0.00 0.00 0.00 0.00 0.00 0.01 0.01 0.01 0.01 0.01 0.01 0.01 0.01 0.01 0.02 0.01 0.01 0.02 0.04 0.04 0.04 0.04 0.04 0.03 0.04 0.04 0.04 0.03 0.03 0.02 0.03 0.04 0.03 0.01 0.00 0.00 0.00
0.01 0.01 0.00 0.00 0.00 0.00 0.00 0.00 0.00 0.00 0.00 0.00 0.01 0.01 0.01 0.02 0.01 0.00 0.01 0.02 0.03 0.03 0.02 0.02 0.03 0.03 0.02 0.03 0.03 0.03 0.04 0.03 0.03 0.04 0.04 0.03 0.03 0.03 0.03 0.03 0.01 0.00 0.00
0.01 0.00 0.00 0.00 0.01 0.00 0.00 0.00 0.00 0.00 0.00 0.00 0.01 0.01 0.01 0.02 0.01 0.00 0.01 0.03 0.03 0.04 0.01 0.01 0.01 0.01 0.01 0.01 0.01 0.03 0.04 0.05 0.04 0.04 0.04 0.04 0.04 0.03 0.03 0.04 0.03 0.00 0.00
0.00 0.00 0.00 0.00 0.00 0.00 0.00 0.00 0.00 0.00 0.00 0.01 0.01 0.02 0.01 0.00 0.00 0.00 0.01 0.03 0.03 0.03 0.03 0.03 0.04 0.04 0.04 0.03 0.02 0.03 0.04 0.04 0.05 0.05 0.04 0.04 0.04 0.03 0.03 0.02 0.03 0.03 0.03

GEFSMA_prec_meanprec_090.txt.gz
QPF
0.04 0.04 0.03 0.04 0.03 0.04 0.05 0.05 0.04 0.04 0.04 0.02 0.01 0.01 0.01 0.00 0.00 0.02 0.04 0.03 0.02 0.01 0.02 0.03 0.05 0.05 0.05 0.05 0.06 0.06 0.06 0.05 0.05 0.05 0.04 0.03 0.03 0.03 0.03 0.02 0.02 0.02 0.01
0.04 0.04 0.04 0.05 0.03 0.03 0.05 0.04 0.04 0.05 0.03 0.03 0.02 0.01 0.01 0.01 0.02 0.03 0.06 0.08 0.05 0.02 0.02 0.03 0.05 0.05 0.06 0.06 0.06 0.06 0.06 0.06 0.06 0.06 0.04 0.04 0.03 0.03 0.03 0.03 0.03 0.02 0.02
0.05 0.05 0.06 0.07 0.05 0.05 0.05 0.03 0.03 0.04 0.04 0.03 0.02 0.02 0.02 0.03 0.04 0.04 0.06 0.10 0.09 0.04 0.03 0.04 0.05 0.06 0.07 0.07 0.07 0.06 0.06 0.07 0.07 0.06 0.05 0.04 0.03 0.03 0.02 0.02 0.02 0.02 0.02
0.05 0.08 0.09 0.09 0.09 0.08 0.07 0.07 0.06 0.07 0.08 0.07 0.05 0.05 0.04 0.04 0.04 0.04 0.03 0.05 0.07 0.08 0.08 0.07 0.06 0.06 0.07 0.08 0.08 0.08 0.08 0.07 0.07 0.06 0.05 0.04 0.03 0.02 0.02 0.02 0.01 0.01 0.01
0.09 0.11 0.12 0.12 0.11 0.09 0.09 0.07 0.11 0.11 0.12 0.11 0.08 0.09 0.06 0.06 0.06 0.05 0.05 0.06 0.08 0.11 0.13 0.11 0.08 0.07 0.07 0.07 0.08 0.09 0.09 0.09 0.08 0.07 0.06 0.06 0.05 0.04 0.03 0.02 0.01 0.01 0.01
0.09 0.12 0.13 0.11 0.10 0.10 0.10 0.10 0.12 0.13 0.14 0.14 0.10 0.09 0.07 0.06 0.07 0.10 0.09 0.06 0.05 0.06 0.09 0.10 0.10 0.11 0.10 0.08 0.07 0.07 0.08 0.09 0.09 0.08 0.08 0.07 0.06 0.04 0.03 0.03 0.02 0.02 0.01
0.10 0.12 0.13 0.14 0.14 0.13 0.11 0.11 0.12 0.12 0.13 0.15 0.15 0.13 0.10 0.09 0.09 0.10 0.08 0.07 0.05 0.05 0.06 0.09 0.11 0.11 0.10 0.08 0.06 0.05 0.06 0.07 0.09 0.09 0.09 0.08 0.06 0.05 0.05 0.05 0.04 0.04 0.03
0.14 0.15 0.17 0.17 0.15 0.15 0.12 0.13 0.13 0.14 0.14 0.15 0.14 0.13 0.13 0.11 0.08 0.07 0.07 0.06 0.07 0.06 0.06 0.06 0.07 0.07 0.07 0.07 0.06 0.04 0.04 0.04 0.05 0.06 0.06 0.07 0.08 0.08 0.08 0.07 0.07 0.07 0.07
0.14 0.14 0.13 0.13 0.12 0.12 0.12 0.13 0.13 0.14 0.13 0.13 0.13 0.13 0.13 0.14 0.12 0.09 0.08 0.07 0.07 0.06 0.05 0.04 0.04 0.05 0.05 0.06 0.07 0.06 0.06 0.05 0.05 0.06 0.07 0.07 0.07 0.08 0.07 0.08 0.09 0.09 0.10
0.12 0.13 0.13 0.13 0.12 0.13 0.14 0.13 0.12 0.12 0.12 0.12 0.11 0.10 0.11 0.11 0.12 0.11 0.10 0.09 0.08 0.06 0.05 0.04 0.04 0.05 0.06 0.07 0.09 0.10 0.09 0.08 0.07 0.06 0.07 0.08 0.08 0.08 0.07 0.07 0.08 0.09 0.09
0.13 0.13 0.12 0.13 0.15 0.15 0.15 0.16 0.15 0.13 0.12 0.13 0.12 0.12 0.12 0.12 0.11 0.12 0.11 0.08 0.06 0.05 0.04 0.05 0.05 0.05 0.05 0.06 0.05 0.06 0.06 0.06 0.05 0.05 0.04 0.05 0.07 0.09 0.11 0.11 0.10 0.09 0.10
0.17 0.17 0.18 0.19 0.18 0.16 0.14 0.12 0.10 0.10 0.11 0.12 0.12 0.13 0.13 0.12 0.11 0.11 0.10 0.07 0.06 0.05 0.04 0.05 0.05 0.05 0.05 0.05 0.05 0.05 0.04 0.04 0.04 0.04 0.05 0.05 0.05 0.08 0.10 0.11 0.11 0.10 0.11
0.16 0.16 0.15 0.13 0.13 0.13 0.10 0.08 0.06 0.05 0.06 0.07 0.08 0.09 0.08 0.08 0.08 0.08 0.08 0.07 0.06 0.04 0.04 0.03 0.03 0.03 0.03 0.03 0.04 0.04 0.04 0.04 0.04 0.04 0.04 0.04 0.04 0.05 0.07 0.07 0.07 0.07 0.08
0.14 0.12 0.10 0.08 0.07 0.07 0.06 0.06 0.05 0.05 0.06 0.07 0.07 0.08 0.08 0.07 0.06 0.06 0.06 0.06 0.05 0.04 0.03 0.03 0.03 0.03 0.03 0.03 0.04 0.03 0.02 0.03 0.02 0.02 0.02 0.02 0.02 0.02 0.03 0.04 0.04 0.05 0.05
0.11 0.10 0.09 0.08 0.07 0.06 0.06 0.06 0.07 0.07 0.08 0.08 0.08 0.08 0.08 0.07 0.05 0.04 0.03 0.03 0.03 0.04 0.04 0.04 0.03 0.02 0.02 0.02 0.02 0.02 0.01 0.02 0.02 0.02 0.02 0.02 0.02 0.02 0.03 0.03 0.03 0.03 0.03
0.10 0.09 0.08 0.07 0.07 0.07 0.08 0.08 0.09 0.09 0.09 0.08 0.07 0.06 0.05 0.04 0.04 0.03 0.03 0.03 0.03 0.03 0.03 0.03 0.03 0.02 0.02 0.01 0.01 0.01 0.01 0.01 0.01 0.01 0.01 0.01 0.01 0.02 0.02 0.04 0.05 0.05 0.05
0.05 0.06 0.07 0.07 0.07 0.08 0.08 0.08 0.08 0.07 0.06 0.05 0.04 0.03 0.02 0.02 0.02 0.01 0.01 0.02 0.02 0.02 0.03 0.02 0.02 0.02 0.02 0.02 0.02 0.02 0.01 0.01 0.01 0.01 0.01 0.01 0.01 0.01 0.01 0.01 0.02 0.03 0.03
0.04 0.05 0.05 0.05 0.05 0.05 0.05 0.05 0.05 0.04 0.04 0.03 0.02 0.02 0.01 0.01 0.01 0.01 0.01 0.01 0.02 0.02 0.02 0.02 0.02 0.02 0.02 0.02 0.03 0.03 0.01 0.01 0.01 0.01 0.01 0.01 0.00 0.00 0.00 0.00 0.00 0.01 0.01
0.03 0.03 0.03 0.03 0.03 0.03 0.03 0.03 0.03 0.02 0.02 0.02 0.01 0.01 0.01 0.01 0.01 0.01 0.02 0.02 0.02 0.01 0.02 0.02 0.02 0.02 0.02 0.02 0.02 0.02 0.02 0.03 0.01 0.00 0.00 0.01 0.01 0.00 0.00 0.00 0.00 0.00 0.00
0.01 0.01 0.01 0.01 0.01 0.01 0.01 0.01 0.01 0.01 0.01 0.01 0.01 0.01 0.01 0.01 0.01 0.01 0.01 0.01 0.01 0.02 0.02 0.03 0.03 0.03 0.03 0.03 0.03 0.03 0.03 0.03 0.02 0.01 0.02 0.01 0.01 0.01 0.01 0.01 0.00 0.00 0.00
0.01 0.01 0.01 0.01 0.01 0.00 0.00 0.01 0.01 0.01 0.01 0.01 0.01 0.01 0.01 0.00 0.00 0.00 0.00 0.00 0.01 0.01 0.02 0.02 0.03 0.03 0.03 0.03 0.04 0.03 0.03 0.02 0.03 0.03 0.03 0.02 0.03 0.04 0.05 0.04 0.02 0.01 0.01
0.01 0.01 0.01 0.01 0.01 0.00 0.00 0.00 0.00 0.00 0.01 0.01 0.01 0.02 0.01 0.01 0.00 0.00 0.00 0.00 0.00 0.00 0.01 0.01 0.02 0.03 0.03 0.04 0.04 0.03 0.02 0.03 0.02 0.02 0.02 0.01 0.02 0.03 0.04 0.04 0.02 0.01 0.00
0.02 0.02 0.02 0.02 0.01 0.00 0.00 0.00 0.00 0.00 0.01 0.01 0.01 0.02 0.02 0.01 0.01 0.02 0.01 0.01 0.02 0.01 0.01 0.01 0.02 0.04 0.03 0.04 0.03 0.02 0.03 0.03 0.03 0.03 0.03 0.02 0.03 0.03 0.03 0.01 0.00 0.00 0.00
0.02 0.02 0.02 0.02 0.01 0.00 0.00 0.00 0.00 0.00 0.01 0.01 0.01 0.02 0.03 0.03 0.01 0.00 0.00 0.02 0.05 0.05 0.02 0.01 0.03 0.03 0.02 0.01 0.01 0.01 0.02 0.03 0.03 0.04 0.04 0.03 0.03 0.03 0.03 0.04 0.01 0.00 0.00
0.02 0.02 0.01 0.02 0.02 0.01 0.00 0.00 0.00 0.01 0.02 0.02 0.02 0.02 0.01 0.02 0.00 0.00 0.01 0.03 0.05 0.06 0.02 0.00 0.00 0.00 0.00 0.00 0.00 0.01 0.02 0.04 0.05 0.05 0.05 0.03 0.03 0.03 0.03 0.05 0.03 0.01 0.00
0.02 0.01 0.01 0.02 0.02 0.01 0.00 0.00 0.00 0.00 0.01 0.03 0.05 0.05 0.02 0.00 0.00 0.00 0.01 0.03 0.04 0.03 0.02 0.03 0.05 0.06 0.06 0.05 0.02 0.01 0.04 0.05 0.06 0.05 0.05 0.04 0.04 0.04 0.02 0.02 0.03 0.04 0.04

GEFSMA_prec_meanprec_096.txt.gz
QPF
0.11 0.08 0.07 0.04 0.03 0.03 0.03 0.02 0.02 0.01 0.01 0.02 0.04 0.04 0.03 0.05 0.05 0.04 0.06 0.08 0.07 0.08 0.09 0.09 0.08 0.09 0.08 0.06 0.05 0.05 0.05 0.04 0.04 0.04 0.03 0.02 0.02 0.02 0.03 0.03 0.03 0.02 0.02
0.05 0.05 0.05 0.04 0.04 0.04 0.07 0.04 0.04 0.04 0.03 0.03 0.04 0.04 0.05 0.06 0.07 0.10 0.10 0.09 0.09 0.09 0.10 0.09 0.08 0.07 0.07 0.08 0.06 0.06 0.06 0.06 0.06 0.05 0.04 0.03 0.03 0.03 0.03 0.03 0.03 0.03 0.03
0.05 0.06 0.05 0.04 0.03 0.04 0.07 0.04 0.03 0.06 0.06 0.04 0.04 0.05 0.05 0.06 0.07 0.11 0.13 0.12 0.12 0.12 0.11 0.09 0.09 0.09 0.10 0.10 0.09 0.08 0.07 0.07 0.06 0.06 0.05 0.05 0.05 0.04 0.03 0.03 0.04 0.04 0.03
0.06 0.06 0.04 0.04 0.03 0.03 0.04 0.04 0.04 0.04 0.04 0.04 0.03 0.03 0.05 0.06 0.07 0.11 0.13 0.12 0.13 0.11 0.10 0.10 0.11 0.11 0.11 0.11 0.12 0.14 0.12 0.10 0.09 0.08 0.08 0.08 0.06 0.05 0.04 0.04 0.03 0.03 0.03
0.10 0.09 0.06 0.05 0.05 0.05 0.05 0.05 0.04 0.04 0.03 0.03 0.03 0.03 0.04 0.06 0.07 0.11 0.15 0.18 0.17 0.15 0.15 0.16 0.13 0.10 0.10 0.11 0.11 0.11 0.11 0.11 0.11 0.11 0.11 0.11 0.09 0.07 0.06 0.05 0.05 0.04 0.03
0.11 0.10 0.08 0.07 0.08 0.06 0.05 0.05 0.04 0.03 0.03 0.03 0.03 0.03 0.05 0.07 0.09 0.09 0.14 0.16 0.13 0.12 0.11 0.10 0.08 0.07 0.07 0.09 0.10 0.10 0.11 0.10 0.10 0.10 0.12 0.12 0.10 0.08 0.07 0.07 0.06 0.05 0.04
0.12 0.11 0.10 0.08 0.09 0.08 0.07 0.07 0.06 0.04 0.03 0.04 0.04 0.04 0.03 0.04 0.06 0.06 0.08 0.08 0.08 0.09 0.08 0.07 0.07 0.07 0.07 0.09 0.09 0.10 0.12 0.13 0.12 0.13 0.13 0.13 0.12 0.11 0.09 0.07 0.06 0.06 0.05
0.15 0.16 0.15 0.12 0.10 0.08 0.07 0.06 0.06 0.05 0.06 0.06 0.07 0.06 0.04 0.03 0.03 0.03 0.04 0.05 0.06 0.07 0.08 0.07 0.07 0.07 0.07 0.08 0.11 0.13 0.13 0.14 0.14 0.14 0.13 0.13 0.11 0.10 0.10 0.11 0.11 0.10 0.09
0.16 0.16 0.14 0.13 0.12 0.10 0.08 0.08 0.08 0.08 0.07 0.07 0.08 0.08 0.06 0.04 0.03 0.02 0.03 0.04 0.04 0.05 0.06 0.06 0.05 0.05 0.06 0.06 0.08 0.10 0.11 0.11 0.13 0.14 0.14 0.14 0.12 0.12 0.13 0.14 0.15 0.14 0.13
0.15 0.14 0.15 0.16 0.15 0.13 0.12 0.12 0.11 0.09 0.08 0.07 0.06 0.06 0.05 0.04 0.03 0.02 0.02 0.03 0.04 0.05 0.06 0.06 0.06 0.06 0.07 0.07 0.07 0.08 0.08 0.07 0.08 0.10 0.12 0.13 0.14 0.14 0.14 0.16 0.17 0.17 0.17
0.16 0.16 0.16 0.16 0.15 0.15 0.14 0.13 0.12 0.11 0.10 0.10 0.08 0.06 0.05 0.04 0.04 0.04 0.04 0.03 0.04 0.05 0.04 0.04 0.04 0.04 0.05 0.06 0.06 0.08 0.08 0.07 0.08 0.09 0.10 0.12 0.13 0.14 0.16 0.18 0.21 0.23 0.23
0.14 0.14 0.14 0.14 0.16 0.18 0.17 0.14 0.10 0.09 0.08 0.07 0.06 0.06 0.05 0.04 0.04 0.05 0.04 0.04 0.04 0.04 0.04 0.04 0.04 0.04 0.04 0.05 0.06 0.08 0.07 0.07 0.07 0.08 0.08 0.08 0.09 0.09 0.10 0.12 0.17 0.20 0.22
0.14 0.14 0.13 0.13 0.14 0.16 0.17 0.15 0.13 0.10 0.08 0.07 0.07 0.07 0.08 0.07 0.06 0.05 0.05 0.05 0.05 0.05 0.05 0.05 0.04 0.03 0.03 0.03 0.04 0.04 0.03 0.03 0.04 0.04 0.04 0.05 0.05 0.06 0.06 0.07 0.09 0.11 0.14
0.11 0.10 0.10 0.10 0.08 0.08 0.07 0.06 0.07 0.08 0.07 0.08 0.08 0.09 0.09 0.08 0.07 0.06 0.06 0.06 0.07 0.06 0.06 0.05 0.03 0.02 0.02 0.02 0.02 0.02 0.01 0.02 0.02 0.03 0.03 0.04 0.04 0.05 0.05 0.06 0.05 0.05 0.06
0.07 0.06 0.05 0.06 0.06 0.05 0.05 0.06 0.06 0.06 0.06 0.07 0.08 0.09 0.08 0.07 0.06 0.05 0.04 0.04 0.04 0.04 0.05 0.04 0.03 0.02 0.02 0.01 0.01 0.01 0.01 0.01 0.01 0.02 0.02 0.03 0.03 0.04 0.05 0.05 0.05 0.04 0.04
0.04 0.03 0.03 0.03 0.03 0.03 0.03 0.04 0.05 0.06 0.07 0.06 0.06 0.05 0.04 0.03 0.03 0.02 0.02 0.02 0.02 0.03 0.03 0.03 0.03 0.02 0.01 0.01 0.01 0.01 0.01 0.01 0.01 0.01 0.01 0.01 0.01 0.02 0.02 0.02 0.02 0.02 0.03
0.03 0.03 0.02 0.02 0.02 0.02 0.02 0.03 0.03 0.03 0.03 0.03 0.03 0.02 0.02 0.02 0.01 0.01 0.02 0.01 0.02 0.02 0.02 0.02 0.02 0.01 0.01 0.01 0.01 0.01 0.00 0.00 0.00 0.00 0.00 0.00 0.00 0.00 0.01 0.01 0.01 0.01 0.01
0.03 0.02 0.02 0.01 0.01 0.01 0.01 0.01 0.01 0.01 0.01 0.01 0.01 0.01 0.01 0.01 0.02 0.01 0.01 0.01 0.01 0.01 0.01 0.01 0.01 0.01 0.01 0.00 0.00 0.00 0.00 0.00 0.00 0.00 0.00 0.00 0.00 0.00 0.01 0.01 0.00 0.00 0.00
0.01 0.01 0.01 0.01 0.01 0.01 0.01 0.01 0.01 0.01 0.01 0.01 0.01 0.01 0.01 0.01 0.01 0.01 0.01 0.01 0.01 0.00 0.00 0.00 0.00 0.00 0.00 0.00 0.00 0.00 0.00 0.00 0.00 0.00 0.00 0.00 0.00 0.00 0.00 0.00 0.00 0.00 0.00
0.00 0.00 0.00 0.00 0.00 0.00 0.00 0.00 0.00 0.00 0.00 0.00 0.00 0.00 0.00 0.01 0.01 0.01 0.01 0.01 0.01 0.00 0.00 0.00 0.00 0.00 0.00 0.00 0.00 0.00 0.00 0.00 0.00 0.00 0.00 0.00 0.00 0.00 0.00 0.00 0.00 0.00 0.00
0.01 0.01 0.01 0.00 0.00 0.00 0.00 0.00 0.00 0.00 0.00 0.00 0.00 0.00 0.00 0.00 0.00 0.00 0.00 0.00 0.00 0.00 0.00 0.00 0.00 0.00 0.00 0.00 0.00 0.00 0.00 0.00 0.00 0.00 0.00 0.00 0.00 0.00 0.00 0.00 0.00 0.00 0.00
0.01 0.00 0.00 0.00 0.00 0.00 0.00 0.00 0.00 0.00 0.00 0.00 0.00 0.00 0.00 0.00 0.00 0.00 0.00 0.00 0.00 0.00 0.00 0.00 0.00 0.00 0.00 0.00 0.00 0.00 0.00 0.00 0.00 0.00 0.00 0.00 0.00 0.00 0.00 0.00 0.00 0.00 0.00
0.00 0.00 0.00 0.00 0.00 0.00 0.00 0.00 0.00 0.00 0.00 0.00 0.00 0.00 0.00 0.00 0.00 0.00 0.00 0.00 0.00 0.00 0.00 0.00 0.00 0.00 0.00 0.00 0.00 0.00 0.00 0.00 0.00 0.00 0.00 0.00 0.00 0.00 0.00 0.00 0.00 0.00 0.00
0.00 0.00 0.00 0.00 0.00 0.00 0.00 0.00 0.00 0.00 0.00 0.00 0.00 0.00 0.00 0.00 0.00 0.00 0.00 0.00 0.00 0.00 0.00 0.00 0.00 0.00 0.00 0.00 0.00 0.00 0.00 0.00 0.00 0.00 0.00 0.00 0.00 0.00 0.00 0.00 0.00 0.00 0.00
0.00 0.00 0.00 0.00 0.00 0.00 0.00 0.00 0.00 0.00 0.00 0.00 0.00 0.00 0.00 0.00 0.00 0.00 0.00 0.00 0.00 0.00 0.00 0.00 0.00 0.00 0.00 0.00 0.00 0.00 0.00 0.00 0.00 0.00 0.00 0.00 0.00 0.00 0.00 0.00 0.00 0.00 0.00
0.00 0.00 0.00 0.00 0.00 0.00 0.00 0.00 0.00 0.00 0.00 0.00 0.00 0.00 0.00 0.00 0.00 0.00 0.00 0.00 0.00 0.00 0.00 0.00 0.00 0.00 0.00 0.00 0.00 0.00 0.00 0.00 0.00 0.00 0.00 0.00 0.00 0.00 0.00 0.00 0.00 0.00 0.00

GEFSMA_prec_meanprec_102.txt.gz
QPF
0.01 0.01 0.02 0.02 0.02 0.02 0.01 0.01 0.01 0.01 0.01 0.01 0.01 0.01 0.01 0.01 0.01 0.02 0.02 0.04 0.05 0.06 0.08 0.11 0.12 0.11 0.10 0.09 0.09 0.08 0.08 0.08 0.08 0.08 0.07 0.06 0.05 0.05 0.04 0.04 0.03 0.03 0.03
0.03 0.03 0.03 0.02 0.01 0.01 0.02 0.02 0.02 0.02 0.02 0.01 0.02 0.02 0.02 0.02 0.03 0.04 0.03 0.04 0.06 0.07 0.10 0.13 0.14 0.12 0.12 0.12 0.11 0.10 0.10 0.10 0.09 0.08 0.07 0.07 0.07 0.06 0.05 0.05 0.04 0.04 0.04
0.05 0.05 0.05 0.04 0.04 0.04 0.04 0.05 0.06 0.06 0.04 0.03 0.03 0.02 0.03 0.04 0.04 0.04 0.04 0.05 0.05 0.07 0.11 0.13 0.13 0.13 0.14 0.14 0.13 0.13 0.13 0.12 0.11 0.10 0.09 0.09 0.09 0.09 0.08 0.06 0.06 0.05 0.05
0.08 0.07 0.07 0.06 0.06 0.07 0.09 0.09 0.08 0.06 0.05 0.05 0.04 0.03 0.04 0.04 0.04 0.04 0.04 0.03 0.04 0.05 0.07 0.08 0.11 0.13 0.13 0.13 0.14 0.13 0.12 0.12 0.12 0.11 0.11 0.12 0.13 0.12 0.10 0.09 0.08 0.07 0.06
0.11 0.10 0.10 0.09 0.09 0.10 0.10 0.09 0.08 0.06 0.05 0.05 0.05 0.05 0.04 0.04 0.04 0.04 0.04 0.04 0.04 0.05 0.06 0.08 0.12 0.14 0.13 0.14 0.14 0.13 0.13 0.15 0.15 0.14 0.13 0.12 0.12 0.11 0.10 0.10 0.09 0.09 0.08
0.17 0.16 0.13 0.13 0.14 0.14 0.12 0.10 0.08 0.06 0.05 0.07 0.08 0.05 0.04 0.04 0.04 0.04 0.05 0.05 0.05 0.05 0.05 0.05 0.07 0.09 0.10 0.11 0.12 0.14 0.17 0.19 0.18 0.16 0.15 0.15 0.13 0.11 0.09 0.09 0.10 0.10 0.10
0.23 0.22 0.20 0.19 0.19 0.17 0.15 0.13 0.10 0.09 0.09 0.11 0.10 0.07 0.06 0.06 0.05 0.05 0.04 0.04 0.04 0.03 0.03 0.04 0.05 0.06 0.07 0.10 0.11 0.13 0.15 0.18 0.18 0.19 0.20 0.19 0.16 0.12 0.10 0.09 0.10 0.12 0.13
0.28 0.27 0.26 0.24 0.22 0.19 0.17 0.15 0.14 0.14 0.13 0.13 0.13 0.11 0.09 0.07 0.05 0.04 0.03 0.03 0.03 0.04 0.04 0.04 0.04 0.04 0.05 0.06 0.08 0.11 0.12 0.13 0.13 0.15 0.15 0.15 0.14 0.14 0.14 0.12 0.11 0.10 0.11
0.23 0.24 0.27 0.25 0.24 0.22 0.19 0.17 0.15 0.16 0.16 0.16 0.16 0.14 0.12 0.07 0.06 0.05 0.04 0.03 0.03 0.03 0.03 0.03 0.03 0.03 0.04 0.05 0.06 0.08 0.08 0.09 0.09 0.11 0.12 0.13 0.14 0.14 0.15 0.15 0.15 0.14 0.13
0.20 0.19 0.20 0.20 0.19 0.20 0.20 0.18 0.16 0.16 0.15 0.13 0.13 0.13 0.11 0.10 0.09 0.07 0.05 0.04 0.03 0.03 0.03 0.03 0.03 0.03 0.03 0.04 0.06 0.07 0.07 0.07 0.08 0.08 0.08 0.08 0.09 0.10 0.11 0.12 0.13 0.15 0.16
0.15 0.14 0.14 0.16 0.14 0.16 0.16 0.15 0.13 0.12 0.11 0.12 0.13 0.13 0.14 0.12 0.10 0.08 0.06 0.05 0.05 0.04 0.03 0.03 0.03 0.03 0.03 0.03 0.04 0.05 0.06 0.06 0.05 0.05 0.05 0.05 0.05 0.06 0.07 0.07 0.08 0.10 0.11
0.11 0.10 0.09 0.09 0.09 0.09 0.10 0.10 0.09 0.08 0.07 0.09 0.10 0.10 0.09 0.09 0.09 0.08 0.08 0.06 0.06 0.05 0.04 0.04 0.04 0.03 0.04 0.03 0.03 0.04 0.04 0.03 0.03 0.03 0.03 0.03 0.03 0.03 0.03 0.04 0.05 0.06 0.08
0.09 0.09 0.09 0.08 0.08 0.07 0.07 0.07 0.08 0.06 0.05 0.05 0.05 0.05 0.06 0.07 0.07 0.08 0.07 0.06 0.06 0.05 0.05 0.05 0.04 0.03 0.03 0.03 0.03 0.04 0.03 0.03 0.03 0.03 0.02 0.03 0.03 0.03 0.03 0.03 0.04 0.06 0.06
0.08 0.08 0.08 0.08 0.07 0.05 0.05 0.05 0.05 0.04 0.04 0.04 0.05 0.07 0.10 0.10 0.09 0.08 0.07 0.06 0.05 0.05 0.04 0.04 0.03 0.03 0.03 0.03 0.04 0.03 0.02 0.02 0.02 0.02 0.02 0.02 0.02 0.02 0.02 0.03 0.04 0.05 0.06
0.07 0.07 0.06 0.05 0.05 0.04 0.04 0.03 0.03 0.03 0.03 0.03 0.03 0.04 0.05 0.06 0.05 0.04 0.03 0.02 0.02 0.03 0.03 0.03 0.03 0.03 0.03 0.03 0.03 0.02 0.01 0.01 0.01 0.01 0.01 0.01 0.01 0.01 0.01 0.02 0.02 0.03 0.04
0.05 0.05 0.05 0.04 0.04 0.04 0.03 0.03 0.02 0.01 0.01 0.01 0.01 0.01 0.01 0.02 0.01 0.01 0.01 0.01 0.01 0.02 0.03 0.03 0.03 0.03 0.03 0.03 0.03 0.02 0.01 0.01 0.01 0.01 0.01 0.01 0.01 0.01 0.01 0.01 0.01 0.02 0.02
0.02 0.02 0.03 0.03 0.03 0.03 0.02 0.01 0.01 0.01 0.01 0.01 0.01 0.01 0.00 0.00 0.00 0.00 0.00 0.00 0.00 0.01 0.01 0.02 0.03 0.03 0.03 0.03 0.02 0.01 0.01 0.01 0.01 0.01 0.00 0.00 0.01 0.01 0.01 0.01 0.01 0.01 0.01
0.03 0.03 0.03 0.02 0.02 0.01 0.00 0.00 0.00 0.01 0.01 0.01 0.01 0.01 0.01 0.01 0.01 0.00 0.00 0.00 0.00 0.00 0.01 0.01 0.02 0.02 0.02 0.02 0.01 0.01 0.01 0.01 0.00 0.00 0.00 0.00 0.00 0.00 0.00 0.00 0.01 0.01 0.01
0.02 0.01 0.01 0.01 0.01 0.01 0.01 0.00 0.00 0.00 0.00 0.01 0.01 0.01 0.01 0.00 0.00 0.00 0.00 0.01 0.01 0.00 0.01 0.01 0.02 0.02 0.02 0.02 0.01 0.01 0.01 0.00 0.00 0.00 0.00 0.00 0.00 0.00 0.00 0.00 0.00 0.00 0.00
0.01 0.00 0.00 0.00 0.00 0.00 0.00 0.00 0.00 0.00 0.00 0.00 0.00 0.00 0.00 0.00 0.00 0.00 0.00 0.01 0.01 0.01 0.01 0.01 0.01 0.02 0.02 0.01 0.01 0.00 0.00 0.00 0.00 0.00 0.00 0.00 0.00 0.00 0.00 0.00 0.00 0.00 0.00
0.00 0.00 0.00 0.00 0.00 0.00 0.00 0.00 0.00 0.00 0.00 0.00 0.00 0.00 0.00 0.00 0.00 0.00 0.00 0.00 0.00 0.01 0.01 0.01 0.01 0.00 0.00 0.00 0.01 0.00 0.00 0.00 0.00 0.00 0.00 0.00 0.00 0.00 0.00 0.00 0.00 0.00 0.00
0.00 0.00 0.00 0.00 0.00 0.00 0.00 0.00 0.00 0.00 0.00 0.00 0.00 0.00 0.00 0.00 0.00 0.00 0.00 0.00 0.00 0.00 0.00 0.00 0.00 0.01 0.01 0.00 0.00 0.00 0.00 0.00 0.00 0.00 0.00 0.00 0.00 0.00 0.00 0.00 0.00 0.00 0.00
0.00 0.00 0.00 0.00 0.00 0.00 0.00 0.00 0.00 0.00 0.00 0.00 0.00 0.00 0.00 0.00 0.00 0.00 0.00 0.00 0.00 0.00 0.00 0.00 0.01 0.00 0.00 0.00 0.00 0.00 0.00 0.00 0.00 0.00 0.00 0.00 0.00 0.00 0.00 0.00 0.00 0.00 0.00
0.00 0.00 0.00 0.00 0.00 0.00 0.00 0.00 0.00 0.00 0.00 0.00 0.00 0.00 0.00 0.00 0.00 0.00 0.00 0.00 0.00 0.00 0.00 0.00 0.00 0.00 0.00 0.00 0.00 0.00 0.00 0.00 0.00 0.00 0.00 0.00 0.00 0.00 0.00 0.00 0.00 0.00 0.00
0.00 0.00 0.00 0.00 0.00 0.00 0.00 0.00 0.00 0.00 0.00 0.00 0.00 0.00 0.00 0.00 0.00 0.00 0.00 0.00 0.01 0.01 0.00 0.00 0.00 0.00 0.00 0.00 0.00 0.00 0.00 0.00 0.00 0.00 0.00 0.00 0.00 0.00 0.00 0.00 0.00 0.00 0.00
0.00 0.00 0.00 0.00 0.00 0.00 0.00 0.00 0.00 0.00 0.00 0.00 0.00 0.00 0.00 0.00 0.00 0.00 0.00 0.00 0.00 0.00 0.00 0.00 0.00 0.00 0.00 0.00 0.00 0.00 0.00 0.00 0.00 0.00 0.00 0.00 0.00 0.00 0.00 0.00 0.00 0.00 0.00

GEFSMA_prec_meanprec_108.txt.gz
QPF
0.05 0.04 0.04 0.05 0.05 0.06 0.07 0.06 0.04 0.04 0.03 0.03 0.02 0.01 0.02 0.02 0.03 0.03 0.03 0.03 0.03 0.04 0.07 0.10 0.11 0.12 0.12 0.12 0.10 0.09 0.08 0.08 0.09 0.10 0.09 0.08 0.08 0.08 0.08 0.08 0.07 0.07 0.07
0.06 0.07 0.07 0.07 0.06 0.07 0.07 0.08 0.06 0.07 0.07 0.06 0.04 0.04 0.05 0.05 0.04 0.05 0.04 0.03 0.03 0.03 0.05 0.07 0.10 0.12 0.14 0.13 0.11 0.10 0.09 0.10 0.10 0.10 0.10 0.10 0.10 0.10 0.10 0.10 0.09 0.08 0.07
0.07 0.08 0.09 0.09 0.08 0.08 0.11 0.10 0.07 0.07 0.08 0.07 0.05 0.05 0.06 0.06 0.06 0.06 0.06 0.04 0.05 0.04 0.04 0.05 0.06 0.08 0.11 0.13 0.14 0.14 0.12 0.11 0.10 0.09 0.10 0.09 0.09 0.10 0.10 0.10 0.10 0.09 0.08
0.12 0.09 0.09 0.08 0.08 0.09 0.11 0.11 0.09 0.08 0.08 0.08 0.06 0.05 0.05 0.05 0.04 0.04 0.05 0.05 0.06 0.06 0.06 0.05 0.05 0.05 0.06 0.09 0.13 0.14 0.14 0.12 0.11 0.11 0.10 0.09 0.09 0.09 0.09 0.09 0.09 0.10 0.10
0.13 0.11 0.10 0.09 0.09 0.09 0.10 0.11 0.12 0.10 0.10 0.08 0.06 0.06 0.05 0.05 0.04 0.03 0.04 0.05 0.05 0.05 0.05 0.06 0.05 0.06 0.06 0.08 0.10 0.13 0.14 0.12 0.12 0.12 0.11 0.10 0.10 0.09 0.09 0.08 0.08 0.08 0.10
0.18 0.16 0.13 0.12 0.09 0.10 0.11 0.11 0.12 0.11 0.09 0.09 0.08 0.07 0.05 0.05 0.05 0.05 0.04 0.04 0.04 0.04 0.04 0.05 0.06 0.06 0.07 0.07 0.08 0.10 0.13 0.14 0.13 0.13 0.13 0.11 0.09 0.08 0.08 0.08 0.07 0.08 0.09
0.18 0.16 0.15 0.14 0.12 0.12 0.13 0.13 0.12 0.12 0.12 0.12 0.11 0.10 0.07 0.05 0.04 0.03 0.03 0.03 0.03 0.03 0.02 0.02 0.03 0.03 0.03 0.03 0.04 0.06 0.09 0.11 0.10 0.10 0.10 0.10 0.09 0.09 0.10 0.10 0.10 0.09 0.10
0.18 0.18 0.16 0.14 0.14 0.13 0.12 0.12 0.11 0.12 0.12 0.14 0.16 0.16 0.14 0.10 0.06 0.03 0.03 0.03 0.03 0.03 0.02 0.02 0.02 0.02 0.02 0.02 0.03 0.04 0.04 0.05 0.04 0.05 0.06 0.06 0.07 0.07 0.08 0.08 0.09 0.10 0.11
0.16 0.16 0.16 0.16 0.15 0.14 0.13 0.14 0.14 0.14 0.15 0.15 0.15 0.15 0.15 0.12 0.08 0.05 0.04 0.03 0.03 0.02 0.01 0.02 0.02 0.02 0.01 0.02 0.02 0.03 0.03 0.03 0.03 0.03 0.04 0.04 0.05 0.06 0.07 0.07 0.08 0.09 0.11
0.17 0.16 0.14 0.14 0.12 0.12 0.12 0.13 0.13 0.13 0.12 0.10 0.08 0.08 0.09 0.09 0.09 0.08 0.06 0.04 0.03 0.02 0.02 0.02 0.01 0.01 0.02 0.02 0.03 0.03 0.04 0.03 0.03 0.03 0.03 0.03 0.04 0.05 0.05 0.06 0.07 0.08 0.09
0.17 0.15 0.14 0.12 0.11 0.10 0.10 0.10 0.12 0.11 0.09 0.08 0.07 0.06 0.06 0.07 0.08 0.09 0.08 0.06 0.04 0.04 0.03 0.02 0.02 0.02 0.02 0.02 0.03 0.03 0.04 0.04 0.04 0.04 0.04 0.04 0.04 0.03 0.04 0.05 0.06 0.06 0.07
0.15 0.13 0.12 0.10 0.10 0.08 0.07 0.08 0.08 0.08 0.07 0.05 0.04 0.04 0.04 0.04 0.06 0.08 0.08 0.07 0.06 0.05 0.04 0.03 0.03 0.03 0.03 0.03 0.03 0.03 0.04 0.04 0.04 0.04 0.04 0.03 0.02 0.01 0.01 0.01 0.02 0.03 0.04
0.15 0.14 0.13 0.12 0.10 0.08 0.08 0.07 0.07 0.07 0.06 0.05 0.03 0.02 0.02 0.02 0.03 0.04 0.06 0.07 0.06 0.05 0.04 0.03 0.03 0.03 0.03 0.02 0.02 0.03 0.03 0.03 0.03 0.03 0.02 0.02 0.02 0.02 0.01 0.01 0.02 0.02 0.03
0.10 0.10 0.10 0.09 0.08 0.08 0.08 0.08 0.07 0.07 0.06 0.05 0.04 0.03 0.02 0.02 0.02 0.02 0.03 0.04 0.05 0.04 0.04 0.03 0.02 0.02 0.01 0.01 0.02 0.02 0.02 0.02 0.02 0.02 0.02 0.02 0.02 0.02 0.02 0.02 0.02 0.02 0.03
0.05 0.05 0.05 0.05 0.05 0.04 0.04 0.04 0.05 0.05 0.04 0.04 0.03 0.03 0.03 0.02 0.02 0.02 0.02 0.02 0.03 0.03 0.03 0.02 0.02 0.02 0.01 0.02 0.03 0.02 0.02 0.02 0.02 0.02 0.02 0.02 0.02 0.02 0.03 0.03 0.02 0.02 0.03
0.04 0.04 0.03 0.03 0.02 0.02 0.02 0.02 0.02 0.02 0.03 0.02 0.02 0.01 0.01 0.02 0.02 0.02 0.02 0.01 0.02 0.02 0.02 0.01 0.01 0.02 0.02 0.01 0.02 0.01 0.02 0.02 0.01 0.01 0.01 0.01 0.01 0.01 0.02 0.02 0.02 0.02 0.02
0.05 0.03 0.02 0.02 0.02 0.01 0.01 0.01 0.01 0.01 0.02 0.02 0.02 0.02 0.02 0.02 0.02 0.02 0.02 0.02 0.02 0.02 0.02 0.02 0.02 0.02 0.01 0.01 0.01 0.01 0.01 0.01 0.01 0.01 0.01 0.01 0.01 0.01 0.01 0.01 0.02 0.02 0.02
0.06 0.04 0.03 0.02 0.02 0.01 0.01 0.01 0.01 0.01 0.01 0.01 0.01 0.02 0.02 0.02 0.01 0.01 0.01 0.01 0.02 0.02 0.02 0.02 0.02 0.02 0.01 0.01 0.01 0.01 0.01 0.01 0.01 0.01 0.01 0.01 0.01 0.00 0.00 0.00 0.01 0.01 0.02
0.04 0.04 0.03 0.03 0.03 0.03 0.02 0.02 0.01 0.01 0.01 0.01 0.01 0.01 0.01 0.01 0.01 0.01 0.01 0.01 0.01 0.02 0.02 0.02 0.02 0.02 0.01 0.01 0.01 0.01 0.01 0.01 0.00 0.00 0.00 0.00 0.00 0.00 0.00 0.00 0.00 0.00 0.00
0.03 0.02 0.02 0.01 0.01 0.02 0.02 0.02 0.02 0.01 0.01 0.01 0.01 0.01 0.01 0.01 0.01 0.01 0.01 0.01 0.01 0.02 0.02 0.02 0.01 0.02 0.02 0.01 0.02 0.02 0.01 0.01 0.00 0.00 0.00 0.00 0.00 0.00 0.00 0.00 0.00 0.00 0.00
0.01 0.01 0.01 0.01 0.01 0.00 0.00 0.00 0.00 0.01 0.01 0.01 0.01 0.01 0.01 0.01 0.01 0.01 0.01 0.01 0.01 0.01 0.01 0.01 0.01 0.02 0.02 0.02 0.02 0.01 0.01 0.01 0.01 0.00 0.01 0.00 0.00 0.01 0.01 0.01 0.00 0.00 0.00
0.01 0.01 0.01 0.01 0.01 0.00 0.00 0.00 0.00 0.00 0.00 0.01 0.01 0.01 0.01 0.01 0.01 0.01 0.01 0.01 0.01 0.01 0.02 0.02 0.02 0.02 0.02 0.02 0.01 0.01 0.01 0.01 0.01 0.01 0.01 0.01 0.01 0.02 0.03 0.02 0.00 0.00 0.00
0.01 0.01 0.01 0.01 0.01 0.00 0.00 0.00 0.00 0.00 0.00 0.01 0.01 0.01 0.01 0.00 0.00 0.01 0.01 0.00 0.00 0.00 0.01 0.01 0.02 0.02 0.02 0.02 0.02 0.02 0.02 0.02 0.02 0.01 0.01 0.03 0.03 0.04 0.02 0.00 0.00 0.00 0.00
0.01 0.01 0.01 0.01 0.01 0.01 0.00 0.00 0.00 0.01 0.01 0.01 0.01 0.01 0.01 0.01 0.01 0.00 0.00 0.00 0.00 0.00 0.00 0.00 0.01 0.01 0.01 0.01 0.01 0.01 0.01 0.02 0.03 0.03 0.01 0.03 0.05 0.05 0.02 0.03 0.00 0.00 0.00
0.01 0.01 0.01 0.01 0.01 0.01 0.00 0.00 0.00 0.01 0.01 0.01 0.01 0.01 0.01 0.01 0.00 0.00 0.01 0.01 0.01 0.01 0.00 0.00 0.00 0.00 0.00 0.00 0.00 0.01 0.02 0.03 0.05 0.05 0.02 0.03 0.05 0.04 0.04 0.04 0.01 0.00 0.00
0.01 0.01 0.01 0.01 0.01 0.01 0.00 0.00 0.00 0.01 0.01 0.01 0.01 0.01 0.00 0.00 0.00 0.00 0.01 0.02 0.02 0.02 0.01 0.01 0.01 0.01 0.01 0.01 0.00 0.01 0.04 0.04 0.05 0.06 0.04 0.03 0.06 0.04 0.04 0.04 0.03 0.02 0.02

GEFSMA_prec_meanprec_114.txt.gz
QPF
0.16 0.16 0.15 0.17 0.12 0.15 0.23 0.16 0.09 0.08 0.09 0.07 0.04 0.03 0.03 0.04 0.05 0.11 0.11 0.03 0.01 0.01 0.03 0.05 0.05 0.06 0.08 0.09 0.09 0.09 0.08 0.09 0.09 0.09 0.07 0.05 0.05 0.06 0.06 0.06 0.05 0.05 0.05
0.24 0.21 0.17 0.17 0.13 0.12 0.13 0.11 0.09 0.13 0.13 0.12 0.07 0.06 0.06 0.04 0.05 0.05 0.06 0.05 0.03 0.01 0.02 0.04 0.05 0.06 0.07 0.07 0.06 0.06 0.05 0.06 0.07 0.06 0.06 0.05 0.05 0.05 0.05 0.06 0.07 0.07 0.06
0.35 0.32 0.26 0.22 0.17 0.12 0.12 0.10 0.12 0.15 0.16 0.13 0.11 0.09 0.09 0.07 0.05 0.05 0.06 0.08 0.08 0.06 0.04 0.04 0.03 0.04 0.05 0.06 0.07 0.06 0.06 0.06 0.05 0.05 0.06 0.05 0.04 0.04 0.04 0.05 0.05 0.06 0.06
0.35 0.42 0.33 0.24 0.20 0.14 0.15 0.15 0.15 0.17 0.19 0.18 0.17 0.13 0.14 0.14 0.07 0.06 0.07 0.08 0.09 0.08 0.05 0.03 0.02 0.02 0.03 0.04 0.06 0.07 0.07 0.06 0.05 0.05 0.06 0.05 0.05 0.04 0.04 0.04 0.04 0.04 0.05
0.30 0.33 0.31 0.25 0.21 0.18 0.19 0.16 0.20 0.20 0.22 0.19 0.15 0.10 0.08 0.08 0.08 0.07 0.08 0.07 0.06 0.05 0.05 0.04 0.02 0.02 0.02 0.03 0.03 0.04 0.05 0.05 0.04 0.05 0.05 0.05 0.05 0.04 0.04 0.04 0.04 0.05 0.06
0.27 0.30 0.30 0.25 0.21 0.20 0.21 0.21 0.21 0.20 0.20 0.17 0.12 0.09 0.07 0.06 0.06 0.06 0.05 0.04 0.04 0.03 0.04 0.04 0.04 0.03 0.03 0.03 0.03 0.04 0.05 0.07 0.07 0.07 0.06 0.05 0.05 0.05 0.05 0.05 0.05 0.06 0.06
0.28 0.29 0.26 0.25 0.21 0.20 0.20 0.20 0.20 0.20 0.18 0.17 0.16 0.13 0.08 0.05 0.05 0.05 0.04 0.04 0.04 0.03 0.03 0.04 0.04 0.05 0.04 0.03 0.02 0.02 0.03 0.04 0.04 0.04 0.04 0.04 0.04 0.04 0.04 0.04 0.05 0.05 0.05
0.25 0.28 0.28 0.22 0.19 0.19 0.19 0.19 0.18 0.17 0.13 0.13 0.16 0.16 0.13 0.11 0.08 0.06 0.05 0.05 0.05 0.05 0.05 0.04 0.04 0.03 0.03 0.03 0.02 0.02 0.01 0.01 0.02 0.02 0.03 0.03 0.04 0.04 0.05 0.05 0.06 0.06 0.05
0.21 0.21 0.21 0.20 0.18 0.18 0.18 0.18 0.18 0.16 0.13 0.13 0.14 0.16 0.15 0.12 0.08 0.07 0.06 0.06 0.06 0.05 0.05 0.05 0.04 0.04 0.03 0.02 0.02 0.02 0.01 0.01 0.02 0.02 0.02 0.02 0.03 0.03 0.03 0.03 0.03 0.04 0.03
0.15 0.18 0.19 0.18 0.16 0.15 0.15 0.15 0.16 0.15 0.15 0.13 0.11 0.12 0.12 0.11 0.10 0.08 0.06 0.06 0.06 0.05 0.04 0.03 0.03 0.03 0.03 0.03 0.03 0.02 0.01 0.01 0.01 0.01 0.02 0.02 0.02 0.02 0.02 0.02 0.02 0.02 0.02
0.12 0.12 0.13 0.13 0.11 0.11 0.12 0.13 0.13 0.14 0.15 0.15 0.14 0.13 0.12 0.11 0.10 0.10 0.08 0.05 0.04 0.03 0.03 0.02 0.03 0.03 0.03 0.04 0.03 0.02 0.02 0.02 0.01 0.01 0.01 0.02 0.02 0.03 0.03 0.02 0.01 0.01 0.01
0.11 0.12 0.13 0.12 0.11 0.11 0.10 0.11 0.11 0.11 0.11 0.11 0.10 0.10 0.10 0.10 0.09 0.09 0.08 0.06 0.04 0.04 0.03 0.03 0.03 0.03 0.03 0.03 0.03 0.03 0.03 0.02 0.02 0.02 0.02 0.02 0.03 0.03 0.03 0.03 0.02 0.02 0.02
0.10 0.09 0.10 0.10 0.10 0.10 0.10 0.09 0.08 0.07 0.06 0.06 0.07 0.07 0.07 0.07 0.06 0.06 0.07 0.07 0.06 0.05 0.04 0.03 0.03 0.03 0.03 0.04 0.03 0.03 0.03 0.03 0.02 0.02 0.02 0.02 0.02 0.03 0.04 0.04 0.04 0.03 0.03
0.11 0.09 0.09 0.09 0.10 0.11 0.11 0.11 0.11 0.10 0.08 0.08 0.07 0.07 0.07 0.06 0.06 0.06 0.07 0.08 0.08 0.07 0.06 0.05 0.03 0.03 0.03 0.03 0.02 0.02 0.02 0.02 0.02 0.02 0.02 0.02 0.02 0.03 0.03 0.04 0.03 0.03 0.02
0.08 0.07 0.06 0.06 0.08 0.08 0.08 0.08 0.08 0.08 0.08 0.07 0.07 0.07 0.06 0.06 0.06 0.06 0.07 0.08 0.08 0.07 0.07 0.06 0.05 0.04 0.03 0.02 0.02 0.02 0.02 0.01 0.01 0.01 0.01 0.01 0.01 0.01 0.01 0.01 0.01 0.01 0.02
0.06 0.05 0.04 0.04 0.04 0.05 0.05 0.05 0.05 0.05 0.04 0.04 0.04 0.03 0.03 0.03 0.03 0.04 0.05 0.06 0.07 0.07 0.07 0.06 0.05 0.05 0.04 0.03 0.03 0.02 0.02 0.01 0.01 0.01 0.01 0.01 0.01 0.01 0.01 0.01 0.01 0.01 0.02
0.06 0.05 0.05 0.04 0.04 0.04 0.04 0.03 0.03 0.03 0.03 0.04 0.04 0.02 0.02 0.02 0.02 0.02 0.02 0.03 0.03 0.04 0.05 0.05 0.04 0.04 0.04 0.03 0.02 0.01 0.01 0.01 0.01 0.01 0.00 0.00 0.00 0.01 0.01 0.01 0.01 0.01 0.01
0.08 0.06 0.04 0.05 0.06 0.05 0.03 0.02 0.02 0.02 0.02 0.03 0.03 0.02 0.02 0.02 0.02 0.02 0.02 0.02 0.02 0.02 0.03 0.04 0.04 0.04 0.03 0.03 0.02 0.02 0.01 0.01 0.00 0.01 0.00 0.00 0.00 0.00 0.00 0.00 0.00 0.00 0.00
0.09 0.07 0.05 0.05 0.04 0.04 0.04 0.03 0.03 0.02 0.02 0.02 0.02 0.02 0.02 0.02 0.01 0.01 0.02 0.02 0.02 0.02 0.02 0.03 0.03 0.03 0.04 0.04 0.03 0.02 0.02 0.01 0.01 0.00 0.00 0.00 0.00 0.00 0.00 0.00 0.00 0.00 0.00
0.08 0.09 0.09 0.07 0.05 0.04 0.04 0.03 0.03 0.03 0.03 0.02 0.01 0.02 0.01 0.01 0.01 0.01 0.02 0.03 0.02 0.02 0.02 0.02 0.02 0.03 0.03 0.04 0.04 0.04 0.03 0.03 0.01 0.01 0.01 0.00 0.00 0.00 0.00 0.00 0.00 0.00 0.00
0.08 0.08 0.09 0.08 0.06 0.05 0.05 0.04 0.03 0.02 0.02 0.02 0.01 0.01 0.01 0.00 0.01 0.01 0.01 0.01 0.02 0.02 0.02 0.02 0.02 0.02 0.03 0.04 0.04 0.03 0.03 0.03 0.02 0.01 0.01 0.01 0.01 0.02 0.02 0.01 0.00 0.00 0.00
0.07 0.07 0.07 0.06 0.05 0.03 0.03 0.02 0.02 0.02 0.02 0.02 0.02 0.01 0.01 0.00 0.00 0.00 0.01 0.01 0.01 0.01 0.02 0.03 0.03 0.04 0.04 0.04 0.04 0.04 0.04 0.04 0.04 0.03 0.03 0.03 0.02 0.05 0.06 0.03 0.00 0.00 0.00
0.05 0.06 0.05 0.05 0.04 0.02 0.01 0.01 0.01 0.02 0.02 0.02 0.02 0.02 0.01 0.01 0.01 0.01 0.01 0.01 0.01 0.01 0.01 0.01 0.02 0.04 0.04 0.04 0.04 0.04 0.06 0.05 0.06 0.04 0.04 0.06 0.06 0.07 0.04 0.01 0.00 0.00 0.00
0.06 0.06 0.05 0.05 0.04 0.02 0.01 0.01 0.01 0.02 0.03 0.03 0.02 0.02 0.03 0.02 0.01 0.01 0.01 0.02 0.02 0.01 0.01 0.01 0.02 0.03 0.03 0.02 0.02 0.02 0.04 0.05 0.08 0.07 0.04 0.06 0.08 0.07 0.04 0.02 0.00 0.00 0.00
0.06 0.06 0.05 0.04 0.04 0.02 0.01 0.00 0.00 0.02 0.03 0.02 0.02 0.01 0.01 0.02 0.01 0.00 0.01 0.04 0.05 0.04 0.01 0.00 0.00 0.00 0.00 0.00 0.00 0.01 0.04 0.06 0.08 0.08 0.05 0.06 0.08 0.07 0.06 0.05 0.01 0.00 0.00
0.05 0.05 0.04 0.05 0.04 0.01 0.00 0.00 0.00 0.02 0.04 0.04 0.04 0.02 0.00 0.00 0.00 0.00 0.02 0.05 0.05 0.05 0.04 0.03 0.03 0.02 0.01 0.01 0.01 0.02 0.05 0.07 0.07 0.08 0.06 0.05 0.07 0.06 0.07 0.06 0.04 0.02 0.01

GEFSMA_prec_meanprec_120.txt.gz
QPF
0.14 0.17 0.19 0.21 0.22 0.19 0.13 0.13 0.14 0.18 0.14 0.12 0.13 0.17 0.17 0.18 0.18 0.15 0.12 0.09 0.07 0.08 0.08 0.05 0.04 0.04 0.03 0.03 0.03 0.03 0.04 0.04 0.03 0.03 0.02 0.02 0.02 0.02 0.02 0.02 0.02 0.02 0.02
0.17 0.21 0.23 0.25 0.28 0.29 0.26 0.21 0.23 0.25 0.21 0.20 0.20 0.19 0.20 0.23 0.21 0.15 0.13 0.11 0.08 0.06 0.05 0.05 0.05 0.04 0.04 0.03 0.03 0.03 0.03 0.04 0.03 0.02 0.02 0.02 0.01 0.01 0.01 0.02 0.02 0.02 0.02
0.24 0.22 0.28 0.27 0.30 0.32 0.29 0.28 0.26 0.22 0.22 0.20 0.18 0.17 0.17 0.17 0.14 0.12 0.10 0.09 0.08 0.08 0.07 0.05 0.04 0.04 0.04 0.04 0.05 0.04 0.03 0.03 0.02 0.01 0.02 0.02 0.01 0.01 0.01 0.01 0.02 0.02 0.02
0.37 0.33 0.40 0.30 0.24 0.27 0.28 0.26 0.24 0.24 0.24 0.25 0.18 0.14 0.15 0.15 0.14 0.13 0.12 0.10 0.08 0.06 0.06 0.05 0.04 0.04 0.05 0.05 0.04 0.04 0.04 0.03 0.02 0.02 0.02 0.02 0.01 0.01 0.01 0.02 0.02 0.02 0.02
0.34 0.32 0.31 0.28 0.20 0.21 0.22 0.22 0.22 0.21 0.24 0.25 0.19 0.15 0.14 0.11 0.10 0.11 0.11 0.10 0.08 0.07 0.06 0.06 0.05 0.05 0.06 0.05 0.04 0.04 0.05 0.05 0.04 0.04 0.03 0.02 0.02 0.02 0.01 0.01 0.01 0.01 0.01
0.25 0.23 0.18 0.17 0.18 0.21 0.23 0.22 0.25 0.22 0.21 0.19 0.19 0.19 0.16 0.11 0.09 0.09 0.08 0.07 0.06 0.06 0.06 0.06 0.06 0.06 0.06 0.06 0.06 0.05 0.05 0.05 0.05 0.04 0.03 0.03 0.02 0.01 0.02 0.02 0.01 0.01 0.02
0.17 0.19 0.15 0.14 0.15 0.19 0.23 0.22 0.23 0.22 0.19 0.18 0.20 0.20 0.18 0.13 0.09 0.08 0.08 0.08 0.07 0.06 0.05 0.05 0.05 0.06 0.06 0.07 0.08 0.06 0.05 0.04 0.04 0.03 0.02 0.02 0.02 0.02 0.02 0.02 0.01 0.02 0.02
0.14 0.16 0.14 0.13 0.12 0.14 0.19 0.22 0.23 0.22 0.19 0.16 0.17 0.16 0.13 0.12 0.10 0.08 0.09 0.08 0.08 0.07 0.08 0.07 0.05 0.04 0.04 0.04 0.04 0.04 0.03 0.03 0.03 0.02 0.02 0.02 0.01 0.02 0.02 0.02 0.01 0.01 0.02
0.12 0.14 0.15 0.15 0.14 0.15 0.17 0.19 0.21 0.20 0.18 0.19 0.16 0.15 0.12 0.09 0.07 0.06 0.05 0.06 0.07 0.09 0.08 0.07 0.05 0.04 0.04 0.03 0.02 0.03 0.03 0.03 0.03 0.03 0.02 0.01 0.01 0.01 0.01 0.01 0.01 0.01 0.01
0.14 0.15 0.18 0.19 0.17 0.16 0.16 0.16 0.18 0.20 0.21 0.22 0.19 0.15 0.11 0.07 0.07 0.06 0.06 0.06 0.06 0.06 0.07 0.06 0.06 0.05 0.05 0.04 0.04 0.04 0.04 0.04 0.03 0.02 0.01 0.01 0.01 0.01 0.01 0.01 0.01 0.01 0.01
0.12 0.11 0.11 0.14 0.15 0.15 0.13 0.12 0.14 0.17 0.20 0.22 0.21 0.17 0.13 0.11 0.08 0.06 0.06 0.07 0.07 0.07 0.06 0.06 0.06 0.06 0.05 0.05 0.06 0.07 0.07 0.07 0.06 0.04 0.02 0.01 0.01 0.01 0.01 0.01 0.01 0.02 0.02
0.08 0.08 0.08 0.11 0.15 0.15 0.13 0.10 0.11 0.11 0.13 0.16 0.20 0.17 0.14 0.13 0.11 0.08 0.07 0.08 0.08 0.07 0.04 0.03 0.03 0.04 0.04 0.04 0.04 0.05 0.07 0.07 0.07 0.05 0.03 0.02 0.01 0.01 0.01 0.01 0.01 0.02 0.03
0.07 0.08 0.07 0.07 0.09 0.11 0.11 0.09 0.08 0.09 0.09 0.10 0.12 0.13 0.12 0.12 0.10 0.09 0.08 0.09 0.08 0.06 0.04 0.03 0.02 0.02 0.03 0.04 0.03 0.04 0.03 0.04 0.05 0.05 0.04 0.03 0.03 0.02 0.02 0.01 0.02 0.03 0.04
0.10 0.09 0.07 0.06 0.06 0.06 0.06 0.06 0.05 0.05 0.05 0.06 0.07 0.08 0.08 0.08 0.08 0.07 0.06 0.05 0.05 0.05 0.05 0.04 0.04 0.04 0.04 0.04 0.04 0.04 0.03 0.03 0.04 0.04 0.04 0.04 0.03 0.03 0.02 0.02 0.02 0.03 0.03
0.09 0.07 0.06 0.05 0.04 0.04 0.04 0.04 0.05 0.05 0.05 0.06 0.06 0.06 0.05 0.04 0.04 0.05 0.05 0.04 0.04 0.04 0.05 0.05 0.04 0.05 0.05 0.05 0.05 0.04 0.03 0.03 0.03 0.02 0.02 0.03 0.05 0.05 0.03 0.02 0.03 0.03 0.02
0.06 0.05 0.05 0.04 0.03 0.04 0.04 0.05 0.05 0.05 0.05 0.05 0.04 0.03 0.02 0.02 0.02 0.02 0.02 0.02 0.02 0.03 0.04 0.04 0.04 0.05 0.06 0.06 0.05 0.03 0.02 0.02 0.02 0.02 0.01 0.01 0.02 0.05 0.06 0.06 0.04 0.03 0.03
0.03 0.03 0.03 0.03 0.02 0.03 0.03 0.04 0.04 0.03 0.02 0.02 0.02 0.02 0.02 0.02 0.01 0.01 0.01 0.01 0.01 0.02 0.02 0.03 0.03 0.03 0.03 0.02 0.02 0.02 0.02 0.01 0.01 0.01 0.01 0.01 0.01 0.01 0.02 0.04 0.04 0.04 0.04
0.03 0.02 0.03 0.03 0.03 0.03 0.02 0.02 0.02 0.02 0.02 0.01 0.01 0.01 0.02 0.02 0.01 0.01 0.01 0.01 0.01 0.01 0.01 0.01 0.02 0.02 0.02 0.02 0.02 0.02 0.01 0.01 0.01 0.01 0.01 0.00 0.00 0.00 0.01 0.01 0.01 0.01 0.02
0.04 0.04 0.03 0.02 0.03 0.02 0.02 0.02 0.02 0.02 0.02 0.02 0.02 0.02 0.02 0.02 0.02 0.01 0.01 0.01 0.01 0.00 0.00 0.01 0.01 0.01 0.02 0.02 0.02 0.02 0.02 0.02 0.02 0.02 0.01 0.01 0.00 0.00 0.00 0.00 0.00 0.00 0.00
0.05 0.04 0.04 0.03 0.02 0.02 0.02 0.02 0.02 0.02 0.02 0.02 0.01 0.01 0.01 0.01 0.01 0.01 0.01 0.01 0.01 0.00 0.00 0.00 0.01 0.01 0.01 0.02 0.02 0.02 0.02 0.02 0.02 0.02 0.01 0.01 0.00 0.00 0.00 0.00 0.00 0.00 0.00
0.05 0.05 0.05 0.04 0.04 0.03 0.03 0.03 0.03 0.03 0.03 0.03 0.03 0.02 0.02 0.01 0.01 0.01 0.01 0.01 0.01 0.01 0.01 0.01 0.01 0.01 0.01 0.02 0.02 0.01 0.01 0.02 0.02 0.01 0.01 0.00 0.00 0.00 0.00 0.00 0.00 0.00 0.00
0.06 0.06 0.06 0.06 0.05 0.05 0.04 0.03 0.03 0.03 0.03 0.03 0.03 0.02 0.02 0.01 0.01 0.01 0.01 0.01 0.01 0.01 0.02 0.01 0.01 0.01 0.02 0.02 0.03 0.02 0.01 0.02 0.03 0.01 0.01 0.01 0.00 0.00 0.00 0.00 0.00 0.00 0.00
0.05 0.05 0.05 0.05 0.05 0.04 0.04 0.03 0.03 0.03 0.03 0.03 0.02 0.02 0.01 0.01 0.00 0.00 0.01 0.01 0.01 0.01 0.01 0.02 0.01 0.01 0.01 0.02 0.03 0.03 0.02 0.03 0.02 0.02 0.02 0.01 0.00 0.00 0.00 0.00 0.00 0.00 0.00
0.04 0.04 0.04 0.04 0.04 0.04 0.03 0.02 0.02 0.02 0.02 0.02 0.02 0.01 0.00 0.00 0.00 0.00 0.00 0.00 0.00 0.01 0.01 0.01 0.01 0.01 0.01 0.01 0.01 0.01 0.02 0.05 0.04 0.03 0.02 0.01 0.01 0.00 0.00 0.00 0.00 0.00 0.00
0.03 0.03 0.03 0.03 0.03 0.03 0.03 0.02 0.02 0.01 0.01 0.01 0.01 0.00 0.00 0.00 0.00 0.00 0.00 0.00 0.00 0.00 0.01 0.01 0.01 0.01 0.01 0.01 0.01 0.01 0.02 0.04 0.04 0.03 0.03 0.03 0.02 0.01 0.01 0.00 0.00 0.00 0.00
0.03 0.03 0.03 0.02 0.02 0.02 0.02 0.02 0.01 0.01 0.01 0.00 0.00 0.00 0.00 0.00 0.00 0.00 0.00 0.00 0.00 0.00 0.00 0.00 0.00 0.01 0.01 0.01 0.01 0.01 0.02 0.03 0.03 0.03 0.03 0.02 0.01 0.01 0.00 0.00 0.00 0.00 0.00

GEFSMA_prec_meanprec_126.txt.gz
QPF
0.03 0.03 0.03 0.03 0.04 0.04 0.05 0.07 0.06 0.05 0.05 0.06 0.05 0.04 0.05 0.06 0.06 0.06 0.08 0.07 0.08 0.09 0.12 0.10 0.08 0.06 0.06 0.05 0.05 0.06 0.06 0.06 0.04 0.02 0.02 0.02 0.02 0.02 0.03 0.03 0.03 0.03 0.04
0.05 0.06 0.07 0.08 0.08 0.08 0.08 0.09 0.07 0.07 0.10 0.10 0.08 0.07 0.08 0.10 0.08 0.06 0.05 0.05 0.07 0.08 0.10 0.11 0.10 0.09 0.07 0.05 0.05 0.06 0.06 0.06 0.05 0.03 0.02 0.01 0.01 0.02 0.02 0.03 0.03 0.03 0.03
0.08 0.12 0.14 0.14 0.13 0.12 0.12 0.11 0.10 0.11 0.11 0.10 0.09 0.10 0.12 0.10 0.08 0.07 0.06 0.04 0.06 0.09 0.10 0.10 0.09 0.09 0.09 0.08 0.07 0.06 0.05 0.04 0.03 0.03 0.03 0.02 0.02 0.01 0.01 0.02 0.02 0.02 0.02
0.12 0.15 0.18 0.17 0.16 0.17 0.17 0.16 0.14 0.14 0.14 0.13 0.10 0.10 0.12 0.11 0.09 0.08 0.08 0.09 0.10 0.10 0.11 0.10 0.09 0.08 0.07 0.06 0.05 0.05 0.04 0.04 0.04 0.03 0.03 0.03 0.02 0.02 0.01 0.01 0.02 0.02 0.02
0.15 0.17 0.18 0.19 0.19 0.23 0.24 0.21 0.23 0.23 0.22 0.19 0.15 0.11 0.12 0.12 0.13 0.11 0.09 0.09 0.10 0.11 0.12 0.09 0.09 0.08 0.08 0.10 0.09 0.07 0.05 0.04 0.04 0.04 0.04 0.04 0.03 0.03 0.02 0.02 0.02 0.02 0.02
0.16 0.19 0.20 0.21 0.22 0.25 0.27 0.26 0.28 0.27 0.25 0.23 0.20 0.15 0.12 0.11 0.13 0.14 0.10 0.09 0.11 0.12 0.10 0.08 0.06 0.05 0.06 0.07 0.08 0.08 0.08 0.07 0.05 0.04 0.04 0.04 0.03 0.03 0.03 0.02 0.02 0.01 0.01
0.17 0.21 0.22 0.23 0.22 0.24 0.28 0.28 0.25 0.24 0.23 0.24 0.24 0.20 0.13 0.12 0.12 0.12 0.11 0.10 0.10 0.10 0.09 0.08 0.07 0.05 0.05 0.05 0.06 0.08 0.09 0.08 0.06 0.05 0.05 0.04 0.03 0.03 0.03 0.03 0.03 0.02 0.02
0.14 0.15 0.15 0.16 0.16 0.16 0.17 0.18 0.16 0.17 0.17 0.19 0.20 0.20 0.17 0.15 0.12 0.11 0.11 0.10 0.09 0.08 0.07 0.07 0.07 0.07 0.06 0.05 0.05 0.05 0.06 0.06 0.07 0.06 0.05 0.03 0.03 0.02 0.02 0.02 0.02 0.02 0.02
0.10 0.08 0.10 0.11 0.13 0.14 0.13 0.14 0.15 0.17 0.17 0.19 0.21 0.19 0.17 0.15 0.13 0.12 0.09 0.07 0.06 0.06 0.07 0.09 0.10 0.10 0.08 0.07 0.07 0.08 0.08 0.07 0.06 0.06 0.05 0.04 0.04 0.04 0.03 0.03 0.02 0.02 0.02
0.09 0.08 0.09 0.12 0.14 0.15 0.16 0.16 0.15 0.16 0.18 0.20 0.21 0.21 0.20 0.15 0.12 0.13 0.11 0.08 0.07 0.06 0.07 0.09 0.10 0.10 0.10 0.07 0.07 0.08 0.09 0.09 0.08 0.08 0.07 0.06 0.05 0.04 0.04 0.03 0.02 0.01 0.01
0.11 0.11 0.12 0.13 0.13 0.14 0.17 0.18 0.16 0.15 0.16 0.20 0.23 0.25 0.26 0.21 0.14 0.12 0.13 0.11 0.09 0.08 0.08 0.08 0.09 0.10 0.10 0.09 0.07 0.07 0.07 0.08 0.09 0.09 0.09 0.09 0.08 0.05 0.04 0.04 0.03 0.02 0.01
0.11 0.11 0.11 0.10 0.12 0.12 0.12 0.13 0.13 0.13 0.14 0.16 0.19 0.21 0.20 0.20 0.18 0.14 0.13 0.13 0.13 0.13 0.13 0.14 0.14 0.13 0.12 0.10 0.08 0.08 0.08 0.09 0.09 0.08 0.09 0.09 0.08 0.07 0.05 0.04 0.03 0.02 0.01
0.09 0.09 0.11 0.10 0.10 0.10 0.09 0.11 0.12 0.12 0.11 0.12 0.14 0.17 0.18 0.16 0.15 0.16 0.16 0.15 0.14 0.14 0.12 0.10 0.10 0.09 0.08 0.08 0.08 0.07 0.08 0.09 0.10 0.10 0.11 0.10 0.08 0.07 0.06 0.04 0.03 0.03 0.02
0.08 0.08 0.10 0.11 0.10 0.10 0.09 0.09 0.09 0.07 0.06 0.07 0.08 0.10 0.13 0.14 0.13 0.12 0.13 0.13 0.13 0.12 0.11 0.09 0.07 0.05 0.04 0.04 0.05 0.06 0.06 0.07 0.09 0.09 0.08 0.08 0.07 0.07 0.06 0.04 0.03 0.02 0.02
0.07 0.09 0.09 0.09 0.09 0.09 0.09 0.08 0.07 0.05 0.04 0.04 0.04 0.04 0.06 0.08 0.09 0.08 0.08 0.08 0.10 0.10 0.09 0.08 0.06 0.05 0.04 0.04 0.05 0.04 0.04 0.05 0.06 0.06 0.06 0.07 0.06 0.04 0.03 0.02 0.01 0.01 0.02
0.04 0.04 0.05 0.06 0.07 0.06 0.06 0.07 0.06 0.05 0.04 0.03 0.03 0.03 0.04 0.05 0.06 0.06 0.07 0.08 0.07 0.07 0.07 0.06 0.05 0.04 0.04 0.04 0.05 0.05 0.06 0.07 0.06 0.06 0.05 0.04 0.03 0.02 0.02 0.02 0.02 0.02 0.02
0.03 0.03 0.03 0.03 0.03 0.03 0.03 0.04 0.04 0.03 0.03 0.02 0.02 0.02 0.02 0.03 0.04 0.04 0.05 0.07 0.07 0.07 0.06 0.05 0.03 0.03 0.03 0.03 0.03 0.04 0.04 0.04 0.04 0.04 0.04 0.03 0.02 0.02 0.02 0.02 0.02 0.03 0.03
0.02 0.03 0.02 0.02 0.03 0.03 0.03 0.03 0.03 0.03 0.02 0.02 0.01 0.01 0.02 0.02 0.02 0.03 0.04 0.05 0.06 0.06 0.07 0.08 0.06 0.04 0.03 0.02 0.02 0.02 0.02 0.02 0.02 0.02 0.02 0.02 0.02 0.02 0.02 0.02 0.02 0.02 0.03
0.02 0.02 0.02 0.02 0.02 0.02 0.02 0.03 0.02 0.02 0.02 0.02 0.02 0.01 0.01 0.01 0.01 0.01 0.02 0.03 0.03 0.04 0.05 0.06 0.06 0.05 0.04 0.03 0.02 0.02 0.02 0.03 0.03 0.02 0.02 0.03 0.03 0.02 0.02 0.02 0.02 0.02 0.02
0.03 0.04 0.04 0.03 0.02 0.02 0.01 0.02 0.02 0.02 0.02 0.02 0.02 0.01 0.01 0.01 0.01 0.02 0.02 0.03 0.04 0.04 0.03 0.04 0.04 0.03 0.02 0.02 0.02 0.03 0.03 0.03 0.03 0.02 0.02 0.03 0.04 0.03 0.03 0.02 0.02 0.01 0.01
0.03 0.03 0.03 0.04 0.03 0.03 0.03 0.02 0.02 0.02 0.01 0.02 0.02 0.02 0.02 0.02 0.02 0.02 0.02 0.02 0.02 0.03 0.03 0.03 0.03 0.03 0.02 0.02 0.02 0.02 0.03 0.03 0.04 0.03 0.02 0.02 0.02 0.02 0.02 0.02 0.02 0.01 0.01
0.03 0.03 0.03 0.04 0.05 0.05 0.04 0.03 0.02 0.02 0.02 0.02 0.02 0.01 0.01 0.01 0.01 0.02 0.02 0.02 0.01 0.01 0.02 0.02 0.02 0.02 0.02 0.02 0.03 0.03 0.03 0.02 0.03 0.03 0.01 0.02 0.02 0.02 0.02 0.01 0.01 0.01 0.00
0.02 0.02 0.02 0.03 0.04 0.05 0.05 0.04 0.03 0.02 0.02 0.03 0.02 0.01 0.01 0.01 0.02 0.01 0.01 0.01 0.01 0.01 0.01 0.01 0.01 0.02 0.02 0.03 0.03 0.05 0.04 0.02 0.03 0.03 0.02 0.03 0.02 0.01 0.01 0.01 0.01 0.00 0.00
0.02 0.03 0.03 0.03 0.03 0.03 0.04 0.04 0.03 0.02 0.01 0.01 0.02 0.01 0.01 0.01 0.01 0.01 0.01 0.01 0.01 0.01 0.00 0.00 0.01 0.01 0.02 0.02 0.03 0.04 0.04 0.03 0.03 0.03 0.03 0.03 0.02 0.01 0.00 0.00 0.00 0.00 0.00
0.03 0.03 0.03 0.03 0.03 0.03 0.03 0.03 0.03 0.02 0.02 0.01 0.01 0.01 0.02 0.01 0.01 0.01 0.01 0.01 0.01 0.01 0.01 0.01 0.01 0.01 0.01 0.02 0.02 0.02 0.03 0.03 0.04 0.04 0.03 0.03 0.02 0.01 0.00 0.00 0.00 0.00 0.00
0.03 0.03 0.02 0.03 0.02 0.02 0.03 0.03 0.02 0.02 0.02 0.01 0.01 0.01 0.01 0.01 0.01 0.01 0.01 0.01 0.01 0.00 0.00 0.00 0.00 0.01 0.01 0.01 0.01 0.02 0.02 0.03 0.04 0.03 0.03 0.03 0.01 0.01 0.00 0.00 0.00 0.00 0.00

GEFSMA_prec_meanprec_132.txt.gz
QPF
0.07 0.06 0.05 0.06 0.05 0.04 0.05 0.06 0.07 0.08 0.07 0.07 0.07 0.06 0.06 0.06 0.05 0.06 0.07 0.05 0.04 0.06 0.09 0.12 0.14 0.12 0.10 0.10 0.09 0.08 0.08 0.08 0.07 0.05 0.04 0.04 0.04 0.03 0.03 0.04 0.04 0.03 0.03
0.08 0.07 0.07 0.07 0.07 0.06 0.06 0.06 0.07 0.09 0.08 0.09 0.08 0.07 0.07 0.06 0.06 0.09 0.10 0.09 0.05 0.05 0.06 0.10 0.13 0.14 0.13 0.10 0.10 0.08 0.07 0.06 0.05 0.05 0.04 0.03 0.02 0.02 0.03 0.03 0.03 0.03 0.03
0.09 0.09 0.09 0.10 0.10 0.09 0.09 0.08 0.09 0.09 0.10 0.09 0.09 0.09 0.10 0.09 0.09 0.10 0.12 0.13 0.09 0.06 0.06 0.08 0.11 0.12 0.12 0.13 0.11 0.08 0.05 0.04 0.04 0.04 0.04 0.03 0.02 0.02 0.02 0.02 0.02 0.03 0.03
0.09 0.11 0.11 0.12 0.11 0.11 0.11 0.10 0.09 0.09 0.09 0.08 0.09 0.09 0.10 0.10 0.12 0.11 0.12 0.12 0.13 0.12 0.10 0.09 0.09 0.10 0.10 0.12 0.11 0.08 0.06 0.04 0.04 0.04 0.04 0.03 0.02 0.02 0.02 0.02 0.02 0.02 0.02
0.11 0.14 0.15 0.13 0.11 0.13 0.13 0.12 0.12 0.12 0.11 0.10 0.09 0.10 0.10 0.08 0.10 0.10 0.10 0.11 0.11 0.14 0.15 0.12 0.10 0.11 0.13 0.15 0.13 0.10 0.08 0.05 0.04 0.04 0.04 0.04 0.03 0.02 0.02 0.02 0.02 0.02 0.02
0.10 0.12 0.13 0.13 0.10 0.11 0.13 0.13 0.14 0.15 0.15 0.13 0.14 0.14 0.13 0.10 0.08 0.09 0.08 0.11 0.12 0.12 0.15 0.18 0.19 0.15 0.13 0.13 0.12 0.12 0.11 0.07 0.06 0.05 0.04 0.04 0.04 0.03 0.02 0.02 0.02 0.02 0.02
0.14 0.12 0.11 0.10 0.10 0.12 0.15 0.15 0.16 0.17 0.21 0.20 0.18 0.19 0.15 0.11 0.09 0.09 0.09 0.10 0.10 0.12 0.11 0.13 0.14 0.13 0.09 0.08 0.08 0.09 0.10 0.10 0.08 0.06 0.05 0.05 0.05 0.05 0.03 0.02 0.01 0.02 0.02
0.13 0.11 0.11 0.09 0.10 0.13 0.15 0.15 0.15 0.15 0.16 0.17 0.16 0.17 0.17 0.15 0.12 0.10 0.11 0.12 0.11 0.11 0.11 0.10 0.12 0.13 0.10 0.08 0.06 0.06 0.07 0.08 0.09 0.07 0.06 0.06 0.06 0.06 0.06 0.05 0.03 0.03 0.02
0.08 0.09 0.09 0.09 0.08 0.11 0.13 0.15 0.14 0.17 0.19 0.20 0.18 0.19 0.19 0.18 0.14 0.13 0.15 0.16 0.15 0.11 0.09 0.09 0.11 0.12 0.10 0.10 0.08 0.08 0.08 0.07 0.07 0.07 0.07 0.06 0.06 0.06 0.06 0.06 0.05 0.05 0.04
0.09 0.10 0.10 0.10 0.10 0.12 0.12 0.14 0.14 0.18 0.22 0.22 0.22 0.19 0.18 0.17 0.16 0.15 0.16 0.18 0.15 0.13 0.09 0.06 0.07 0.08 0.10 0.12 0.12 0.11 0.11 0.11 0.09 0.08 0.07 0.06 0.06 0.06 0.06 0.07 0.06 0.06 0.06
0.10 0.10 0.13 0.16 0.16 0.16 0.16 0.17 0.17 0.17 0.18 0.17 0.17 0.19 0.19 0.18 0.17 0.15 0.17 0.18 0.18 0.16 0.12 0.08 0.07 0.08 0.10 0.12 0.13 0.13 0.13 0.11 0.10 0.10 0.11 0.11 0.12 0.14 0.14 0.13 0.14 0.14 0.13
0.07 0.07 0.08 0.10 0.14 0.14 0.14 0.13 0.15 0.15 0.15 0.16 0.16 0.16 0.15 0.15 0.17 0.17 0.17 0.17 0.17 0.17 0.14 0.12 0.10 0.08 0.08 0.07 0.07 0.09 0.10 0.09 0.08 0.08 0.10 0.11 0.14 0.17 0.19 0.19 0.19 0.18 0.15
0.05 0.05 0.04 0.05 0.08 0.09 0.10 0.10 0.11 0.12 0.15 0.15 0.13 0.14 0.16 0.17 0.16 0.17 0.19 0.21 0.20 0.19 0.17 0.14 0.11 0.09 0.08 0.09 0.09 0.11 0.12 0.12 0.10 0.09 0.09 0.10 0.12 0.13 0.12 0.13 0.13 0.13 0.12
0.03 0.03 0.03 0.03 0.05 0.06 0.06 0.06 0.08 0.10 0.13 0.15 0.15 0.15 0.15 0.15 0.17 0.18 0.19 0.20 0.23 0.22 0.17 0.14 0.12 0.11 0.09 0.08 0.09 0.09 0.08 0.08 0.08 0.10 0.09 0.08 0.07 0.08 0.08 0.09 0.09 0.09 0.09
0.03 0.03 0.03 0.03 0.03 0.04 0.05 0.04 0.05 0.06 0.09 0.11 0.12 0.12 0.14 0.14 0.17 0.20 0.21 0.20 0.19 0.21 0.20 0.16 0.14 0.14 0.12 0.09 0.09 0.06 0.06 0.06 0.06 0.06 0.06 0.06 0.07 0.08 0.08 0.07 0.06 0.05 0.06
0.03 0.03 0.03 0.03 0.03 0.03 0.03 0.03 0.04 0.05 0.06 0.08 0.08 0.08 0.09 0.09 0.10 0.14 0.17 0.19 0.18 0.16 0.17 0.17 0.15 0.14 0.13 0.11 0.09 0.07 0.06 0.05 0.05 0.04 0.04 0.04 0.04 0.04 0.05 0.05 0.05 0.05 0.05
0.03 0.03 0.03 0.03 0.03 0.03 0.03 0.03 0.03 0.04 0.05 0.05 0.06 0.08 0.08 0.06 0.06 0.07 0.09 0.13 0.18 0.17 0.17 0.16 0.16 0.15 0.14 0.11 0.08 0.06 0.05 0.04 0.04 0.05 0.04 0.03 0.03 0.03 0.04 0.05 0.05 0.05 0.04
0.03 0.04 0.04 0.03 0.03 0.04 0.03 0.03 0.03 0.03 0.04 0.05 0.05 0.06 0.07 0.07 0.05 0.05 0.06 0.09 0.14 0.16 0.15 0.14 0.13 0.13 0.11 0.08 0.06 0.04 0.03 0.02 0.03 0.03 0.02 0.02 0.03 0.03 0.03 0.03 0.04 0.04 0.04
0.04 0.05 0.05 0.04 0.03 0.05 0.04 0.03 0.02 0.03 0.03 0.03 0.04 0.04 0.05 0.07 0.07 0.06 0.05 0.06 0.08 0.10 0.11 0.11 0.12 0.11 0.10 0.08 0.07 0.06 0.04 0.03 0.02 0.02 0.01 0.01 0.01 0.01 0.02 0.02 0.02 0.03 0.03
0.03 0.04 0.05 0.04 0.03 0.02 0.03 0.03 0.02 0.03 0.03 0.03 0.03 0.03 0.03 0.03 0.04 0.04 0.03 0.04 0.05 0.06 0.07 0.09 0.10 0.10 0.09 0.08 0.08 0.07 0.06 0.04 0.03 0.02 0.01 0.01 0.01 0.01 0.02 0.02 0.02 0.02 0.02
0.02 0.02 0.03 0.03 0.02 0.01 0.01 0.01 0.01 0.02 0.02 0.03 0.03 0.03 0.02 0.02 0.03 0.03 0.02 0.02 0.03 0.05 0.06 0.07 0.08 0.09 0.07 0.07 0.06 0.04 0.04 0.04 0.03 0.03 0.03 0.02 0.02 0.02 0.02 0.02 0.02 0.02 0.02
0.03 0.02 0.03 0.03 0.03 0.01 0.01 0.01 0.01 0.02 0.02 0.02 0.02 0.02 0.02 0.02 0.02 0.02 0.02 0.03 0.03 0.04 0.05 0.06 0.07 0.07 0.06 0.05 0.05 0.04 0.03 0.03 0.04 0.03 0.03 0.03 0.02 0.03 0.03 0.03 0.02 0.01 0.01
0.05 0.04 0.05 0.05 0.05 0.03 0.02 0.01 0.02 0.02 0.02 0.02 0.02 0.03 0.02 0.01 0.02 0.02 0.02 0.02 0.02 0.02 0.03 0.04 0.06 0.06 0.06 0.05 0.04 0.04 0.04 0.04 0.05 0.04 0.03 0.03 0.03 0.03 0.02 0.01 0.01 0.01 0.01
0.05 0.06 0.06 0.06 0.05 0.03 0.02 0.02 0.02 0.03 0.04 0.03 0.03 0.03 0.02 0.02 0.01 0.01 0.02 0.03 0.02 0.02 0.01 0.02 0.03 0.03 0.03 0.03 0.04 0.04 0.04 0.05 0.06 0.04 0.03 0.04 0.03 0.02 0.01 0.02 0.02 0.01 0.01
0.05 0.05 0.06 0.06 0.05 0.04 0.03 0.02 0.03 0.04 0.04 0.04 0.03 0.03 0.02 0.01 0.01 0.01 0.02 0.03 0.02 0.02 0.01 0.02 0.02 0.02 0.02 0.02 0.02 0.03 0.05 0.06 0.07 0.06 0.04 0.05 0.04 0.02 0.02 0.02 0.02 0.02 0.01
0.05 0.04 0.04 0.04 0.03 0.03 0.02 0.01 0.02 0.04 0.05 0.05 0.04 0.04 0.03 0.03 0.02 0.01 0.03 0.04 0.03 0.02 0.02 0.02 0.02 0.01 0.01 0.01 0.01 0.02 0.04 0.05 0.06 0.06 0.04 0.04 0.04 0.03 0.04 0.03 0.02 0.02 0.02

GEFSMA_prec_meanprec_138.txt.gz
QPF
0.14 0.14 0.16 0.22 0.19 0.17 0.17 0.15 0.12 0.11 0.10 0.10 0.07 0.06 0.06 0.06 0.09 0.11 0.12 0.13 0.14 0.12 0.09 0.08 0.07 0.07 0.07 0.08 0.06 0.06 0.07 0.07 0.06 0.05 0.04 0.03 0.03 0.02 0.02 0.02 0.02 0.02 0.02
0.17 0.17 0.17 0.18 0.17 0.20 0.21 0.15 0.13 0.13 0.13 0.12 0.08 0.06 0.06 0.06 0.08 0.09 0.11 0.13 0.10 0.09 0.08 0.07 0.07 0.07 0.08 0.08 0.06 0.07 0.07 0.06 0.06 0.05 0.04 0.03 0.02 0.01 0.01 0.01 0.02 0.02 0.01
0.19 0.20 0.22 0.20 0.18 0.17 0.18 0.16 0.15 0.14 0.14 0.13 0.11 0.09 0.08 0.08 0.09 0.11 0.12 0.14 0.12 0.08 0.06 0.07 0.07 0.08 0.10 0.10 0.09 0.09 0.08 0.08 0.07 0.06 0.05 0.04 0.03 0.02 0.01 0.01 0.01 0.01 0.01
0.17 0.20 0.20 0.18 0.17 0.16 0.17 0.17 0.18 0.17 0.15 0.15 0.14 0.11 0.11 0.11 0.10 0.11 0.12 0.14 0.15 0.13 0.10 0.09 0.10 0.11 0.12 0.12 0.12 0.11 0.09 0.08 0.07 0.07 0.05 0.04 0.03 0.02 0.02 0.02 0.01 0.01 0.01
0.17 0.21 0.20 0.19 0.18 0.19 0.19 0.18 0.20 0.18 0.16 0.15 0.13 0.13 0.11 0.11 0.12 0.11 0.11 0.12 0.13 0.12 0.12 0.14 0.14 0.13 0.11 0.12 0.15 0.16 0.12 0.09 0.07 0.07 0.06 0.05 0.04 0.03 0.03 0.02 0.02 0.02 0.01
0.10 0.13 0.16 0.20 0.20 0.21 0.20 0.21 0.23 0.21 0.17 0.14 0.12 0.13 0.12 0.10 0.11 0.11 0.12 0.12 0.11 0.09 0.10 0.13 0.18 0.19 0.16 0.15 0.18 0.21 0.22 0.16 0.10 0.07 0.06 0.05 0.05 0.04 0.03 0.03 0.02 0.01 0.01
0.07 0.09 0.11 0.13 0.15 0.16 0.16 0.18 0.20 0.19 0.17 0.17 0.14 0.12 0.11 0.11 0.10 0.11 0.12 0.11 0.10 0.10 0.11 0.12 0.15 0.19 0.20 0.15 0.13 0.14 0.16 0.16 0.14 0.11 0.08 0.07 0.06 0.05 0.05 0.05 0.04 0.03 0.02
0.04 0.04 0.06 0.08 0.10 0.12 0.13 0.16 0.16 0.17 0.17 0.16 0.15 0.16 0.15 0.12 0.11 0.10 0.11 0.11 0.13 0.15 0.15 0.13 0.13 0.17 0.18 0.15 0.11 0.11 0.10 0.09 0.10 0.11 0.11 0.08 0.06 0.05 0.05 0.06 0.06 0.05 0.04
0.01 0.02 0.03 0.05 0.07 0.09 0.11 0.15 0.17 0.18 0.19 0.20 0.21 0.21 0.18 0.14 0.12 0.11 0.10 0.12 0.15 0.17 0.17 0.15 0.14 0.16 0.16 0.13 0.12 0.11 0.09 0.08 0.07 0.07 0.09 0.08 0.07 0.06 0.05 0.06 0.06 0.06 0.05
0.02 0.02 0.03 0.05 0.07 0.08 0.09 0.11 0.14 0.18 0.19 0.18 0.17 0.16 0.14 0.13 0.12 0.11 0.10 0.12 0.15 0.17 0.17 0.15 0.15 0.14 0.13 0.12 0.11 0.11 0.10 0.09 0.09 0.09 0.09 0.08 0.07 0.06 0.05 0.06 0.06 0.06 0.07
0.03 0.03 0.04 0.05 0.08 0.10 0.10 0.11 0.12 0.13 0.15 0.15 0.14 0.13 0.11 0.11 0.10 0.09 0.10 0.13 0.15 0.16 0.15 0.15 0.15 0.14 0.13 0.12 0.12 0.12 0.11 0.11 0.12 0.11 0.10 0.09 0.07 0.07 0.06 0.07 0.08 0.09 0.11
0.04 0.03 0.03 0.05 0.08 0.09 0.09 0.09 0.09 0.10 0.13 0.15 0.17 0.14 0.12 0.12 0.12 0.12 0.14 0.16 0.17 0.17 0.16 0.15 0.15 0.14 0.14 0.13 0.11 0.13 0.11 0.09 0.09 0.10 0.10 0.08 0.06 0.06 0.06 0.07 0.08 0.10 0.13
0.02 0.02 0.03 0.04 0.05 0.08 0.07 0.06 0.05 0.06 0.09 0.13 0.16 0.16 0.13 0.13 0.13 0.15 0.16 0.17 0.17 0.16 0.13 0.11 0.10 0.10 0.10 0.10 0.10 0.10 0.09 0.10 0.08 0.08 0.09 0.09 0.07 0.05 0.05 0.05 0.06 0.09 0.11
0.02 0.02 0.03 0.03 0.04 0.04 0.03 0.04 0.05 0.05 0.06 0.08 0.10 0.12 0.12 0.11 0.12 0.13 0.12 0.13 0.14 0.14 0.13 0.11 0.11 0.10 0.11 0.10 0.09 0.08 0.07 0.08 0.07 0.06 0.05 0.05 0.05 0.04 0.04 0.04 0.05 0.06 0.07
0.02 0.02 0.02 0.03 0.03 0.03 0.02 0.02 0.04 0.04 0.03 0.04 0.06 0.06 0.07 0.08 0.09 0.11 0.11 0.10 0.11 0.12 0.12 0.11 0.13 0.14 0.12 0.11 0.12 0.08 0.06 0.07 0.06 0.05 0.04 0.04 0.04 0.05 0.05 0.05 0.04 0.04 0.04
0.02 0.02 0.03 0.03 0.03 0.03 0.03 0.03 0.03 0.04 0.04 0.04 0.05 0.06 0.08 0.09 0.09 0.08 0.08 0.08 0.08 0.09 0.11 0.11 0.12 0.13 0.13 0.12 0.13 0.09 0.08 0.08 0.06 0.05 0.04 0.03 0.03 0.03 0.05 0.07 0.07 0.05 0.04
0.01 0.02 0.02 0.03 0.03 0.03 0.03 0.03 0.04 0.04 0.05 0.06 0.06 0.07 0.08 0.09 0.07 0.06 0.06 0.07 0.07 0.08 0.10 0.12 0.12 0.12 0.13 0.14 0.15 0.12 0.10 0.08 0.07 0.06 0.05 0.04 0.03 0.03 0.03 0.04 0.04 0.04 0.03
0.01 0.01 0.01 0.02 0.01 0.02 0.02 0.03 0.03 0.04 0.05 0.07 0.08 0.08 0.08 0.08 0.07 0.06 0.05 0.06 0.06 0.08 0.10 0.11 0.12 0.11 0.12 0.11 0.12 0.11 0.09 0.08 0.07 0.06 0.05 0.04 0.03 0.03 0.03 0.02 0.02 0.02 0.02
0.01 0.02 0.03 0.03 0.03 0.02 0.02 0.02 0.02 0.03 0.05 0.07 0.08 0.10 0.11 0.11 0.09 0.07 0.06 0.05 0.06 0.07 0.08 0.08 0.10 0.11 0.11 0.11 0.12 0.12 0.10 0.08 0.07 0.05 0.04 0.03 0.02 0.02 0.02 0.02 0.02 0.02 0.03
0.02 0.03 0.05 0.03 0.03 0.04 0.05 0.04 0.03 0.05 0.05 0.06 0.07 0.08 0.09 0.11 0.09 0.06 0.05 0.04 0.06 0.07 0.08 0.09 0.10 0.11 0.11 0.11 0.12 0.11 0.09 0.07 0.05 0.04 0.03 0.03 0.02 0.01 0.01 0.01 0.01 0.01 0.01
0.01 0.02 0.05 0.06 0.06 0.05 0.06 0.07 0.06 0.06 0.07 0.07 0.06 0.05 0.05 0.06 0.07 0.05 0.03 0.03 0.03 0.05 0.07 0.07 0.07 0.08 0.08 0.08 0.09 0.08 0.08 0.07 0.05 0.03 0.03 0.03 0.03 0.02 0.01 0.01 0.01 0.00 0.01
0.03 0.03 0.05 0.06 0.08 0.07 0.07 0.06 0.05 0.06 0.07 0.06 0.05 0.04 0.04 0.05 0.04 0.05 0.03 0.02 0.02 0.04 0.06 0.06 0.06 0.07 0.07 0.07 0.08 0.08 0.07 0.08 0.08 0.05 0.04 0.05 0.04 0.04 0.03 0.02 0.01 0.01 0.00
0.05 0.05 0.06 0.07 0.06 0.06 0.06 0.05 0.04 0.04 0.05 0.05 0.05 0.04 0.03 0.02 0.03 0.05 0.04 0.03 0.03 0.03 0.03 0.04 0.05 0.06 0.06 0.05 0.05 0.06 0.06 0.07 0.07 0.05 0.05 0.06 0.05 0.04 0.03 0.01 0.01 0.01 0.00
0.07 0.07 0.07 0.07 0.05 0.04 0.03 0.03 0.03 0.05 0.05 0.04 0.04 0.05 0.04 0.03 0.01 0.02 0.04 0.04 0.04 0.03 0.02 0.03 0.04 0.03 0.03 0.03 0.03 0.04 0.04 0.05 0.06 0.05 0.05 0.07 0.06 0.04 0.02 0.02 0.02 0.01 0.00
0.07 0.07 0.07 0.07 0.06 0.05 0.04 0.04 0.03 0.05 0.05 0.04 0.03 0.03 0.03 0.02 0.01 0.01 0.03 0.06 0.06 0.04 0.01 0.01 0.01 0.01 0.02 0.02 0.02 0.03 0.05 0.06 0.07 0.07 0.05 0.05 0.05 0.04 0.04 0.03 0.02 0.01 0.00
0.07 0.06 0.05 0.05 0.05 0.06 0.04 0.03 0.03 0.05 0.05 0.05 0.04 0.03 0.02 0.01 0.02 0.02 0.04 0.06 0.06 0.05 0.04 0.03 0.02 0.02 0.02 0.01 0.01 0.03 0.05 0.06 0.07 0.07 0.04 0.04 0.05 0.04 0.04 0.03 0.02 0.02 0.01

GEFSMA_prec_meanprec_144.txt.gz
QPF
0.18 0.14 0.14 0.16 0.20 0.16 0.15 0.10 0.09 0.08 0.08 0.11 0.11 0.09 0.11 0.12 0.11 0.10 0.09 0.13 0.15 0.20 0.17 0.12 0.10 0.08 0.08 0.08 0.08 0.07 0.05 0.05 0.05 0.03 0.02 0.01 0.02 0.02 0.02 0.02 0.02 0.01 0.01
0.15 0.14 0.15 0.19 0.19 0.18 0.18 0.14 0.12 0.12 0.09 0.09 0.13 0.13 0.12 0.12 0.12 0.13 0.11 0.11 0.12 0.14 0.13 0.10 0.09 0.08 0.08 0.08 0.07 0.07 0.06 0.06 0.05 0.04 0.04 0.03 0.02 0.02 0.02 0.01 0.01 0.01 0.01
0.15 0.17 0.16 0.15 0.16 0.14 0.14 0.16 0.15 0.14 0.11 0.10 0.13 0.16 0.18 0.17 0.16 0.17 0.18 0.12 0.09 0.10 0.11 0.10 0.08 0.08 0.08 0.09 0.09 0.08 0.07 0.06 0.06 0.05 0.05 0.04 0.03 0.02 0.01 0.01 0.01 0.01 0.01
0.12 0.15 0.16 0.16 0.12 0.12 0.13 0.16 0.16 0.16 0.16 0.13 0.11 0.13 0.16 0.18 0.20 0.20 0.18 0.13 0.10 0.09 0.09 0.08 0.08 0.09 0.09 0.10 0.11 0.11 0.08 0.06 0.06 0.05 0.04 0.04 0.04 0.04 0.03 0.02 0.01 0.01 0.01
0.12 0.12 0.13 0.15 0.12 0.11 0.12 0.15 0.17 0.18 0.17 0.15 0.13 0.12 0.14 0.13 0.14 0.17 0.15 0.12 0.09 0.07 0.05 0.06 0.08 0.08 0.09 0.10 0.11 0.11 0.10 0.09 0.07 0.05 0.05 0.04 0.05 0.04 0.04 0.03 0.02 0.01 0.01
0.06 0.06 0.09 0.10 0.08 0.09 0.12 0.15 0.16 0.18 0.17 0.14 0.13 0.13 0.12 0.10 0.09 0.11 0.12 0.11 0.10 0.08 0.07 0.06 0.07 0.08 0.10 0.10 0.13 0.14 0.13 0.13 0.09 0.07 0.06 0.05 0.04 0.04 0.04 0.04 0.03 0.02 0.01
0.06 0.06 0.05 0.05 0.05 0.06 0.07 0.08 0.08 0.14 0.15 0.12 0.11 0.11 0.11 0.08 0.06 0.07 0.11 0.12 0.11 0.11 0.10 0.09 0.08 0.07 0.08 0.10 0.13 0.14 0.15 0.18 0.17 0.11 0.07 0.06 0.04 0.04 0.03 0.03 0.02 0.02 0.02
0.04 0.03 0.02 0.02 0.03 0.03 0.04 0.05 0.05 0.06 0.09 0.10 0.10 0.09 0.09 0.08 0.06 0.06 0.10 0.12 0.11 0.10 0.10 0.11 0.11 0.10 0.09 0.14 0.18 0.14 0.13 0.15 0.18 0.19 0.13 0.08 0.07 0.05 0.04 0.04 0.04 0.03 0.02
0.01 0.01 0.00 0.01 0.01 0.02 0.02 0.04 0.06 0.06 0.07 0.08 0.09 0.09 0.08 0.08 0.07 0.07 0.08 0.10 0.11 0.11 0.12 0.12 0.11 0.12 0.15 0.16 0.15 0.15 0.15 0.13 0.13 0.13 0.12 0.09 0.08 0.07 0.06 0.05 0.05 0.04 0.03
0.00 0.01 0.01 0.01 0.01 0.02 0.03 0.04 0.06 0.08 0.09 0.10 0.11 0.11 0.08 0.08 0.09 0.09 0.08 0.08 0.08 0.08 0.09 0.11 0.10 0.10 0.11 0.13 0.14 0.16 0.14 0.11 0.09 0.09 0.08 0.08 0.08 0.07 0.06 0.06 0.06 0.05 0.04
0.02 0.02 0.02 0.01 0.02 0.02 0.03 0.03 0.04 0.06 0.07 0.09 0.11 0.11 0.11 0.11 0.10 0.07 0.06 0.07 0.07 0.07 0.08 0.09 0.10 0.10 0.11 0.12 0.13 0.13 0.12 0.09 0.08 0.08 0.09 0.08 0.08 0.07 0.07 0.06 0.06 0.06 0.06
0.03 0.03 0.03 0.02 0.03 0.03 0.02 0.02 0.04 0.05 0.05 0.06 0.07 0.09 0.11 0.11 0.09 0.07 0.05 0.05 0.06 0.06 0.07 0.07 0.08 0.09 0.10 0.10 0.10 0.11 0.09 0.07 0.06 0.07 0.09 0.10 0.09 0.08 0.07 0.06 0.05 0.05 0.05
0.03 0.03 0.04 0.04 0.03 0.02 0.03 0.04 0.04 0.03 0.02 0.03 0.04 0.06 0.08 0.11 0.10 0.09 0.07 0.06 0.05 0.05 0.06 0.07 0.06 0.06 0.07 0.08 0.10 0.10 0.08 0.05 0.04 0.04 0.06 0.09 0.10 0.08 0.06 0.06 0.07 0.07 0.06
0.03 0.04 0.04 0.03 0.03 0.03 0.03 0.05 0.06 0.05 0.03 0.03 0.03 0.05 0.08 0.10 0.09 0.09 0.08 0.08 0.07 0.06 0.06 0.06 0.06 0.04 0.04 0.06 0.08 0.08 0.07 0.08 0.06 0.05 0.05 0.06 0.10 0.10 0.07 0.05 0.05 0.05 0.06
0.03 0.03 0.02 0.02 0.02 0.02 0.03 0.04 0.06 0.08 0.05 0.04 0.04 0.06 0.08 0.07 0.07 0.08 0.07 0.07 0.07 0.06 0.05 0.04 0.05 0.05 0.04 0.05 0.08 0.07 0.05 0.05 0.07 0.08 0.07 0.06 0.07 0.09 0.09 0.06 0.05 0.04 0.05
0.02 0.02 0.01 0.01 0.02 0.02 0.03 0.03 0.03 0.03 0.04 0.04 0.04 0.04 0.05 0.06 0.08 0.08 0.08 0.07 0.07 0.06 0.05 0.04 0.04 0.05 0.05 0.05 0.07 0.04 0.03 0.05 0.05 0.06 0.07 0.07 0.07 0.08 0.08 0.07 0.06 0.06 0.05
0.02 0.02 0.01 0.01 0.02 0.03 0.03 0.03 0.03 0.03 0.03 0.04 0.03 0.03 0.05 0.06 0.07 0.07 0.07 0.06 0.05 0.04 0.04 0.04 0.04 0.05 0.05 0.05 0.06 0.05 0.05 0.05 0.06 0.07 0.07 0.07 0.06 0.05 0.05 0.06 0.05 0.05 0.04
0.01 0.01 0.01 0.01 0.00 0.01 0.02 0.02 0.02 0.02 0.03 0.04 0.04 0.03 0.04 0.05 0.05 0.05 0.05 0.04 0.04 0.03 0.03 0.03 0.03 0.04 0.05 0.04 0.04 0.05 0.05 0.05 0.06 0.08 0.06 0.06 0.05 0.05 0.04 0.03 0.03 0.03 0.03
0.02 0.01 0.01 0.01 0.00 0.00 0.01 0.01 0.02 0.02 0.03 0.03 0.03 0.04 0.05 0.06 0.05 0.05 0.04 0.03 0.03 0.03 0.03 0.03 0.04 0.04 0.04 0.04 0.05 0.06 0.06 0.06 0.06 0.07 0.06 0.05 0.05 0.04 0.04 0.03 0.02 0.03 0.03
0.02 0.02 0.02 0.01 0.00 0.00 0.01 0.01 0.01 0.02 0.02 0.03 0.04 0.04 0.05 0.06 0.05 0.06 0.05 0.04 0.03 0.03 0.03 0.03 0.03 0.03 0.05 0.06 0.05 0.05 0.06 0.06 0.06 0.05 0.05 0.04 0.04 0.04 0.04 0.03 0.02 0.02 0.02
0.01 0.01 0.01 0.01 0.00 0.01 0.01 0.02 0.02 0.02 0.02 0.04 0.06 0.06 0.06 0.07 0.07 0.07 0.06 0.05 0.03 0.03 0.03 0.03 0.03 0.03 0.04 0.04 0.05 0.04 0.04 0.05 0.05 0.05 0.04 0.03 0.03 0.03 0.03 0.03 0.02 0.02 0.02
0.00 0.00 0.00 0.01 0.01 0.02 0.03 0.04 0.03 0.03 0.03 0.04 0.06 0.08 0.08 0.09 0.09 0.07 0.06 0.06 0.04 0.03 0.03 0.04 0.03 0.03 0.03 0.03 0.04 0.04 0.05 0.05 0.06 0.05 0.03 0.03 0.02 0.02 0.01 0.01 0.02 0.03 0.02
0.01 0.01 0.01 0.02 0.02 0.04 0.06 0.06 0.06 0.05 0.06 0.06 0.06 0.07 0.08 0.08 0.08 0.06 0.05 0.04 0.04 0.03 0.03 0.04 0.04 0.03 0.04 0.03 0.03 0.03 0.04 0.04 0.03 0.03 0.03 0.03 0.02 0.02 0.01 0.01 0.02 0.02 0.02
0.01 0.01 0.02 0.03 0.04 0.06 0.07 0.07 0.07 0.07 0.07 0.08 0.07 0.06 0.06 0.05 0.06 0.05 0.03 0.03 0.03 0.03 0.04 0.03 0.03 0.02 0.02 0.02 0.02 0.02 0.02 0.02 0.02 0.03 0.02 0.02 0.02 0.02 0.02 0.01 0.01 0.01 0.01
0.02 0.02 0.02 0.02 0.04 0.06 0.07 0.07 0.07 0.07 0.07 0.08 0.05 0.05 0.05 0.04 0.05 0.05 0.03 0.03 0.02 0.02 0.03 0.03 0.02 0.02 0.02 0.01 0.01 0.01 0.02 0.02 0.01 0.02 0.01 0.01 0.01 0.02 0.01 0.01 0.01 0.01 0.00
0.02 0.02 0.02 0.02 0.03 0.03 0.04 0.04 0.04 0.04 0.04 0.04 0.02 0.02 0.03 0.03 0.04 0.04 0.02 0.02 0.02 0.01 0.01 0.01 0.01 0.02 0.02 0.02 0.02 0.02 0.02 0.02 0.02 0.02 0.01 0.01 0.01 0.01 0.01 0.01 0.01 0.01 0.00

GEFSMA_prec_meanprec_150.txt.gz
QPF
0.01 0.02 0.02 0.04 0.06 0.08 0.07 0.05 0.05 0.04 0.04 0.05 0.04 0.03 0.03 0.03 0.03 0.04 0.05 0.05 0.07 0.09 0.11 0.11 0.13 0.12 0.11 0.12 0.12 0.12 0.09 0.07 0.07 0.06 0.05 0.05 0.04 0.04 0.04 0.04 0.03 0.02 0.02
0.03 0.02 0.02 0.05 0.07 0.07 0.06 0.07 0.06 0.06 0.05 0.05 0.05 0.05 0.04 0.04 0.03 0.05 0.06 0.06 0.09 0.10 0.13 0.15 0.15 0.15 0.15 0.15 0.15 0.13 0.11 0.09 0.07 0.05 0.05 0.05 0.04 0.04 0.04 0.03 0.03 0.02 0.02
0.04 0.04 0.04 0.05 0.05 0.06 0.07 0.07 0.05 0.06 0.07 0.07 0.07 0.07 0.06 0.05 0.05 0.06 0.08 0.09 0.10 0.12 0.13 0.13 0.14 0.18 0.22 0.20 0.18 0.18 0.16 0.13 0.10 0.09 0.07 0.06 0.05 0.06 0.05 0.04 0.04 0.03 0.02
0.05 0.04 0.04 0.04 0.04 0.04 0.05 0.05 0.06 0.09 0.09 0.09 0.08 0.07 0.07 0.07 0.07 0.07 0.10 0.15 0.14 0.12 0.12 0.12 0.12 0.11 0.13 0.16 0.17 0.18 0.17 0.14 0.11 0.10 0.10 0.09 0.07 0.06 0.06 0.06 0.05 0.04 0.03
0.04 0.05 0.06 0.06 0.06 0.04 0.04 0.05 0.05 0.06 0.07 0.09 0.08 0.08 0.08 0.07 0.07 0.08 0.07 0.10 0.12 0.11 0.08 0.08 0.09 0.09 0.09 0.11 0.13 0.16 0.17 0.16 0.13 0.11 0.10 0.09 0.08 0.05 0.05 0.05 0.05 0.04 0.04
0.03 0.04 0.05 0.06 0.06 0.04 0.03 0.03 0.03 0.03 0.04 0.06 0.07 0.09 0.08 0.07 0.06 0.06 0.06 0.06 0.06 0.07 0.06 0.05 0.06 0.07 0.09 0.11 0.12 0.17 0.21 0.20 0.16 0.14 0.12 0.10 0.08 0.06 0.05 0.05 0.05 0.05 0.04
0.03 0.03 0.04 0.04 0.04 0.04 0.03 0.02 0.02 0.03 0.03 0.04 0.04 0.06 0.06 0.06 0.05 0.04 0.04 0.05 0.05 0.05 0.05 0.05 0.05 0.05 0.07 0.11 0.14 0.19 0.25 0.26 0.21 0.17 0.13 0.10 0.07 0.06 0.05 0.05 0.05 0.05 0.05
0.03 0.03 0.03 0.03 0.03 0.02 0.02 0.02 0.03 0.03 0.03 0.04 0.05 0.07 0.06 0.07 0.07 0.06 0.04 0.04 0.04 0.04 0.05 0.06 0.07 0.07 0.07 0.09 0.14 0.23 0.28 0.29 0.26 0.21 0.16 0.11 0.08 0.07 0.07 0.06 0.07 0.06 0.06
0.03 0.03 0.03 0.03 0.03 0.02 0.02 0.03 0.04 0.04 0.04 0.05 0.06 0.09 0.09 0.06 0.06 0.05 0.03 0.03 0.04 0.05 0.06 0.07 0.07 0.07 0.07 0.08 0.13 0.19 0.24 0.25 0.27 0.22 0.21 0.18 0.13 0.10 0.09 0.08 0.07 0.06 0.06
0.03 0.03 0.04 0.04 0.04 0.04 0.04 0.04 0.04 0.04 0.05 0.05 0.05 0.06 0.08 0.06 0.06 0.05 0.06 0.05 0.05 0.06 0.07 0.08 0.08 0.08 0.08 0.08 0.12 0.15 0.17 0.17 0.19 0.19 0.18 0.19 0.20 0.18 0.15 0.11 0.09 0.08 0.07
0.03 0.03 0.04 0.04 0.04 0.05 0.04 0.04 0.03 0.04 0.04 0.04 0.04 0.05 0.07 0.08 0.08 0.07 0.08 0.08 0.08 0.08 0.09 0.09 0.09 0.08 0.07 0.06 0.06 0.09 0.12 0.12 0.14 0.15 0.16 0.15 0.16 0.18 0.18 0.16 0.12 0.10 0.09
0.03 0.03 0.03 0.03 0.03 0.02 0.02 0.02 0.03 0.04 0.04 0.04 0.04 0.05 0.06 0.06 0.08 0.09 0.08 0.08 0.09 0.10 0.10 0.10 0.10 0.09 0.08 0.07 0.07 0.09 0.09 0.10 0.12 0.12 0.12 0.14 0.12 0.10 0.10 0.10 0.10 0.08 0.07
0.03 0.03 0.02 0.03 0.03 0.02 0.02 0.02 0.02 0.02 0.03 0.03 0.03 0.04 0.04 0.04 0.05 0.06 0.08 0.10 0.10 0.10 0.11 0.09 0.08 0.07 0.07 0.07 0.08 0.08 0.08 0.09 0.09 0.09 0.09 0.11 0.11 0.10 0.09 0.08 0.09 0.09 0.08
0.01 0.02 0.01 0.01 0.01 0.01 0.01 0.02 0.02 0.01 0.02 0.03 0.04 0.03 0.03 0.04 0.04 0.04 0.06 0.07 0.08 0.09 0.09 0.08 0.07 0.06 0.05 0.05 0.05 0.06 0.05 0.06 0.06 0.06 0.07 0.06 0.08 0.10 0.10 0.09 0.09 0.07 0.06
0.01 0.01 0.01 0.00 0.00 0.00 0.01 0.02 0.01 0.02 0.03 0.03 0.04 0.05 0.04 0.04 0.05 0.05 0.05 0.06 0.07 0.07 0.07 0.06 0.05 0.04 0.04 0.03 0.04 0.03 0.04 0.05 0.04 0.04 0.05 0.05 0.06 0.07 0.11 0.10 0.08 0.06 0.04
0.02 0.01 0.01 0.01 0.00 0.00 0.00 0.01 0.01 0.01 0.03 0.04 0.05 0.05 0.05 0.05 0.04 0.04 0.04 0.05 0.06 0.07 0.07 0.05 0.04 0.04 0.04 0.03 0.05 0.04 0.05 0.06 0.05 0.03 0.04 0.05 0.05 0.07 0.10 0.13 0.10 0.07 0.06
0.03 0.03 0.02 0.01 0.01 0.00 0.00 0.00 0.00 0.01 0.01 0.03 0.04 0.05 0.04 0.04 0.05 0.06 0.05 0.05 0.08 0.09 0.09 0.07 0.05 0.06 0.06 0.05 0.07 0.07 0.06 0.06 0.06 0.05 0.05 0.06 0.06 0.07 0.08 0.10 0.12 0.10 0.07
0.02 0.03 0.02 0.01 0.00 0.00 0.00 0.00 0.00 0.01 0.01 0.01 0.02 0.03 0.03 0.03 0.03 0.05 0.05 0.06 0.07 0.07 0.07 0.07 0.05 0.05 0.06 0.06 0.07 0.07 0.07 0.07 0.06 0.06 0.05 0.06 0.07 0.08 0.07 0.07 0.08 0.09 0.08
0.03 0.02 0.02 0.01 0.00 0.00 0.00 0.00 0.00 0.01 0.01 0.01 0.01 0.02 0.02 0.03 0.02 0.03 0.03 0.04 0.04 0.04 0.04 0.05 0.06 0.04 0.04 0.05 0.06 0.07 0.08 0.08 0.07 0.06 0.06 0.07 0.07 0.07 0.06 0.06 0.06 0.06 0.06
0.03 0.03 0.02 0.01 0.00 0.00 0.00 0.00 0.00 0.01 0.01 0.01 0.01 0.02 0.02 0.03 0.03 0.03 0.03 0.04 0.04 0.04 0.04 0.05 0.06 0.05 0.04 0.04 0.04 0.05 0.06 0.06 0.06 0.06 0.07 0.08 0.08 0.07 0.07 0.07 0.06 0.06 0.06
0.03 0.02 0.01 0.02 0.01 0.00 0.00 0.01 0.01 0.01 0.01 0.01 0.01 0.02 0.02 0.03 0.03 0.04 0.05 0.05 0.05 0.05 0.05 0.05 0.05 0.05 0.03 0.04 0.04 0.04 0.04 0.05 0.06 0.06 0.06 0.06 0.06 0.06 0.06 0.07 0.07 0.05 0.04
0.02 0.02 0.01 0.01 0.01 0.00 0.01 0.01 0.01 0.01 0.01 0.01 0.02 0.03 0.04 0.05 0.05 0.06 0.07 0.07 0.07 0.05 0.05 0.04 0.04 0.04 0.02 0.02 0.03 0.03 0.03 0.03 0.05 0.05 0.05 0.06 0.05 0.05 0.04 0.04 0.04 0.04 0.03
0.01 0.01 0.01 0.01 0.01 0.01 0.01 0.01 0.02 0.01 0.01 0.01 0.02 0.04 0.05 0.07 0.09 0.09 0.10 0.11 0.10 0.07 0.06 0.05 0.04 0.03 0.02 0.02 0.02 0.04 0.04 0.04 0.03 0.03 0.03 0.04 0.04 0.03 0.03 0.03 0.02 0.02 0.02
0.01 0.01 0.02 0.03 0.03 0.03 0.04 0.03 0.03 0.02 0.02 0.02 0.04 0.05 0.06 0.10 0.12 0.11 0.11 0.11 0.11 0.08 0.07 0.06 0.04 0.02 0.02 0.02 0.02 0.03 0.04 0.03 0.03 0.02 0.02 0.03 0.02 0.02 0.02 0.01 0.01 0.01 0.01
0.01 0.01 0.02 0.03 0.03 0.05 0.06 0.07 0.06 0.04 0.04 0.05 0.07 0.07 0.08 0.10 0.12 0.11 0.11 0.10 0.08 0.08 0.08 0.07 0.04 0.03 0.02 0.01 0.02 0.02 0.03 0.03 0.03 0.02 0.01 0.01 0.01 0.01 0.01 0.01 0.01 0.01 0.01
0.00 0.01 0.02 0.02 0.02 0.03 0.05 0.06 0.07 0.07 0.06 0.07 0.08 0.09 0.09 0.08 0.08 0.08 0.10 0.10 0.07 0.05 0.05 0.04 0.03 0.02 0.01 0.01 0.01 0.01 0.01 0.01 0.02 0.02 0.01 0.01 0.01 0.01 0.01 0.01 0.01 0.01 0.01

GEFSMA_prec_meanprec_156.txt.gz
QPF
0.06 0.06 0.06 0.07 0.08 0.10 0.10 0.09 0.07 0.07 0.06 0.06 0.04 0.03 0.04 0.04 0.03 0.05 0.07 0.06 0.07 0.07 0.09 0.13 0.14 0.13 0.15 0.15 0.17 0.19 0.20 0.18 0.14 0.12 0.09 0.07 0.06 0.06 0.06 0.06 0.06 0.05 0.04
0.06 0.07 0.07 0.07 0.08 0.09 0.07 0.07 0.06 0.06 0.06 0.05 0.04 0.03 0.03 0.04 0.06 0.07 0.07 0.08 0.07 0.07 0.09 0.13 0.14 0.14 0.16 0.18 0.18 0.18 0.19 0.18 0.17 0.14 0.11 0.09 0.07 0.07 0.07 0.06 0.05 0.05 0.04
0.06 0.08 0.08 0.08 0.08 0.08 0.07 0.07 0.06 0.06 0.04 0.05 0.05 0.04 0.03 0.03 0.04 0.06 0.06 0.07 0.08 0.08 0.09 0.10 0.11 0.13 0.15 0.19 0.18 0.18 0.19 0.21 0.19 0.17 0.13 0.11 0.09 0.09 0.09 0.07 0.06 0.05 0.05
0.04 0.07 0.07 0.08 0.09 0.08 0.08 0.07 0.07 0.07 0.06 0.05 0.05 0.05 0.03 0.03 0.04 0.05 0.05 0.05 0.07 0.07 0.08 0.08 0.08 0.09 0.11 0.13 0.16 0.17 0.20 0.21 0.21 0.18 0.15 0.13 0.11 0.09 0.07 0.07 0.07 0.05 0.05
0.02 0.03 0.06 0.09 0.08 0.07 0.08 0.07 0.06 0.06 0.06 0.06 0.05 0.04 0.03 0.03 0.03 0.04 0.04 0.05 0.06 0.07 0.08 0.08 0.05 0.05 0.08 0.09 0.12 0.15 0.17 0.19 0.20 0.20 0.20 0.19 0.16 0.12 0.10 0.09 0.07 0.06 0.06
0.03 0.03 0.03 0.04 0.05 0.06 0.06 0.06 0.05 0.05 0.05 0.05 0.04 0.03 0.02 0.02 0.03 0.04 0.05 0.06 0.06 0.05 0.07 0.08 0.06 0.05 0.05 0.06 0.09 0.12 0.15 0.17 0.20 0.22 0.21 0.19 0.18 0.14 0.10 0.08 0.07 0.07 0.07
0.03 0.03 0.03 0.02 0.02 0.04 0.05 0.04 0.04 0.04 0.04 0.04 0.03 0.03 0.03 0.03 0.03 0.04 0.05 0.07 0.06 0.04 0.05 0.08 0.07 0.05 0.04 0.05 0.06 0.08 0.11 0.17 0.21 0.22 0.23 0.23 0.20 0.16 0.13 0.10 0.09 0.07 0.07
0.02 0.02 0.02 0.02 0.02 0.03 0.03 0.03 0.03 0.04 0.04 0.05 0.05 0.04 0.04 0.04 0.04 0.04 0.07 0.07 0.05 0.04 0.05 0.05 0.05 0.05 0.06 0.08 0.09 0.09 0.11 0.17 0.25 0.29 0.30 0.28 0.24 0.20 0.17 0.16 0.13 0.10 0.07
0.02 0.02 0.02 0.03 0.03 0.02 0.02 0.02 0.02 0.03 0.04 0.04 0.05 0.07 0.09 0.08 0.05 0.05 0.05 0.06 0.06 0.07 0.08 0.08 0.06 0.06 0.08 0.10 0.10 0.12 0.14 0.16 0.19 0.22 0.25 0.24 0.22 0.22 0.20 0.18 0.17 0.14 0.10
0.01 0.01 0.02 0.03 0.04 0.03 0.02 0.02 0.02 0.02 0.03 0.03 0.04 0.05 0.06 0.07 0.07 0.07 0.06 0.06 0.06 0.07 0.08 0.08 0.07 0.07 0.09 0.10 0.12 0.14 0.16 0.17 0.15 0.15 0.16 0.15 0.16 0.18 0.19 0.17 0.14 0.12 0.11
0.01 0.01 0.01 0.01 0.02 0.02 0.02 0.02 0.02 0.02 0.02 0.03 0.04 0.05 0.05 0.06 0.07 0.08 0.09 0.10 0.09 0.08 0.08 0.08 0.07 0.08 0.09 0.10 0.13 0.14 0.16 0.14 0.11 0.10 0.12 0.15 0.15 0.16 0.16 0.16 0.15 0.12 0.10
0.02 0.01 0.01 0.01 0.01 0.01 0.01 0.02 0.02 0.02 0.02 0.02 0.03 0.04 0.05 0.07 0.07 0.07 0.09 0.09 0.09 0.09 0.09 0.09 0.08 0.07 0.10 0.11 0.12 0.14 0.14 0.12 0.10 0.09 0.10 0.13 0.14 0.13 0.14 0.16 0.19 0.17 0.13
0.01 0.01 0.01 0.01 0.01 0.01 0.01 0.01 0.02 0.02 0.02 0.02 0.03 0.04 0.06 0.07 0.07 0.08 0.08 0.09 0.09 0.10 0.10 0.09 0.09 0.08 0.09 0.10 0.12 0.12 0.10 0.10 0.10 0.09 0.09 0.10 0.12 0.13 0.11 0.10 0.12 0.15 0.15
0.01 0.01 0.01 0.01 0.01 0.01 0.01 0.01 0.01 0.02 0.03 0.02 0.02 0.02 0.04 0.06 0.08 0.09 0.09 0.11 0.11 0.10 0.07 0.07 0.08 0.08 0.09 0.10 0.10 0.09 0.07 0.06 0.06 0.07 0.07 0.07 0.06 0.07 0.09 0.09 0.08 0.08 0.10
0.01 0.00 0.01 0.01 0.00 0.01 0.01 0.02 0.01 0.01 0.02 0.02 0.02 0.03 0.03 0.04 0.05 0.06 0.06 0.07 0.09 0.10 0.07 0.06 0.07 0.07 0.06 0.07 0.07 0.05 0.04 0.04 0.04 0.04 0.04 0.04 0.03 0.04 0.05 0.07 0.09 0.08 0.07
0.01 0.01 0.00 0.01 0.00 0.01 0.01 0.01 0.01 0.01 0.01 0.01 0.03 0.04 0.05 0.05 0.05 0.04 0.04 0.04 0.05 0.06 0.06 0.06 0.07 0.07 0.05 0.05 0.05 0.05 0.04 0.03 0.03 0.03 0.03 0.03 0.04 0.04 0.05 0.07 0.07 0.08 0.08
0.01 0.01 0.01 0.01 0.01 0.01 0.01 0.01 0.01 0.01 0.01 0.01 0.01 0.02 0.03 0.04 0.03 0.03 0.03 0.03 0.04 0.04 0.05 0.06 0.07 0.07 0.07 0.06 0.05 0.05 0.04 0.03 0.03 0.04 0.04 0.04 0.05 0.04 0.05 0.07 0.09 0.09 0.09
0.01 0.01 0.01 0.01 0.01 0.01 0.01 0.01 0.01 0.01 0.01 0.01 0.01 0.02 0.02 0.02 0.03 0.03 0.03 0.03 0.03 0.04 0.05 0.06 0.07 0.07 0.07 0.07 0.07 0.06 0.05 0.04 0.03 0.04 0.04 0.04 0.05 0.05 0.05 0.06 0.06 0.08 0.11
0.01 0.01 0.01 0.02 0.01 0.01 0.01 0.01 0.01 0.02 0.01 0.01 0.01 0.01 0.02 0.03 0.04 0.04 0.04 0.03 0.03 0.03 0.04 0.05 0.06 0.05 0.06 0.06 0.05 0.05 0.04 0.06 0.06 0.05 0.04 0.04 0.05 0.05 0.05 0.05 0.05 0.06 0.09
0.01 0.01 0.01 0.02 0.02 0.01 0.00 0.01 0.02 0.02 0.01 0.01 0.00 0.01 0.02 0.02 0.04 0.03 0.02 0.02 0.02 0.02 0.02 0.03 0.05 0.05 0.06 0.06 0.06 0.05 0.05 0.05 0.05 0.05 0.06 0.05 0.06 0.06 0.06 0.05 0.04 0.05 0.06
0.02 0.02 0.02 0.02 0.02 0.01 0.01 0.01 0.01 0.01 0.01 0.01 0.01 0.01 0.01 0.01 0.01 0.01 0.01 0.02 0.02 0.02 0.03 0.04 0.05 0.06 0.06 0.06 0.06 0.05 0.05 0.05 0.04 0.03 0.04 0.03 0.04 0.06 0.07 0.07 0.06 0.06 0.07
0.03 0.03 0.01 0.02 0.02 0.01 0.01 0.02 0.02 0.01 0.02 0.02 0.01 0.01 0.01 0.01 0.01 0.01 0.01 0.01 0.02 0.03 0.04 0.04 0.05 0.06 0.07 0.06 0.05 0.04 0.04 0.05 0.05 0.04 0.03 0.03 0.03 0.04 0.04 0.05 0.07 0.07 0.06
0.03 0.02 0.02 0.03 0.03 0.02 0.02 0.02 0.02 0.01 0.01 0.01 0.02 0.02 0.01 0.00 0.01 0.02 0.03 0.03 0.04 0.04 0.04 0.04 0.05 0.06 0.06 0.06 0.05 0.05 0.05 0.05 0.04 0.03 0.03 0.04 0.04 0.04 0.04 0.05 0.05 0.05 0.04
0.03 0.03 0.03 0.03 0.03 0.02 0.02 0.02 0.02 0.02 0.02 0.01 0.01 0.01 0.01 0.01 0.01 0.03 0.05 0.06 0.07 0.07 0.07 0.06 0.08 0.07 0.05 0.05 0.05 0.04 0.04 0.04 0.04 0.03 0.03 0.04 0.04 0.04 0.03 0.04 0.04 0.03 0.02
0.03 0.02 0.02 0.02 0.03 0.02 0.02 0.01 0.01 0.02 0.02 0.02 0.02 0.02 0.02 0.01 0.02 0.03 0.05 0.07 0.08 0.08 0.08 0.07 0.08 0.08 0.07 0.05 0.05 0.04 0.04 0.04 0.04 0.04 0.03 0.03 0.04 0.04 0.04 0.03 0.02 0.01 0.01
0.02 0.01 0.02 0.02 0.02 0.02 0.02 0.02 0.02 0.02 0.03 0.03 0.03 0.03 0.03 0.03 0.03 0.04 0.05 0.06 0.08 0.09 0.07 0.09 0.10 0.10 0.07 0.05 0.04 0.03 0.03 0.04 0.04 0.04 0.03 0.03 0.03 0.03 0.04 0.03 0.02 0.02 0.01

GEFSMA_prec_meanprec_162.txt.gz
QPF
0.13 0.13 0.13 0.15 0.15 0.14 0.12 0.10 0.10 0.10 0.10 0.10 0.08 0.09 0.09 0.04 0.05 0.08 0.09 0.06 0.03 0.03 0.04 0.05 0.06 0.08 0.10 0.11 0.11 0.12 0.12 0.12 0.10 0.10 0.10 0.10 0.09 0.08 0.08 0.06 0.06 0.05 0.05
0.13 0.11 0.11 0.12 0.11 0.12 0.12 0.12 0.12 0.12 0.11 0.09 0.05 0.05 0.06 0.07 0.05 0.06 0.07 0.07 0.03 0.02 0.04 0.06 0.08 0.10 0.10 0.10 0.10 0.10 0.10 0.11 0.11 0.10 0.10 0.10 0.09 0.08 0.07 0.07 0.07 0.05 0.05
0.10 0.10 0.11 0.11 0.11 0.12 0.11 0.11 0.10 0.11 0.11 0.10 0.10 0.10 0.09 0.08 0.07 0.06 0.05 0.05 0.05 0.03 0.04 0.06 0.07 0.09 0.09 0.09 0.09 0.09 0.09 0.10 0.11 0.11 0.11 0.10 0.10 0.10 0.09 0.08 0.07 0.06 0.06
0.10 0.11 0.11 0.11 0.10 0.08 0.09 0.09 0.10 0.10 0.11 0.11 0.10 0.09 0.08 0.07 0.07 0.07 0.06 0.06 0.08 0.07 0.07 0.07 0.08 0.09 0.09 0.09 0.08 0.08 0.10 0.11 0.12 0.13 0.13 0.13 0.14 0.14 0.11 0.09 0.07 0.06 0.06
0.04 0.06 0.07 0.08 0.07 0.06 0.07 0.06 0.09 0.09 0.10 0.10 0.09 0.08 0.06 0.06 0.06 0.05 0.05 0.05 0.06 0.07 0.07 0.06 0.07 0.07 0.08 0.07 0.07 0.09 0.10 0.12 0.12 0.12 0.13 0.14 0.16 0.14 0.12 0.11 0.10 0.10 0.10
0.03 0.04 0.05 0.06 0.06 0.07 0.07 0.07 0.06 0.06 0.08 0.09 0.07 0.08 0.07 0.05 0.05 0.04 0.04 0.05 0.06 0.08 0.09 0.10 0.11 0.10 0.09 0.07 0.07 0.08 0.11 0.13 0.13 0.11 0.11 0.11 0.12 0.12 0.13 0.13 0.13 0.12 0.10
0.02 0.03 0.03 0.05 0.05 0.06 0.07 0.07 0.06 0.06 0.08 0.10 0.11 0.10 0.08 0.06 0.05 0.04 0.04 0.06 0.07 0.09 0.12 0.13 0.12 0.12 0.11 0.07 0.06 0.07 0.10 0.13 0.14 0.13 0.11 0.11 0.13 0.16 0.18 0.19 0.18 0.13 0.09
0.02 0.02 0.02 0.03 0.04 0.05 0.06 0.06 0.06 0.07 0.07 0.07 0.09 0.10 0.08 0.07 0.06 0.04 0.05 0.06 0.07 0.08 0.08 0.08 0.09 0.08 0.06 0.08 0.08 0.08 0.10 0.10 0.11 0.13 0.15 0.15 0.16 0.16 0.16 0.17 0.17 0.15 0.13
0.03 0.03 0.02 0.03 0.04 0.05 0.06 0.05 0.06 0.07 0.06 0.06 0.08 0.09 0.10 0.10 0.08 0.06 0.05 0.04 0.04 0.05 0.07 0.08 0.07 0.06 0.06 0.07 0.08 0.09 0.09 0.08 0.10 0.14 0.18 0.21 0.19 0.17 0.17 0.17 0.16 0.17 0.17
0.06 0.05 0.04 0.03 0.04 0.04 0.04 0.04 0.05 0.06 0.06 0.06 0.07 0.07 0.08 0.09 0.08 0.06 0.06 0.05 0.05 0.05 0.06 0.07 0.06 0.06 0.06 0.07 0.08 0.08 0.06 0.07 0.10 0.13 0.16 0.16 0.15 0.15 0.16 0.16 0.16 0.16 0.17
0.05 0.05 0.03 0.02 0.03 0.04 0.04 0.04 0.05 0.05 0.05 0.05 0.05 0.05 0.05 0.06 0.07 0.06 0.06 0.07 0.06 0.05 0.06 0.07 0.06 0.06 0.07 0.07 0.08 0.06 0.06 0.08 0.10 0.11 0.12 0.13 0.12 0.10 0.11 0.12 0.13 0.15 0.15
0.06 0.06 0.03 0.03 0.03 0.03 0.03 0.03 0.03 0.04 0.05 0.05 0.05 0.05 0.05 0.05 0.05 0.05 0.05 0.05 0.06 0.06 0.07 0.08 0.06 0.06 0.06 0.06 0.06 0.06 0.07 0.07 0.07 0.08 0.09 0.10 0.10 0.10 0.11 0.11 0.12 0.15 0.16
0.05 0.04 0.03 0.02 0.02 0.03 0.03 0.03 0.03 0.03 0.04 0.04 0.05 0.06 0.05 0.05 0.05 0.05 0.05 0.04 0.04 0.05 0.06 0.08 0.06 0.06 0.07 0.08 0.07 0.06 0.06 0.05 0.05 0.06 0.06 0.06 0.07 0.07 0.07 0.08 0.09 0.11 0.12
0.06 0.05 0.03 0.03 0.03 0.03 0.02 0.03 0.03 0.03 0.04 0.04 0.04 0.05 0.05 0.04 0.04 0.04 0.04 0.06 0.07 0.07 0.08 0.08 0.08 0.06 0.05 0.04 0.05 0.04 0.04 0.04 0.03 0.04 0.06 0.06 0.06 0.05 0.04 0.04 0.05 0.06 0.07
0.03 0.03 0.03 0.03 0.03 0.03 0.02 0.02 0.03 0.03 0.05 0.05 0.04 0.04 0.04 0.03 0.03 0.04 0.04 0.05 0.06 0.06 0.07 0.08 0.09 0.07 0.05 0.03 0.03 0.03 0.03 0.03 0.04 0.04 0.05 0.05 0.04 0.03 0.03 0.03 0.04 0.04 0.05
0.04 0.03 0.02 0.02 0.02 0.02 0.02 0.03 0.03 0.03 0.03 0.03 0.03 0.03 0.03 0.03 0.03 0.03 0.04 0.04 0.05 0.05 0.05 0.06 0.07 0.08 0.05 0.03 0.04 0.03 0.03 0.04 0.03 0.03 0.03 0.04 0.03 0.03 0.03 0.03 0.03 0.04 0.06
0.03 0.02 0.02 0.01 0.01 0.02 0.02 0.04 0.03 0.03 0.03 0.03 0.02 0.02 0.02 0.02 0.04 0.03 0.04 0.04 0.05 0.05 0.05 0.05 0.05 0.05 0.05 0.05 0.05 0.04 0.04 0.04 0.04 0.04 0.04 0.03 0.02 0.02 0.02 0.02 0.02 0.03 0.04
0.02 0.02 0.02 0.01 0.01 0.01 0.02 0.03 0.02 0.02 0.03 0.02 0.02 0.02 0.02 0.02 0.04 0.04 0.04 0.04 0.05 0.06 0.06 0.06 0.05 0.05 0.04 0.05 0.05 0.04 0.03 0.03 0.04 0.04 0.03 0.02 0.02 0.02 0.02 0.02 0.02 0.02 0.03
0.01 0.01 0.01 0.01 0.01 0.01 0.01 0.01 0.02 0.02 0.02 0.02 0.02 0.02 0.02 0.02 0.03 0.04 0.04 0.04 0.04 0.04 0.05 0.05 0.05 0.06 0.06 0.06 0.05 0.03 0.02 0.03 0.03 0.03 0.02 0.02 0.02 0.02 0.02 0.02 0.02 0.02 0.02
0.01 0.01 0.01 0.01 0.01 0.01 0.01 0.01 0.01 0.01 0.01 0.02 0.02 0.02 0.02 0.02 0.03 0.04 0.04 0.04 0.04 0.03 0.04 0.04 0.04 0.05 0.06 0.06 0.06 0.05 0.04 0.03 0.03 0.02 0.02 0.02 0.02 0.03 0.02 0.02 0.02 0.02 0.02
0.01 0.01 0.01 0.01 0.01 0.01 0.01 0.01 0.01 0.02 0.03 0.03 0.03 0.02 0.02 0.01 0.01 0.02 0.02 0.03 0.03 0.04 0.04 0.04 0.04 0.04 0.05 0.05 0.05 0.06 0.06 0.05 0.04 0.03 0.04 0.03 0.03 0.02 0.02 0.03 0.02 0.02 0.02
0.02 0.02 0.01 0.02 0.02 0.01 0.01 0.01 0.01 0.04 0.04 0.04 0.03 0.02 0.01 0.01 0.01 0.01 0.01 0.02 0.02 0.03 0.04 0.04 0.04 0.05 0.06 0.05 0.05 0.06 0.07 0.07 0.06 0.05 0.05 0.05 0.04 0.03 0.02 0.02 0.03 0.03 0.02
0.03 0.03 0.02 0.03 0.03 0.01 0.01 0.02 0.02 0.04 0.05 0.03 0.02 0.02 0.01 0.01 0.01 0.02 0.02 0.02 0.02 0.02 0.03 0.04 0.04 0.06 0.06 0.06 0.07 0.07 0.08 0.08 0.07 0.05 0.05 0.05 0.06 0.05 0.03 0.02 0.02 0.03 0.03
0.04 0.03 0.03 0.03 0.03 0.02 0.02 0.03 0.03 0.03 0.04 0.03 0.02 0.02 0.02 0.02 0.01 0.02 0.03 0.03 0.04 0.04 0.03 0.04 0.05 0.06 0.05 0.05 0.06 0.06 0.07 0.08 0.07 0.05 0.05 0.05 0.05 0.04 0.03 0.03 0.02 0.02 0.03
0.03 0.03 0.03 0.03 0.03 0.02 0.02 0.02 0.02 0.02 0.03 0.03 0.02 0.02 0.02 0.02 0.01 0.02 0.03 0.05 0.05 0.04 0.03 0.05 0.05 0.05 0.04 0.04 0.04 0.05 0.07 0.08 0.08 0.07 0.05 0.04 0.04 0.04 0.04 0.03 0.02 0.01 0.01
0.03 0.03 0.03 0.02 0.02 0.02 0.02 0.01 0.01 0.02 0.03 0.03 0.03 0.02 0.02 0.02 0.03 0.03 0.03 0.05 0.05 0.04 0.03 0.04 0.04 0.05 0.05 0.06 0.05 0.05 0.07 0.07 0.06 0.06 0.04 0.03 0.04 0.04 0.04 0.04 0.03 0.01 0.01

GEFSMA_prec_meanprec_168.txt.gz
QPF
0.07 0.07 0.07 0.06 0.04 0.04 0.03 0.03 0.03 0.05 0.09 0.08 0.06 0.07 0.12 0.17 0.16 0.18 0.18 0.18 0.18 0.15 0.11 0.08 0.07 0.06 0.07 0.08 0.08 0.08 0.08 0.07 0.07 0.06 0.05 0.05 0.05 0.04 0.03 0.03 0.04 0.04 0.04
0.09 0.11 0.08 0.04 0.04 0.04 0.05 0.06 0.05 0.05 0.06 0.07 0.06 0.06 0.07 0.09 0.09 0.15 0.15 0.12 0.12 0.11 0.09 0.07 0.07 0.07 0.07 0.08 0.09 0.08 0.08 0.08 0.08 0.07 0.05 0.05 0.05 0.05 0.04 0.04 0.05 0.05 0.04
0.08 0.09 0.08 0.06 0.05 0.05 0.07 0.07 0.07 0.06 0.07 0.06 0.06 0.06 0.07 0.06 0.06 0.07 0.09 0.09 0.08 0.08 0.09 0.08 0.07 0.07 0.08 0.09 0.09 0.08 0.09 0.09 0.10 0.09 0.07 0.06 0.05 0.05 0.05 0.06 0.07 0.06 0.06
0.07 0.07 0.07 0.06 0.06 0.06 0.06 0.07 0.06 0.06 0.06 0.05 0.04 0.04 0.04 0.04 0.04 0.04 0.04 0.04 0.05 0.06 0.09 0.09 0.09 0.08 0.11 0.12 0.12 0.11 0.11 0.12 0.12 0.09 0.06 0.06 0.05 0.05 0.06 0.08 0.08 0.08 0.07
0.03 0.04 0.04 0.04 0.04 0.04 0.04 0.04 0.04 0.04 0.05 0.04 0.03 0.03 0.03 0.03 0.04 0.02 0.03 0.03 0.04 0.06 0.07 0.08 0.08 0.08 0.09 0.09 0.10 0.09 0.09 0.10 0.11 0.08 0.07 0.06 0.06 0.06 0.08 0.10 0.10 0.08 0.09
0.02 0.03 0.02 0.02 0.02 0.03 0.03 0.04 0.03 0.04 0.03 0.03 0.03 0.03 0.04 0.04 0.03 0.02 0.02 0.02 0.02 0.05 0.06 0.06 0.05 0.06 0.09 0.09 0.08 0.08 0.09 0.11 0.11 0.09 0.08 0.07 0.06 0.06 0.08 0.11 0.09 0.09 0.11
0.02 0.02 0.03 0.03 0.02 0.02 0.03 0.05 0.03 0.03 0.04 0.03 0.03 0.03 0.03 0.03 0.02 0.02 0.02 0.02 0.03 0.03 0.05 0.05 0.06 0.06 0.09 0.10 0.07 0.07 0.10 0.12 0.10 0.10 0.09 0.08 0.07 0.08 0.08 0.10 0.11 0.13 0.12
0.02 0.02 0.03 0.04 0.03 0.03 0.03 0.03 0.03 0.03 0.02 0.02 0.02 0.03 0.02 0.02 0.02 0.01 0.01 0.02 0.02 0.02 0.03 0.04 0.05 0.05 0.05 0.05 0.05 0.07 0.09 0.07 0.06 0.08 0.09 0.08 0.09 0.10 0.11 0.12 0.12 0.12 0.11
0.01 0.02 0.03 0.03 0.03 0.04 0.04 0.04 0.04 0.03 0.02 0.02 0.01 0.01 0.02 0.03 0.02 0.01 0.01 0.01 0.02 0.02 0.03 0.03 0.03 0.04 0.03 0.03 0.04 0.07 0.07 0.05 0.05 0.06 0.08 0.08 0.08 0.08 0.10 0.12 0.14 0.14 0.14
0.02 0.03 0.03 0.04 0.04 0.04 0.04 0.04 0.04 0.04 0.03 0.03 0.03 0.02 0.02 0.03 0.03 0.02 0.02 0.02 0.02 0.02 0.03 0.02 0.03 0.02 0.03 0.02 0.03 0.06 0.04 0.03 0.03 0.05 0.06 0.08 0.09 0.09 0.10 0.12 0.14 0.15 0.15
0.02 0.03 0.05 0.04 0.04 0.03 0.02 0.03 0.03 0.04 0.02 0.02 0.03 0.04 0.04 0.04 0.04 0.02 0.01 0.02 0.01 0.01 0.01 0.02 0.03 0.03 0.03 0.03 0.04 0.04 0.03 0.03 0.03 0.04 0.05 0.07 0.09 0.11 0.12 0.12 0.12 0.12 0.13
0.02 0.03 0.05 0.08 0.07 0.05 0.04 0.03 0.03 0.03 0.02 0.02 0.02 0.03 0.03 0.02 0.03 0.03 0.02 0.01 0.01 0.01 0.01 0.02 0.04 0.06 0.05 0.04 0.04 0.04 0.03 0.03 0.03 0.04 0.04 0.05 0.06 0.08 0.08 0.08 0.08 0.08 0.08
0.03 0.03 0.04 0.04 0.06 0.07 0.06 0.03 0.02 0.02 0.02 0.02 0.02 0.02 0.03 0.02 0.02 0.02 0.02 0.01 0.01 0.02 0.02 0.03 0.05 0.07 0.06 0.05 0.04 0.03 0.02 0.02 0.03 0.03 0.03 0.03 0.05 0.06 0.07 0.07 0.06 0.05 0.07
0.05 0.07 0.07 0.05 0.04 0.03 0.03 0.02 0.02 0.02 0.02 0.01 0.01 0.02 0.02 0.02 0.02 0.02 0.02 0.02 0.01 0.02 0.03 0.04 0.05 0.05 0.05 0.03 0.02 0.02 0.02 0.02 0.02 0.02 0.02 0.03 0.04 0.05 0.05 0.04 0.04 0.04 0.04
0.03 0.05 0.07 0.08 0.05 0.03 0.02 0.01 0.01 0.02 0.01 0.01 0.01 0.02 0.02 0.02 0.02 0.02 0.03 0.03 0.02 0.02 0.04 0.05 0.04 0.03 0.04 0.04 0.03 0.02 0.01 0.02 0.01 0.01 0.02 0.03 0.03 0.03 0.03 0.03 0.03 0.04 0.04
0.01 0.01 0.02 0.04 0.04 0.04 0.02 0.01 0.01 0.01 0.01 0.01 0.02 0.02 0.02 0.02 0.02 0.03 0.03 0.03 0.04 0.03 0.03 0.03 0.03 0.02 0.03 0.03 0.02 0.01 0.02 0.02 0.01 0.01 0.01 0.02 0.02 0.03 0.03 0.03 0.04 0.04 0.04
0.01 0.01 0.01 0.01 0.01 0.01 0.01 0.01 0.01 0.01 0.01 0.02 0.02 0.02 0.02 0.02 0.03 0.03 0.02 0.03 0.04 0.04 0.03 0.03 0.02 0.02 0.02 0.02 0.02 0.01 0.01 0.01 0.01 0.01 0.01 0.01 0.02 0.03 0.03 0.04 0.03 0.03 0.03
0.01 0.01 0.01 0.01 0.01 0.01 0.00 0.00 0.01 0.01 0.01 0.02 0.02 0.02 0.02 0.02 0.02 0.02 0.02 0.02 0.03 0.03 0.04 0.03 0.02 0.03 0.03 0.02 0.02 0.01 0.01 0.01 0.01 0.01 0.01 0.01 0.01 0.02 0.02 0.03 0.02 0.02 0.01
0.01 0.01 0.01 0.01 0.01 0.00 0.00 0.01 0.01 0.01 0.01 0.01 0.01 0.01 0.02 0.02 0.02 0.01 0.01 0.01 0.01 0.02 0.04 0.04 0.03 0.02 0.03 0.02 0.02 0.02 0.02 0.01 0.01 0.01 0.02 0.02 0.02 0.02 0.02 0.02 0.02 0.01 0.01
0.00 0.00 0.00 0.00 0.00 0.00 0.00 0.01 0.01 0.01 0.01 0.01 0.01 0.01 0.02 0.02 0.01 0.01 0.01 0.01 0.01 0.02 0.03 0.04 0.04 0.03 0.02 0.02 0.02 0.02 0.03 0.02 0.02 0.01 0.01 0.02 0.03 0.02 0.02 0.01 0.01 0.01 0.01
0.00 0.00 0.00 0.00 0.00 0.00 0.00 0.01 0.02 0.01 0.01 0.01 0.01 0.01 0.01 0.01 0.01 0.01 0.01 0.01 0.01 0.01 0.02 0.03 0.04 0.03 0.02 0.02 0.02 0.02 0.03 0.03 0.02 0.01 0.01 0.01 0.01 0.01 0.01 0.01 0.01 0.01 0.01
0.01 0.00 0.01 0.01 0.01 0.01 0.01 0.01 0.02 0.02 0.01 0.01 0.01 0.01 0.01 0.01 0.01 0.01 0.01 0.01 0.01 0.01 0.01 0.02 0.03 0.02 0.03 0.03 0.02 0.02 0.03 0.04 0.03 0.02 0.01 0.01 0.01 0.01 0.01 0.01 0.01 0.01 0.01
0.01 0.01 0.01 0.01 0.02 0.02 0.01 0.01 0.02 0.01 0.01 0.01 0.01 0.01 0.01 0.01 0.01 0.01 0.01 0.01 0.01 0.01 0.02 0.02 0.02 0.02 0.02 0.02 0.03 0.02 0.03 0.04 0.04 0.03 0.02 0.02 0.01 0.01 0.01 0.01 0.01 0.01 0.01
0.01 0.02 0.02 0.02 0.01 0.01 0.01 0.01 0.02 0.01 0.02 0.01 0.01 0.01 0.01 0.01 0.01 0.01 0.01 0.01 0.01 0.01 0.01 0.02 0.01 0.02 0.02 0.02 0.02 0.03 0.04 0.05 0.06 0.05 0.03 0.02 0.02 0.01 0.01 0.00 0.01 0.01 0.01
0.02 0.02 0.02 0.01 0.01 0.01 0.01 0.01 0.01 0.01 0.01 0.01 0.01 0.01 0.02 0.01 0.02 0.02 0.01 0.01 0.01 0.01 0.01 0.03 0.03 0.03 0.03 0.03 0.02 0.03 0.03 0.04 0.04 0.04 0.03 0.03 0.02 0.01 0.01 0.00 0.01 0.01 0.01
0.01 0.01 0.01 0.01 0.01 0.01 0.01 0.00 0.00 0.00 0.00 0.01 0.01 0.01 0.02 0.02 0.02 0.03 0.02 0.02 0.02 0.03 0.03 0.03 0.03 0.02 0.03 0.02 0.03 0.04 0.05 0.04 0.04 0.04 0.03 0.02 0.02 0.02 0.01 0.00 0.00 0.00 0.01

GEFSMA_prec_meanprec_174.txt.gz
QPF
0.04 0.04 0.04 0.05 0.06 0.05 0.05 0.05 0.05 0.05 0.06 0.05 0.04 0.04 0.04 0.03 0.02 0.03 0.05 0.06 0.06 0.07 0.09 0.10 0.11 0.13 0.13 0.13 0.12 0.13 0.13 0.14 0.15 0.15 0.14 0.12 0.11 0.10 0.10 0.09 0.08 0.07 0.06
0.04 0.05 0.06 0.06 0.06 0.06 0.06 0.06 0.07 0.07 0.06 0.05 0.04 0.04 0.04 0.04 0.04 0.03 0.04 0.05 0.05 0.05 0.08 0.10 0.12 0.13 0.13 0.13 0.13 0.12 0.13 0.13 0.13 0.13 0.13 0.13 0.12 0.11 0.10 0.10 0.11 0.10 0.10
0.04 0.04 0.04 0.05 0.05 0.06 0.06 0.07 0.09 0.09 0.07 0.05 0.04 0.04 0.04 0.04 0.04 0.05 0.05 0.05 0.05 0.06 0.09 0.11 0.13 0.13 0.14 0.13 0.12 0.11 0.11 0.10 0.11 0.11 0.12 0.14 0.13 0.11 0.09 0.10 0.10 0.11 0.10
0.04 0.04 0.03 0.04 0.03 0.04 0.05 0.06 0.08 0.10 0.08 0.06 0.05 0.04 0.04 0.03 0.03 0.03 0.03 0.03 0.05 0.06 0.08 0.09 0.10 0.12 0.14 0.13 0.12 0.12 0.12 0.11 0.13 0.13 0.13 0.14 0.15 0.14 0.11 0.10 0.10 0.11 0.11
0.04 0.04 0.03 0.03 0.03 0.03 0.03 0.03 0.06 0.06 0.06 0.07 0.06 0.05 0.05 0.04 0.03 0.03 0.02 0.01 0.03 0.03 0.04 0.06 0.08 0.11 0.13 0.14 0.13 0.14 0.13 0.12 0.11 0.10 0.10 0.11 0.10 0.10 0.11 0.10 0.10 0.10 0.10
0.03 0.03 0.03 0.03 0.02 0.02 0.02 0.03 0.04 0.04 0.04 0.05 0.04 0.04 0.04 0.03 0.03 0.02 0.01 0.01 0.01 0.02 0.03 0.04 0.05 0.06 0.08 0.09 0.10 0.11 0.12 0.12 0.10 0.10 0.09 0.09 0.09 0.08 0.09 0.12 0.12 0.10 0.10
0.04 0.03 0.03 0.03 0.03 0.02 0.03 0.04 0.04 0.05 0.05 0.05 0.05 0.04 0.03 0.02 0.01 0.01 0.01 0.01 0.01 0.02 0.03 0.03 0.04 0.05 0.05 0.06 0.08 0.10 0.11 0.12 0.10 0.09 0.08 0.07 0.07 0.07 0.08 0.11 0.12 0.10 0.08
0.04 0.04 0.03 0.03 0.04 0.05 0.05 0.04 0.04 0.06 0.05 0.05 0.04 0.03 0.02 0.02 0.01 0.01 0.01 0.01 0.02 0.02 0.01 0.02 0.02 0.04 0.04 0.04 0.08 0.11 0.11 0.13 0.13 0.11 0.09 0.07 0.06 0.06 0.06 0.08 0.08 0.08 0.08
0.03 0.03 0.03 0.03 0.04 0.04 0.05 0.05 0.05 0.05 0.07 0.07 0.05 0.03 0.02 0.01 0.01 0.01 0.01 0.01 0.01 0.02 0.02 0.02 0.02 0.02 0.03 0.04 0.06 0.08 0.10 0.13 0.14 0.10 0.07 0.06 0.04 0.05 0.06 0.07 0.07 0.08 0.09
0.03 0.03 0.03 0.03 0.03 0.03 0.04 0.05 0.05 0.05 0.06 0.07 0.06 0.04 0.03 0.02 0.02 0.02 0.01 0.01 0.01 0.02 0.03 0.04 0.04 0.02 0.02 0.03 0.05 0.08 0.09 0.10 0.10 0.07 0.04 0.04 0.04 0.05 0.06 0.07 0.08 0.09 0.11
0.03 0.03 0.03 0.02 0.02 0.02 0.02 0.03 0.04 0.05 0.05 0.05 0.06 0.05 0.04 0.03 0.02 0.02 0.02 0.01 0.01 0.02 0.03 0.03 0.03 0.03 0.02 0.02 0.03 0.04 0.05 0.05 0.04 0.04 0.03 0.03 0.03 0.04 0.06 0.08 0.10 0.12 0.14
0.03 0.03 0.03 0.03 0.03 0.02 0.01 0.02 0.02 0.05 0.07 0.06 0.06 0.05 0.03 0.03 0.03 0.03 0.02 0.01 0.01 0.01 0.02 0.02 0.01 0.02 0.02 0.02 0.03 0.03 0.03 0.04 0.03 0.03 0.02 0.02 0.02 0.03 0.05 0.07 0.08 0.10 0.10
0.03 0.03 0.02 0.02 0.02 0.02 0.03 0.03 0.03 0.03 0.04 0.04 0.05 0.05 0.04 0.03 0.03 0.02 0.02 0.02 0.01 0.01 0.02 0.02 0.02 0.01 0.02 0.02 0.04 0.05 0.04 0.04 0.04 0.04 0.03 0.03 0.02 0.03 0.04 0.05 0.07 0.08 0.08
0.04 0.03 0.03 0.02 0.03 0.03 0.03 0.03 0.04 0.04 0.05 0.04 0.04 0.04 0.04 0.03 0.03 0.03 0.03 0.02 0.02 0.02 0.02 0.03 0.03 0.03 0.02 0.02 0.03 0.03 0.03 0.04 0.05 0.06 0.05 0.05 0.04 0.03 0.03 0.04 0.05 0.05 0.06
0.02 0.02 0.02 0.03 0.04 0.05 0.06 0.05 0.04 0.04 0.04 0.04 0.05 0.04 0.04 0.04 0.04 0.04 0.04 0.03 0.02 0.02 0.02 0.04 0.04 0.03 0.02 0.03 0.05 0.03 0.02 0.03 0.04 0.04 0.05 0.06 0.05 0.04 0.03 0.04 0.04 0.04 0.04
0.02 0.01 0.02 0.03 0.04 0.05 0.05 0.07 0.06 0.05 0.03 0.02 0.03 0.04 0.04 0.03 0.04 0.05 0.05 0.04 0.03 0.03 0.02 0.03 0.03 0.03 0.02 0.03 0.06 0.05 0.03 0.03 0.02 0.02 0.03 0.05 0.06 0.05 0.04 0.04 0.04 0.04 0.03
0.01 0.01 0.02 0.02 0.02 0.03 0.03 0.03 0.03 0.02 0.02 0.01 0.01 0.02 0.03 0.03 0.03 0.04 0.04 0.04 0.04 0.03 0.03 0.03 0.03 0.03 0.02 0.02 0.03 0.05 0.04 0.02 0.01 0.01 0.01 0.02 0.02 0.03 0.03 0.03 0.02 0.02 0.03
0.00 0.00 0.01 0.00 0.00 0.01 0.01 0.02 0.02 0.03 0.03 0.02 0.01 0.01 0.01 0.02 0.02 0.05 0.05 0.04 0.04 0.04 0.04 0.05 0.04 0.03 0.02 0.02 0.02 0.02 0.02 0.02 0.01 0.01 0.01 0.01 0.01 0.02 0.02 0.02 0.02 0.02 0.02
0.00 0.00 0.01 0.01 0.00 0.01 0.01 0.01 0.01 0.01 0.01 0.01 0.01 0.01 0.01 0.02 0.03 0.04 0.04 0.02 0.02 0.02 0.03 0.06 0.05 0.03 0.03 0.03 0.04 0.03 0.02 0.01 0.01 0.01 0.01 0.02 0.02 0.01 0.02 0.02 0.02 0.02 0.02
0.01 0.01 0.01 0.00 0.01 0.00 0.00 0.00 0.00 0.00 0.00 0.00 0.01 0.01 0.01 0.02 0.03 0.03 0.02 0.01 0.01 0.01 0.02 0.05 0.06 0.04 0.03 0.02 0.03 0.03 0.03 0.03 0.02 0.02 0.02 0.02 0.02 0.02 0.02 0.03 0.03 0.03 0.03
0.00 0.00 0.00 0.01 0.00 0.00 0.00 0.00 0.00 0.01 0.01 0.01 0.01 0.02 0.02 0.03 0.03 0.02 0.02 0.01 0.01 0.01 0.02 0.04 0.05 0.05 0.04 0.03 0.02 0.02 0.02 0.02 0.02 0.02 0.01 0.02 0.01 0.01 0.02 0.03 0.03 0.03 0.03
0.00 0.00 0.01 0.01 0.00 0.00 0.01 0.01 0.00 0.01 0.01 0.01 0.01 0.02 0.02 0.02 0.02 0.01 0.01 0.01 0.01 0.01 0.01 0.03 0.05 0.05 0.04 0.03 0.03 0.03 0.02 0.02 0.02 0.02 0.01 0.01 0.01 0.01 0.01 0.01 0.03 0.03 0.02
0.01 0.01 0.01 0.01 0.01 0.01 0.01 0.01 0.01 0.01 0.01 0.02 0.02 0.02 0.02 0.01 0.01 0.01 0.01 0.01 0.01 0.01 0.01 0.03 0.04 0.05 0.04 0.03 0.04 0.04 0.02 0.02 0.02 0.02 0.01 0.02 0.02 0.01 0.01 0.01 0.02 0.02 0.03
0.02 0.02 0.02 0.01 0.01 0.01 0.02 0.02 0.01 0.01 0.01 0.01 0.01 0.01 0.02 0.01 0.01 0.01 0.01 0.00 0.00 0.01 0.01 0.02 0.03 0.03 0.04 0.04 0.03 0.05 0.05 0.04 0.03 0.03 0.03 0.03 0.03 0.03 0.02 0.01 0.01 0.01 0.02
0.01 0.01 0.01 0.01 0.02 0.03 0.03 0.02 0.01 0.01 0.01 0.01 0.01 0.01 0.01 0.01 0.01 0.02 0.01 0.01 0.01 0.01 0.01 0.02 0.03 0.02 0.03 0.04 0.04 0.04 0.06 0.07 0.05 0.03 0.03 0.04 0.04 0.03 0.02 0.01 0.01 0.01 0.01
0.02 0.02 0.02 0.03 0.03 0.02 0.02 0.01 0.01 0.00 0.00 0.01 0.01 0.01 0.01 0.01 0.01 0.02 0.02 0.02 0.02 0.01 0.01 0.01 0.01 0.01 0.02 0.04 0.04 0.03 0.04 0.07 0.06 0.04 0.04 0.04 0.03 0.03 0.02 0.01 0.01 0.01 0.01